[[{"header":{"parameterUnit":"m.s-1","parameterCategory":1,"la1":31.0,"la2":29.5877,"lo1":-88.7671,"lo2":-86.6584,"dx":0.0162,"dy":0.0185,"nx":115,"ny":88,"refTime":"2023-01-24T06:00:00:Z","depth":0,"parameterNumber":2,"parameterNumberName":"U-component_of_WINDS"},"data":[0.0,0.0,0.0,0.0,0.0,0.0,0.0,0.0,0.0,0.0,0.0,0.0,0.0,0.0,0.0,0.0,0.0,0.0,0.0,0.0,0.0,0.0,0.0,0.0,0.0,0.0,0.0,0.0,0.0,0.0,0.0,0.0,0.0,0.0,0.0,0.0,0.0,0.0,0.0,0.0,0.0,0.0,0.0,0.0,0.0,0.0,0.0,0.0,0.0,0.0,0.0,0.0,0.0,0.0,0.0,0.0,0.0,0.0,0.0,0.0,0.0,0.0,0.0,0.0,0.0,0.0,0.0,0.0,0.0,0.0,0.0,0.0,0.0,0.0,0.0,0.0,0.0,0.0,0.0,0.0,0.0,0.0,0.0,0.0,0.0,0.0,0.0,0.0,0.0,0.0,0.0,0.0,0.0,0.0,0.0,0.0,0.0,0.0,0.0,0.0,0.0,0.0,0.0,0.0,0.0,0.0,0.0,0.0,0.0,0.0,0.0,0.0,0.0,0.0,0.0,0.0,0.0,0.0,0.0,0.0,0.0,0.0,0.0,0.0,0.0,0.0,0.0,0.0,0.0,0.0,0.0,0.0,0.0,0.0,0.0,0.0,0.0,0.0,0.0,0.0,0.0,0.0,0.0,0.0,0.0,0.0,0.0,0.0,0.0,0.0,0.0,0.0,0.0,0.0,0.0,0.0,0.0,0.0,0.0,0.0,0.0,0.0,0.0,0.0,0.0,0.0,0.0,0.0,0.0,0.0,0.0,0.0,0.0,0.0,0.0,0.0,0.0,0.0,0.0,0.0,0.0,0.0,0.0,0.0,0.0,0.0,0.0,0.0,0.0,0.0,0.0,0.0,0.0,0.0,0.0,0.0,0.0,0.0,0.0,0.0,0.0,0.0,0.0,0.0,0.0,0.0,0.0,0.0,0.0,0.0,0.0,0.0,0.0,0.0,0.0,0.0,0.0,0.0,0.0,0.0,0.0,0.0,0.0,0.0,0.0,0.0,0.0,0.0,0.0,0.0,0.0,0.0,0.0,0.0,0.0,0.0,0.0,0.0,0.0,0.0,0.0,0.0,0.0,0.0,0.0,0.0,0.0,0.0,0.0,0.0,0.0,0.0,0.0,0.0,0.0,0.0,0.0,0.0,0.0,0.0,0.0,0.0,0.0,0.0,0.0,0.0,0.0,0.0,0.0,0.0,0.0,0.0,0.0,0.0,0.0,0.0,0.0,0.0,0.0,0.0,0.0,0.0,0.0,0.0,0.0,0.0,0.0,0.0,0.0,0.0,0.0,0.0,0.0,0.0,0.0,0.0,0.0,0.0,0.0,0.0,0.0,0.0,0.0,0.0,0.0,0.0,0.0,0.0,0.0,0.0,0.0,0.0,0.0,0.0,0.0,0.0,0.0,0.0,0.0,0.0,0.0,0.0,0.0,0.0,0.0,0.0,0.0,0.0,0.0,0.0,0.0,0.0,0.0,0.0,0.0,0.0,0.0,0.0,0.0,0.0,0.0,0.0,0.0,0.0,0.0,0.0,0.0,0.0,0.0,0.0,0.0,0.0,0.0,0.0,0.0,0.0,0.0,0.0,0.0,0.0,0.0,0.0,0.0,0.0,0.0,0.0,0.0,0.0,0.0,0.0,0.0,0.0,0.0,0.0,0.0,0.0,0.0,0.0,0.0,0.0,0.0,0.0,0.0,0.0,0.0,0.0,0.0,0.0,0.0,0.0,0.0,0.0,0.0,0.0,0.0,0.0,0.0,0.0,0.0,0.0,0.0,0.0,0.0,0.0,0.0,0.0,0.0,0.0,0.0,0.0,0.0,0.0,0.0,0.0,0.0,0.0,0.0,0.0,0.0,0.0,0.0,0.0,0.0,0.0,0.0,0.0,0.0,0.0,0.0,0.0,0.0,0.0,0.0,0.0,0.0,0.0,0.0,0.0,0.0,0.0,0.0,0.0,0.0,0.0,0.0,0.0,0.0,0.0,0.0,0.0,0.0,0.0,0.0,0.0,0.0,0.0,0.0,0.0,0.0,0.0,0.0,0.0,0.0,0.0,0.0,0.0,0.0,0.0,0.0,0.0,0.0,0.0,0.0,0.0,0.0,0.0,0.0,0.0,0.0,0.0,0.0,0.0,0.0,0.0,0.0,0.0,0.0,0.0,0.0,0.0,0.0,0.0,0.0,0.0,0.0,0.0,0.0,0.0,0.0,0.0,0.0,0.0,0.0,0.0,0.0,0.0,0.0,0.0,0.0,0.0,0.0,0.0,0.0,0.0,0.0,0.0,0.0,0.0,0.0,0.0,0.0,0.0,0.0,0.0,0.0,0.0,0.0,0.0,0.0,0.0,0.0,0.0,0.0,0.0,0.0,0.0,0.0,0.0,0.0,0.0,0.0,0.0,0.0,0.0,0.0,0.0,0.0,0.0,0.0,0.0,0.0,0.0,0.0,0.0,0.0,0.0,0.0,0.0,0.0,0.0,0.0,0.0,0.0,0.0,0.0,0.0,0.0,0.0,0.0,0.0,0.0,0.0,0.0,0.0,0.0,0.0,0.0,0.0,0.0,0.0,0.0,0.0,0.0,0.0,0.0,0.0,0.0,0.0,0.0,0.0,0.0,0.0,0.0,0.0,0.0,0.0,0.0,0.0,0.0,0.0,0.0,0.0,0.0,0.0,0.0,0.0,0.0,0.0,0.0,0.0,0.0,0.0,0.0,0.0,0.0,0.0,0.0,0.0,0.0,0.0,0.0,0.0,0.0,0.0,0.0,0.0,0.0,0.0,0.0,0.0,0.0,0.0,0.0,0.0,0.0,0.0,0.0,0.0,0.0,0.0,0.0,0.0,0.0,0.0,0.0,0.0,0.0,0.0,0.0,0.0,0.0,0.0,0.0,0.0,0.0,0.0,0.0,0.0,0.0,0.0,0.0,0.0,0.0,0.0,0.0,0.0,0.0,0.0,0.0,0.0,0.0,0.0,0.0,0.0,0.0,0.0,0.0,0.0,0.0,0.0,0.0,0.0,0.0,0.0,0.0,0.0,0.0,0.0,0.0,0.0,0.0,0.0,0.0,0.0,0.0,0.0,0.0,0.0,0.0,0.0,0.0,0.0,0.0,0.0,0.0,0.0,0.0,0.0,0.0,0.0,0.0,0.0,0.0,0.0,0.0,0.0,0.0,0.0,0.0,0.0,0.0,0.0,0.0,0.0,0.0,0.0,0.0,0.0,0.0,0.0,0.0,0.0,0.0,0.0,0.0,0.0,0.0,0.0,0.0,0.0,0.0,0.0,0.0,0.0,0.0,0.0,0.0,0.0,0.0,0.0,0.0,0.0,0.0,0.0,0.0,0.0,0.0,0.0,0.0,0.0,0.0,0.0,0.0,0.0,0.0,0.0,0.0,0.0,0.0,0.0,0.0,0.0,0.0,0.0,0.0,0.0,0.0,0.0,0.0,0.0,0.0,0.0,0.0,0.0,0.0,0.0,0.0,0.0,0.0,0.0,0.0,0.0,0.0,0.0,0.0,0.0,0.0,0.0,0.0,0.0,0.0,0.0,0.0,0.0,0.0,0.0,0.0,0.0,0.0,0.0,0.0,0.0,0.0,0.0,0.0,0.0,0.0,0.0,0.0,0.0,0.0,0.0,0.0,0.0,0.0,0.0,0.0,0.0,0.0,0.0,0.0,0.0,0.0,0.0,0.0,0.0,0.0,0.0,0.0,0.0,0.0,0.0,0.0,0.0,0.0,0.0,0.0,0.0,0.0,0.0,0.0,0.0,0.0,0.0,0.0,0.0,0.0,0.0,0.0,0.0,0.0,0.0,0.0,0.0,0.0,0.0,0.0,0.0,0.0,0.0,0.0,0.0,0.0,0.0,0.0,0.0,0.0,0.0,0.0,0.0,0.0,0.0,0.0,0.0,0.0,0.0,0.0,0.0,0.0,0.0,0.0,0.0,0.0,0.0,0.0,0.0,0.0,0.0,0.0,0.0,0.0,0.0,0.0,0.0,0.0,0.0,0.0,0.0,0.0,0.0,0.0,0.0,0.0,0.0,0.0,0.0,0.0,0.0,0.0,0.0,0.0,0.0,0.0,0.0,0.0,0.0,0.0,0.0,0.0,0.0,0.0,0.0,0.0,0.0,0.0,0.0,0.0,0.0,0.0,0.0,0.0,0.0,0.0,0.0,0.0,0.0,0.0,0.0,0.0,0.0,0.0,0.0,0.0,0.0,0.0,0.0,0.0,0.0,0.0,0.0,0.0,0.0,0.0,0.0,0.0,0.0,-3.5898,0.0,0.0,0.0,0.0,0.0,0.0,0.0,0.0,0.0,0.0,0.0,0.0,0.0,0.0,0.0,0.0,0.0,0.0,0.0,0.0,0.0,0.0,0.0,0.0,0.0,0.0,0.0,0.0,0.0,0.0,0.0,0.0,0.0,0.0,0.0,0.0,0.0,0.0,0.0,0.0,0.0,0.0,0.0,0.0,0.0,0.0,0.0,0.0,0.0,0.0,0.0,0.0,0.0,0.0,0.0,0.0,0.0,0.0,0.0,0.0,0.0,0.0,0.0,0.0,0.0,0.0,0.0,0.0,0.0,0.0,0.0,0.0,0.0,0.0,0.0,0.0,0.0,0.0,0.0,0.0,0.0,0.0,0.0,0.0,0.0,0.0,0.0,0.0,0.0,0.0,0.0,0.0,0.0,0.0,0.0,0.0,0.0,0.0,0.0,0.0,0.0,0.0,0.0,0.0,0.0,0.0,0.0,0.0,0.0,0.0,-3.6808,-3.7949,-3.5371,-3.4786,-3.6571,0.0,0.0,0.0,0.0,0.0,0.0,0.0,0.0,0.0,0.0,0.0,0.0,0.0,0.0,0.0,0.0,0.0,0.0,0.0,0.0,0.0,0.0,0.0,0.0,0.0,0.0,0.0,0.0,0.0,0.0,0.0,0.0,0.0,0.0,0.0,0.0,0.0,0.0,0.0,0.0,0.0,0.0,0.0,0.0,0.0,0.0,0.0,0.0,0.0,0.0,0.0,0.0,0.0,0.0,0.0,0.0,0.0,0.0,0.0,0.0,0.0,0.0,0.0,0.0,0.0,0.0,0.0,0.0,0.0,0.0,0.0,0.0,0.0,0.0,0.0,0.0,0.0,0.0,0.0,0.0,0.0,0.0,0.0,0.0,0.0,0.0,0.0,0.0,0.0,0.0,0.0,0.0,0.0,0.0,0.0,0.0,0.0,0.0,0.0,0.0,0.0,0.0,0.0,0.0,0.0,0.0,0.0,0.0,0.0,0.0,0.0,0.0,-3.5155,-3.4713,-3.6844,0.0,0.0,0.0,0.0,0.0,0.0,0.0,0.0,0.0,0.0,0.0,0.0,0.0,0.0,0.0,0.0,0.0,0.0,0.0,0.0,0.0,0.0,0.0,0.0,0.0,0.0,0.0,0.0,0.0,0.0,0.0,0.0,0.0,0.0,0.0,0.0,0.0,0.0,0.0,0.0,0.0,0.0,0.0,0.0,0.0,0.0,0.0,0.0,0.0,0.0,0.0,0.0,0.0,0.0,0.0,0.0,0.0,0.0,0.0,0.0,0.0,0.0,0.0,0.0,0.0,0.0,0.0,0.0,0.0,0.0,0.0,0.0,0.0,0.0,0.0,0.0,0.0,0.0,0.0,0.0,0.0,0.0,0.0,0.0,0.0,0.0,0.0,0.0,0.0,0.0,0.0,0.0,0.0,0.0,0.0,0.0,0.0,0.0,0.0,0.0,0.0,0.0,0.0,0.0,0.0,0.0,0.0,0.0,0.0,0.0,-3.6127,-3.5388,-3.6303,0.0,-3.6191,0.0,0.0,0.0,0.0,0.0,0.0,0.0,0.0,0.0,0.0,0.0,0.0,0.0,0.0,0.0,0.0,0.0,0.0,0.0,0.0,0.0,0.0,0.0,0.0,0.0,0.0,0.0,0.0,0.0,0.0,0.0,0.0,0.0,0.0,0.0,0.0,0.0,0.0,0.0,0.0,0.0,0.0,0.0,0.0,0.0,0.0,0.0,0.0,0.0,0.0,0.0,0.0,0.0,0.0,0.0,0.0,0.0,0.0,0.0,0.0,0.0,0.0,0.0,0.0,0.0,0.0,0.0,0.0,0.0,0.0,0.0,0.0,0.0,0.0,0.0,0.0,0.0,0.0,0.0,0.0,0.0,0.0,0.0,0.0,0.0,0.0,0.0,0.0,0.0,0.0,0.0,0.0,0.0,0.0,0.0,0.0,0.0,0.0,0.0,0.0,0.0,0.0,0.0,0.0,0.0,0.0,0.0,0.0,0.0,0.0,-3.6738,-3.6728,-3.7139,-3.7012,0.0,0.0,0.0,0.0,0.0,0.0,0.0,0.0,0.0,0.0,0.0,0.0,0.0,0.0,0.0,0.0,0.0,0.0,0.0,0.0,0.0,0.0,0.0,0.0,0.0,0.0,0.0,0.0,0.0,0.0,0.0,0.0,0.0,0.0,0.0,0.0,0.0,0.0,0.0,0.0,0.0,0.0,0.0,0.0,0.0,0.0,0.0,0.0,0.0,0.0,0.0,0.0,0.0,0.0,0.0,0.0,0.0,0.0,0.0,0.0,0.0,0.0,0.0,0.0,0.0,0.0,0.0,0.0,0.0,0.0,0.0,0.0,0.0,0.0,0.0,0.0,0.0,0.0,0.0,0.0,0.0,0.0,0.0,0.0,0.0,0.0,0.0,0.0,0.0,0.0,0.0,0.0,0.0,0.0,0.0,0.0,0.0,0.0,0.0,0.0,0.0,0.0,0.0,0.0,0.0,0.0,0.0,0.0,0.0,0.0,-3.4689,-3.5849,-3.6904,-3.6841,-3.6842,-3.6855,0.0,0.0,0.0,0.0,0.0,0.0,0.0,0.0,0.0,0.0,0.0,0.0,0.0,0.0,0.0,0.0,0.0,0.0,0.0,0.0,0.0,0.0,0.0,0.0,0.0,0.0,0.0,0.0,0.0,0.0,0.0,0.0,0.0,0.0,0.0,0.0,0.0,0.0,0.0,0.0,0.0,0.0,0.0,0.0,0.0,0.0,0.0,0.0,0.0,0.0,0.0,0.0,0.0,0.0,0.0,0.0,0.0,0.0,0.0,0.0,0.0,0.0,0.0,0.0,0.0,0.0,0.0,0.0,0.0,0.0,0.0,0.0,0.0,0.0,0.0,0.0,0.0,0.0,0.0,0.0,0.0,0.0,0.0,0.0,0.0,0.0,0.0,0.0,0.0,0.0,0.0,0.0,0.0,0.0,0.0,0.0,0.0,0.0,0.0,0.0,0.0,0.0,0.0,0.0,0.0,0.0,0.0,0.0,0.0,-3.151,-3.2584,-3.4655,-3.5299,-3.608,0.0,0.0,0.0,0.0,0.0,0.0,0.0,0.0,0.0,0.0,0.0,0.0,0.0,0.0,0.0,0.0,0.0,0.0,0.0,0.0,0.0,0.0,0.0,0.0,0.0,0.0,0.0,0.0,0.0,0.0,0.0,0.0,0.0,0.0,0.0,0.0,0.0,0.0,0.0,0.0,0.0,0.0,0.0,0.0,0.0,0.0,0.0,0.0,0.0,0.0,0.0,0.0,0.0,0.0,0.0,0.0,0.0,0.0,0.0,0.0,0.0,0.0,0.0,0.0,0.0,0.0,0.0,0.0,0.0,0.0,0.0,0.0,0.0,0.0,0.0,0.0,0.0,0.0,0.0,0.0,0.0,0.0,0.0,0.0,0.0,0.0,0.0,0.0,0.0,0.0,0.0,0.0,0.0,0.0,0.0,0.0,0.0,0.0,0.0,0.0,0.0,0.0,0.0,0.0,0.0,0.0,0.0,0.0,0.0,-3.3735,-3.3026,-3.301,-3.3576,-3.499,-3.6195,0.0,0.0,0.0,0.0,0.0,0.0,0.0,0.0,0.0,0.0,0.0,0.0,0.0,0.0,0.0,0.0,0.0,0.0,0.0,0.0,0.0,0.0,0.0,0.0,0.0,0.0,0.0,0.0,0.0,0.0,0.0,0.0,0.0,0.0,0.0,0.0,0.0,0.0,0.0,0.0,0.0,0.0,0.0,0.0,0.0,0.0,0.0,0.0,0.0,0.0,0.0,0.0,0.0,0.0,0.0,0.0,0.0,0.0,0.0,0.0,0.0,0.0,0.0,0.0,0.0,0.0,0.0,0.0,0.0,0.0,0.0,0.0,0.0,0.0,0.0,0.0,0.0,0.0,0.0,0.0,0.0,0.0,0.0,0.0,0.0,0.0,0.0,0.0,0.0,0.0,0.0,0.0,0.0,0.0,0.0,0.0,0.0,0.0,0.0,0.0,0.0,0.0,0.0,0.0,0.0,0.0,0.0,0.0,0.0,-3.349,0.0,-3.1261,-3.1645,-3.3283,-3.492,0.0,0.0,0.0,0.0,0.0,0.0,0.0,0.0,0.0,0.0,0.0,0.0,0.0,0.0,0.0,0.0,0.0,0.0,0.0,0.0,0.0,0.0,0.0,0.0,0.0,0.0,0.0,0.0,0.0,0.0,0.0,0.0,0.0,0.0,0.0,0.0,0.0,0.0,0.0,0.0,0.0,0.0,0.0,0.0,0.0,0.0,0.0,0.0,0.0,0.0,0.0,0.0,0.0,0.0,0.0,0.0,0.0,0.0,0.0,0.0,0.0,0.0,0.0,0.0,0.0,0.0,0.0,0.0,0.0,0.0,0.0,0.0,0.0,0.0,0.0,0.0,0.0,0.0,0.0,0.0,0.0,0.0,0.0,0.0,0.0,0.0,0.0,0.0,0.0,0.0,0.0,0.0,0.0,0.0,0.0,0.0,0.0,0.0,0.0,0.0,0.0,0.0,0.0,0.0,0.0,0.0,0.0,0.0,-3.6685,-3.0367,-2.7572,-2.7229,-2.8907,-3.0086,-3.2274,0.0,0.0,0.0,0.0,0.0,0.0,0.0,0.0,0.0,0.0,0.0,0.0,0.0,0.0,0.0,0.0,0.0,0.0,0.0,0.0,0.0,0.0,0.0,0.0,0.0,0.0,0.0,0.0,0.0,0.0,0.0,0.0,0.0,0.0,0.0,0.0,0.0,0.0,0.0,0.0,0.0,0.0,0.0,0.0,0.0,0.0,0.0,0.0,0.0,0.0,0.0,0.0,0.0,0.0,0.0,0.0,0.0,0.0,0.0,0.0,0.0,0.0,0.0,0.0,0.0,0.0,0.0,0.0,0.0,0.0,0.0,0.0,0.0,0.0,0.0,0.0,0.0,0.0,0.0,0.0,0.0,0.0,0.0,0.0,0.0,0.0,0.0,0.0,0.0,0.0,0.0,0.0,0.0,0.0,0.0,0.0,0.0,0.0,0.0,0.0,0.0,0.0,0.0,0.0,0.0,0.0,0.0,0.0,0.0,-3.1536,-2.8432,-2.7813,-2.961,-3.0313,-3.1496,0.0,0.0,0.0,0.0,0.0,0.0,0.0,0.0,0.0,0.0,0.0,0.0,0.0,0.0,0.0,0.0,0.0,0.0,0.0,0.0,0.0,0.0,0.0,0.0,0.0,0.0,0.0,0.0,0.0,0.0,0.0,0.0,0.0,0.0,0.0,0.0,0.0,0.0,0.0,0.0,0.0,0.0,0.0,0.0,0.0,0.0,0.0,0.0,0.0,0.0,0.0,0.0,0.0,0.0,0.0,0.0,0.0,0.0,0.0,0.0,0.0,0.0,0.0,0.0,0.0,0.0,0.0,0.0,0.0,0.0,0.0,0.0,0.0,0.0,0.0,0.0,0.0,0.0,0.0,0.0,0.0,0.0,0.0,0.0,0.0,0.0,0.0,0.0,0.0,0.0,0.0,0.0,0.0,0.0,0.0,0.0,0.0,0.0,0.0,0.0,0.0,0.0,0.0,0.0,0.0,0.0,0.0,0.0,0.0,-3.0603,-2.8218,-2.7458,-2.855,-2.9112,-3.0038,-3.1544,0.0,0.0,0.0,0.0,0.0,0.0,0.0,0.0,0.0,0.0,0.0,0.0,0.0,0.0,0.0,0.0,0.0,0.0,0.0,0.0,0.0,0.0,0.0,0.0,0.0,0.0,0.0,0.0,0.0,0.0,0.0,0.0,0.0,0.0,0.0,0.0,0.0,0.0,0.0,0.0,0.0,0.0,0.0,0.0,0.0,0.0,0.0,0.0,0.0,0.0,0.0,0.0,0.0,0.0,0.0,0.0,0.0,0.0,0.0,0.0,0.0,0.0,0.0,0.0,0.0,0.0,0.0,0.0,0.0,0.0,0.0,0.0,0.0,0.0,0.0,0.0,0.0,0.0,0.0,0.0,0.0,0.0,0.0,0.0,0.0,0.0,0.0,0.0,0.0,0.0,0.0,0.0,0.0,0.0,0.0,0.0,0.0,0.0,0.0,0.0,0.0,0.0,0.0,0.0,0.0,0.0,0.0,0.0,-2.8261,-2.7028,-2.642,-2.6375,-2.6904,-2.812,0.0,0.0,0.0,0.0,0.0,0.0,0.0,0.0,0.0,0.0,0.0,0.0,0.0,0.0,0.0,0.0,0.0,0.0,0.0,0.0,0.0,0.0,0.0,0.0,0.0,0.0,0.0,0.0,0.0,0.0,0.0,0.0,0.0,0.0,0.0,0.0,0.0,0.0,0.0,0.0,0.0,0.0,0.0,0.0,0.0,0.0,0.0,0.0,0.0,0.0,0.0,0.0,0.0,0.0,0.0,0.0,0.0,0.0,0.0,0.0,0.0,0.0,0.0,0.0,0.0,0.0,0.0,0.0,0.0,0.0,0.0,0.0,0.0,0.0,0.0,0.0,0.0,0.0,0.0,0.0,0.0,0.0,0.0,0.0,0.0,0.0,0.0,0.0,0.0,0.0,0.0,0.0,0.0,0.0,0.0,0.0,0.0,0.0,0.0,0.0,0.0,0.0,0.0,0.0,0.0,0.0,0.0,0.0,0.0,-2.8569,-2.8547,-2.8524,-2.8278,-2.8057,-2.827,0.0,0.0,0.0,0.0,0.0,0.0,0.0,0.0,0.0,0.0,0.0,0.0,0.0,0.0,0.0,0.0,0.0,0.0,0.0,0.0,0.0,0.0,0.0,0.0,0.0,0.0,0.0,0.0,0.0,0.0,0.0,0.0,0.0,0.0,0.0,0.0,0.0,0.0,0.0,0.0,0.0,0.0,0.0,0.0,0.0,0.0,0.0,0.0,0.0,0.0,0.0,0.0,0.0,0.0,0.0,0.0,0.0,0.0,0.0,0.0,0.0,0.0,0.0,0.0,0.0,0.0,0.0,0.0,0.0,0.0,0.0,0.0,0.0,0.0,0.0,0.0,0.0,0.0,0.0,0.0,0.0,0.0,0.0,0.0,0.0,0.0,0.0,0.0,0.0,0.0,0.0,0.0,0.0,0.0,0.0,0.0,0.0,0.0,0.0,0.0,0.0,0.0,0.0,0.0,0.0,0.0,0.0,0.0,-3.0115,-2.8631,-2.9659,-3.0074,-2.978,-2.9427,-2.8985,0.0,0.0,0.0,0.0,0.0,0.0,0.0,0.0,0.0,0.0,0.0,0.0,0.0,0.0,0.0,0.0,0.0,0.0,0.0,0.0,0.0,0.0,0.0,0.0,0.0,0.0,0.0,0.0,0.0,0.0,0.0,0.0,0.0,0.0,0.0,0.0,0.0,0.0,0.0,0.0,0.0,0.0,0.0,0.0,0.0,0.0,0.0,0.0,0.0,0.0,0.0,0.0,0.0,0.0,0.0,0.0,0.0,0.0,0.0,0.0,0.0,0.0,0.0,0.0,0.0,0.0,0.0,0.0,0.0,0.0,0.0,0.0,0.0,0.0,0.0,0.0,0.0,0.0,0.0,0.0,0.0,0.0,0.0,0.0,0.0,0.0,0.0,0.0,0.0,0.0,0.0,0.0,0.0,0.0,0.0,0.0,0.0,0.0,0.0,0.0,0.0,0.0,0.0,0.0,0.0,0.0,0.0,0.0,-2.978,-2.8791,-3.0394,-3.1142,-3.0889,-3.0541,-2.9757,0.0,0.0,0.0,0.0,0.0,0.0,0.0,0.0,0.0,0.0,0.0,0.0,0.0,0.0,0.0,0.0,0.0,0.0,0.0,0.0,0.0,0.0,0.0,0.0,0.0,0.0,0.0,0.0,0.0,0.0,0.0,0.0,0.0,0.0,0.0,0.0,0.0,0.0,0.0,0.0,0.0,0.0,0.0,0.0,0.0,0.0,0.0,0.0,0.0,0.0,0.0,0.0,0.0,0.0,0.0,0.0,0.0,0.0,0.0,0.0,0.0,0.0,0.0,0.0,0.0,0.0,0.0,0.0,0.0,0.0,0.0,0.0,0.0,0.0,0.0,0.0,0.0,0.0,0.0,0.0,0.0,0.0,0.0,0.0,0.0,0.0,0.0,0.0,0.0,0.0,0.0,0.0,0.0,0.0,0.0,0.0,0.0,0.0,0.0,0.0,0.0,0.0,0.0,0.0,0.0,0.0,0.0,0.0,-2.9659,-2.9659,-3.0902,-3.1543,-3.1476,-3.0755,-3.0115,0.0,0.0,0.0,0.0,0.0,0.0,0.0,0.0,0.0,0.0,0.0,0.0,0.0,0.0,0.0,0.0,0.0,0.0,0.0,0.0,0.0,0.0,0.0,0.0,0.0,0.0,0.0,0.0,0.0,0.0,0.0,0.0,0.0,0.0,0.0,0.0,0.0,0.0,0.0,0.0,0.0,0.0,0.0,0.0,0.0,0.0,0.0,0.0,-3.1309,0.0,0.0,0.0,0.0,0.0,0.0,0.0,0.0,0.0,0.0,0.0,0.0,0.0,0.0,0.0,0.0,0.0,0.0,0.0,0.0,0.0,0.0,0.0,0.0,0.0,0.0,0.0,0.0,0.0,0.0,0.0,0.0,0.0,0.0,0.0,0.0,0.0,0.0,0.0,0.0,0.0,0.0,0.0,0.0,0.0,0.0,0.0,0.0,0.0,0.0,0.0,0.0,0.0,0.0,0.0,0.0,0.0,0.0,0.0,-2.982,-3.014,-3.1142,-3.1677,-3.165,-3.1076,-3.0512,0.0,0.0,0.0,0.0,0.0,0.0,0.0,0.0,0.0,0.0,0.0,0.0,0.0,0.0,0.0,0.0,0.0,0.0,0.0,0.0,0.0,0.0,0.0,0.0,0.0,0.0,0.0,0.0,0.0,0.0,0.0,0.0,0.0,0.0,0.0,0.0,0.0,0.0,0.0,0.0,0.0,0.0,0.0,0.0,0.0,0.0,0.0,0.0,0.0,0.0,0.0,0.0,0.0,0.0,0.0,0.0,0.0,0.0,0.0,0.0,0.0,0.0,0.0,0.0,0.0,0.0,0.0,0.0,0.0,0.0,0.0,0.0,0.0,0.0,0.0,0.0,0.0,0.0,0.0,0.0,0.0,0.0,0.0,0.0,0.0,0.0,0.0,0.0,0.0,0.0,0.0,0.0,0.0,0.0,0.0,0.0,0.0,0.0,0.0,0.0,0.0,0.0,0.0,0.0,0.0,0.0,0.0,-2.9539,-3.01,-3.0501,-3.1263,-3.1677,-3.1664,-3.1383,-3.1062,-3.089,0.0,0.0,0.0,0.0,0.0,0.0,0.0,0.0,0.0,0.0,0.0,0.0,0.0,0.0,0.0,0.0,0.0,0.0,0.0,0.0,0.0,0.0,0.0,0.0,0.0,0.0,0.0,0.0,0.0,0.0,0.0,0.0,0.0,0.0,0.0,0.0,0.0,0.0,-3.3105,-3.3325,0.0,0.0,0.0,0.0,0.0,0.0,0.0,0.0,-3.2051,0.0,0.0,0.0,0.0,0.0,0.0,0.0,0.0,0.0,0.0,0.0,0.0,0.0,0.0,0.0,0.0,0.0,0.0,0.0,0.0,0.0,0.0,0.0,0.0,0.0,0.0,0.0,0.0,0.0,0.0,0.0,0.0,0.0,0.0,0.0,0.0,0.0,0.0,0.0,0.0,0.0,0.0,0.0,0.0,0.0,0.0,0.0,0.0,0.0,0.0,0.0,0.0,0.0,0.0,0.0,0.0,-2.9686,-2.9847,-3.0301,-3.1062,-3.1463,-3.1677,-3.1664,-3.1383,-3.1792,-3.2871,0.0,0.0,0.0,0.0,0.0,0.0,0.0,0.0,0.0,0.0,0.0,0.0,0.0,0.0,0.0,0.0,0.0,0.0,0.0,0.0,0.0,0.0,0.0,0.0,0.0,0.0,0.0,0.0,0.0,0.0,0.0,0.0,0.0,0.0,0.0,0.0,0.0,0.0,0.0,-3.552,-3.5754,0.0,0.0,0.0,0.0,0.0,0.0,0.0,0.0,-3.1612,0.0,0.0,0.0,0.0,0.0,0.0,0.0,0.0,0.0,0.0,0.0,0.0,0.0,0.0,0.0,0.0,0.0,0.0,0.0,0.0,0.0,0.0,0.0,0.0,0.0,0.0,0.0,0.0,0.0,0.0,0.0,0.0,0.0,0.0,0.0,0.0,0.0,0.0,0.0,0.0,0.0,0.0,0.0,0.0,0.0,0.0,0.0,0.0,0.0,0.0,0.0,0.0,0.0,0.0,0.0,-3.0177,-3.014,-3.0568,-3.1423,-3.1597,-3.1677,-3.1758,-3.1899,-3.2577,0.0,0.0,0.0,0.0,0.0,0.0,0.0,0.0,0.0,0.0,0.0,0.0,0.0,0.0,0.0,0.0,0.0,0.0,0.0,0.0,0.0,0.0,0.0,0.0,0.0,0.0,0.0,0.0,0.0,0.0,0.0,0.0,0.0,0.0,0.0,0.0,0.0,0.0,0.0,0.0,-3.6689,-3.6842,-3.6784,0.0,0.0,0.0,0.0,0.0,0.0,-3.2925,-3.2186,0.0,0.0,0.0,0.0,0.0,0.0,0.0,0.0,0.0,0.0,0.0,0.0,0.0,0.0,0.0,0.0,0.0,0.0,0.0,0.0,0.0,0.0,0.0,0.0,0.0,0.0,0.0,0.0,0.0,0.0,0.0,0.0,0.0,0.0,0.0,0.0,0.0,0.0,0.0,0.0,0.0,0.0,0.0,0.0,0.0,0.0,0.0,0.0,0.0,0.0,0.0,0.0,0.0,0.0,0.0,-3.1771,-3.1819,-3.2292,-3.3114,-3.3086,-3.3058,-3.3044,-3.3094,-3.3659,0.0,0.0,0.0,0.0,0.0,0.0,0.0,0.0,0.0,0.0,0.0,0.0,0.0,0.0,0.0,0.0,0.0,0.0,0.0,0.0,0.0,0.0,0.0,0.0,0.0,0.0,0.0,0.0,0.0,0.0,0.0,0.0,0.0,0.0,0.0,0.0,0.0,0.0,0.0,0.0,0.0,-3.8057,-3.7955,-3.7267,0.0,0.0,0.0,0.0,-3.4327,-3.4041,0.0,0.0,0.0,0.0,0.0,0.0,0.0,0.0,0.0,0.0,0.0,0.0,0.0,0.0,0.0,0.0,0.0,0.0,0.0,0.0,0.0,0.0,0.0,0.0,0.0,0.0,0.0,0.0,0.0,0.0,0.0,0.0,0.0,0.0,0.0,0.0,0.0,0.0,0.0,0.0,0.0,0.0,0.0,0.0,0.0,0.0,0.0,0.0,0.0,0.0,0.0,0.0,0.0,0.0,0.0,0.0,-3.6047,-3.6537,-3.7194,-3.7883,-3.7633,-3.7476,-3.7367,-3.5491,-3.5883,0.0,0.0,0.0,0.0,0.0,0.0,0.0,0.0,0.0,0.0,0.0,0.0,0.0,0.0,0.0,0.0,0.0,0.0,0.0,0.0,0.0,0.0,0.0,0.0,0.0,0.0,0.0,0.0,0.0,0.0,0.0,0.0,0.0,0.0,0.0,0.0,0.0,0.0,0.0,0.0,0.0,-4.0792,-3.9772,-3.9494,-3.8955,0.0,0.0,-3.6174,-3.6872,-3.6846,0.0,0.0,0.0,0.0,0.0,0.0,0.0,0.0,0.0,0.0,0.0,0.0,0.0,0.0,0.0,0.0,0.0,0.0,0.0,0.0,0.0,0.0,0.0,0.0,0.0,0.0,0.0,0.0,0.0,0.0,0.0,0.0,0.0,0.0,0.0,0.0,0.0,0.0,0.0,0.0,0.0,0.0,0.0,0.0,0.0,0.0,0.0,0.0,0.0,0.0,0.0,0.0,0.0,0.0,0.0,-3.8334,-3.728,-3.7791,-3.8302,-3.8797,-3.8861,-3.8685,-3.8193,-3.7552,-3.8072,0.0,0.0,0.0,0.0,0.0,0.0,0.0,0.0,0.0,0.0,0.0,0.0,0.0,0.0,0.0,0.0,0.0,0.0,0.0,0.0,0.0,0.0,0.0,0.0,0.0,0.0,0.0,0.0,0.0,0.0,0.0,0.0,0.0,0.0,0.0,0.0,0.0,0.0,0.0,0.0,0.0,0.0,-3.9719,-3.9733,0.0,0.0,0.0,-3.7498,-3.8307,0.0,0.0,0.0,0.0,0.0,0.0,0.0,0.0,0.0,0.0,0.0,0.0,0.0,0.0,0.0,0.0,0.0,0.0,0.0,0.0,0.0,0.0,0.0,0.0,0.0,0.0,0.0,0.0,0.0,0.0,0.0,0.0,0.0,0.0,0.0,0.0,0.0,0.0,0.0,0.0,0.0,0.0,0.0,0.0,0.0,0.0,0.0,0.0,0.0,0.0,0.0,0.0,0.0,0.0,0.0,0.0,0.0,-3.9341,-3.9822,-4.032,-4.0867,-4.1033,-4.0784,-3.9961,-3.9802,0.0,0.0,0.0,0.0,0.0,0.0,0.0,0.0,0.0,0.0,0.0,0.0,0.0,0.0,0.0,0.0,0.0,0.0,0.0,0.0,0.0,0.0,0.0,0.0,0.0,0.0,0.0,-3.2826,0.0,0.0,0.0,0.0,0.0,0.0,0.0,0.0,0.0,0.0,0.0,0.0,0.0,0.0,-4.0709,-3.9943,-4.0435,-4.0768,0.0,0.0,-3.905,-3.948,-3.9185,-3.8076,0.0,0.0,0.0,0.0,0.0,0.0,0.0,0.0,0.0,0.0,0.0,0.0,0.0,0.0,0.0,0.0,0.0,0.0,0.0,0.0,0.0,0.0,0.0,0.0,0.0,0.0,0.0,0.0,0.0,0.0,0.0,0.0,0.0,0.0,0.0,0.0,0.0,0.0,0.0,0.0,0.0,0.0,0.0,0.0,0.0,0.0,0.0,0.0,0.0,0.0,0.0,0.0,0.0,0.0,0.0,-4.3669,-4.4433,-4.5285,-4.6489,-4.6198,-4.5634,-4.4852,-4.2311,-4.1734,0.0,0.0,0.0,0.0,0.0,0.0,0.0,0.0,0.0,0.0,0.0,0.0,0.0,0.0,0.0,0.0,0.0,0.0,0.0,0.0,0.0,0.0,0.0,0.0,0.0,0.0,0.0,0.0,0.0,0.0,0.0,0.0,0.0,0.0,0.0,0.0,0.0,0.0,0.0,0.0,0.0,-4.1109,-4.1426,-4.2494,-4.3096,0.0,0.0,-4.1189,-4.0538,-4.1886,-4.1482,-3.6842,0.0,0.0,0.0,0.0,0.0,0.0,0.0,0.0,0.0,0.0,0.0,0.0,0.0,0.0,0.0,0.0,0.0,0.0,0.0,0.0,0.0,0.0,0.0,0.0,0.0,0.0,0.0,0.0,0.0,0.0,0.0,0.0,0.0,0.0,0.0,0.0,0.0,0.0,0.0,0.0,0.0,0.0,0.0,0.0,0.0,0.0,0.0,0.0,0.0,0.0,0.0,0.0,0.0,-4.3426,-4.4801,-4.5627,-4.6617,-4.7772,-4.7681,-4.7222,-4.6434,-4.4606,-4.3541,0.0,0.0,0.0,0.0,0.0,0.0,0.0,0.0,0.0,0.0,0.0,0.0,0.0,0.0,0.0,0.0,0.0,0.0,0.0,0.0,0.0,0.0,0.0,0.0,0.0,0.0,0.0,0.0,-3.3156,-3.3211,-3.3541,0.0,0.0,0.0,0.0,0.0,0.0,0.0,0.0,0.0,0.0,-4.1936,-4.2346,-4.3221,0.0,0.0,-4.3481,-4.2784,-4.2711,-4.2087,-4.0565,-3.7466,-3.5834,0.0,0.0,0.0,0.0,0.0,0.0,0.0,0.0,0.0,0.0,0.0,0.0,0.0,0.0,0.0,0.0,0.0,0.0,0.0,0.0,0.0,0.0,0.0,0.0,0.0,0.0,0.0,0.0,0.0,0.0,0.0,0.0,0.0,0.0,0.0,0.0,0.0,0.0,0.0,0.0,0.0,0.0,0.0,0.0,0.0,0.0,0.0,0.0,0.0,0.0,0.0,0.0,-4.3756,-4.5627,-4.6324,-4.7259,-4.8451,-4.8469,-4.8029,-4.713,-4.6048,-4.4765,0.0,0.0,0.0,0.0,0.0,0.0,0.0,0.0,0.0,0.0,0.0,0.0,0.0,0.0,0.0,0.0,0.0,0.0,0.0,0.0,0.0,0.0,0.0,0.0,0.0,0.0,0.0,0.0,-3.3285,-3.3413,-3.411,0.0,0.0,0.0,0.0,0.0,0.0,0.0,0.0,0.0,0.0,-4.271,-4.2909,-4.3774,-4.4563,-4.4893,-4.4013,-4.3353,-4.3518,-4.2216,-4.0327,-3.7833,0.0,0.0,0.0,0.0,0.0,0.0,0.0,0.0,0.0,0.0,0.0,0.0,0.0,0.0,0.0,0.0,0.0,0.0,0.0,0.0,0.0,0.0,0.0,0.0,0.0,0.0,0.0,0.0,0.0,0.0,-4.6489,0.0,0.0,0.0,0.0,0.0,0.0,0.0,0.0,0.0,0.0,0.0,0.0,0.0,0.0,0.0,0.0,0.0,0.0,0.0,0.0,0.0,0.0,-4.482,-4.6434,-4.6874,-4.7681,-4.8854,-4.8909,-4.8341,-4.7185,-4.6324,-4.5297,-4.405,0.0,0.0,0.0,0.0,0.0,0.0,0.0,0.0,0.0,0.0,0.0,0.0,0.0,0.0,0.0,0.0,0.0,0.0,0.0,0.0,0.0,0.0,0.0,0.0,0.0,0.0,-3.5449,-3.4844,-3.4513,0.0,0.0,0.0,0.0,0.0,0.0,0.0,0.0,0.0,0.0,-4.1409,-4.3316,-4.2968,-4.4251,-4.4985,-4.427,-4.3444,-4.2784,-4.2454,-4.2582,-4.1592,0.0,0.0,0.0,0.0,0.0,0.0,0.0,0.0,0.0,0.0,0.0,0.0,0.0,0.0,0.0,0.0,0.0,0.0,0.0,0.0,0.0,0.0,0.0,0.0,0.0,0.0,0.0,-4.6416,-4.6089,0.0,0.0,0.0,0.0,0.0,0.0,0.0,0.0,0.0,0.0,0.0,-4.6525,-4.6892,0.0,0.0,0.0,0.0,0.0,0.0,0.0,0.0,0.0,0.0,0.0,0.0,-4.5003,-4.6819,-4.7295,-4.8212,-4.9661,-4.9441,-4.8983,-4.8322,-4.6984,-4.5223,-4.2949,0.0,0.0,0.0,0.0,0.0,0.0,0.0,0.0,0.0,0.0,0.0,0.0,0.0,0.0,0.0,0.0,0.0,0.0,0.0,0.0,0.0,0.0,0.0,0.0,0.0,-3.5082,0.0,0.0,0.0,0.0,0.0,0.0,0.0,0.0,0.0,0.0,0.0,-3.8566,-4.0052,-4.1886,-4.3316,-4.3976,-4.4765,-4.5297,0.0,0.0,0.0,0.0,0.0,0.0,0.0,0.0,0.0,0.0,0.0,0.0,0.0,0.0,-4.1555,-3.7976,-3.6627,-3.5906,-3.5979,0.0,0.0,0.0,0.0,0.0,0.0,0.0,0.0,0.0,0.0,0.0,0.0,0.0,0.0,-4.6172,0.0,-4.6114,0.0,0.0,0.0,0.0,0.0,0.0,0.0,0.0,-4.7545,-4.7808,-4.7919,-4.8304,-4.8286,0.0,-4.724,-4.6379,0.0,0.0,0.0,0.0,0.0,0.0,0.0,0.0,-4.5443,-4.724,-4.7846,-4.8781,-5.0046,-4.9716,-4.9313,-4.8891,-4.7204,-4.5077,-4.2564,-4.1335,-4.0143,0.0,0.0,0.0,0.0,0.0,0.0,0.0,0.0,0.0,0.0,0.0,0.0,0.0,0.0,0.0,0.0,0.0,0.0,0.0,0.0,0.0,0.0,0.0,-3.5174,0.0,0.0,0.0,0.0,0.0,0.0,0.0,0.0,0.0,-3.7796,-3.8566,-3.9722,-4.1464,-4.2619,-4.3628,-4.4545,0.0,0.0,0.0,0.0,0.0,0.0,0.0,-4.1537,-4.0987,-4.0473,-4.0162,-4.0272,-4.1739,-4.2821,-4.2527,0.0,0.0,-3.9978,-3.8566,-3.7888,-3.7888,-3.7668,-3.7426,-3.7572,-3.7979,-3.8273,0.0,0.0,0.0,0.0,0.0,0.0,0.0,0.0,-4.5966,-4.6169,0.0,-4.5789,0.0,0.0,0.0,0.0,0.0,-4.7515,0.0,0.0,-4.7888,-4.828,-4.8451,-4.8891,-4.8836,-4.8432,-4.8781,-4.8524,-4.7626,-4.5021,0.0,0.0,0.0,0.0,0.0,0.0,-4.6122,-4.7681,-4.8506,-4.9313,-5.0083,-4.9735,-4.9313,-4.8854,-4.6965,-4.4985,-4.3059,-4.3206,-4.2161,-3.952,-4.0767,0.0,0.0,0.0,0.0,0.0,0.0,0.0,0.0,0.0,0.0,0.0,0.0,0.0,0.0,0.0,0.0,0.0,0.0,0.0,0.0,-3.5907,0.0,0.0,0.0,0.0,0.0,0.0,0.0,0.0,0.0,0.0,-3.8786,-4.0125,-4.1537,-4.2729,0.0,0.0,0.0,0.0,-4.4123,-4.4178,-4.3811,-4.3573,-4.3591,-4.3848,-4.3518,-4.2014,0.0,0.0,-4.2601,-4.3371,-4.3903,-4.3133,-4.3701,-4.4141,-4.4031,-4.2326,-4.1079,-4.1089,-3.9887,-3.9043,-3.93,-3.985,-4.0189,-5.0552,0.0,0.0,0.0,0.0,-4.9669,-4.9104,-4.8071,-4.8018,-4.7635,-4.6993,-4.6605,0.0,0.0,0.0,0.0,0.0,0.0,-4.8931,-4.9079,-5.0143,-5.0585,-5.0486,-5.144,-5.155,-5.089,-5.0413,-4.979,-4.8946,-4.7589,-4.647,-4.5627,0.0,0.0,0.0,0.0,-4.68,-4.8066,-4.8928,-4.9588,-5.012,-5.001,-4.9478,-4.8487,-4.7075,-4.5627,-4.4196,-4.3169,-4.2381,-4.1831,-4.062,0.0,0.0,0.0,0.0,0.0,0.0,0.0,0.0,0.0,0.0,0.0,0.0,0.0,0.0,0.0,0.0,0.0,0.0,0.0,-3.7062,-3.6971,-3.6751,0.0,0.0,0.0,0.0,0.0,0.0,0.0,0.0,0.0,-4.1409,-4.1794,-4.2381,0.0,0.0,-4.4545,-4.4655,-4.4581,-4.471,-4.5297,-4.504,0.0,0.0,-4.4398,-4.3921,-4.3463,-4.427,-4.5003,-4.5242,-4.5333,-4.5297,-4.504,-4.5205,-4.5278,-4.493,-4.3793,-4.2747,-4.2417,-4.2399,-4.2436,-4.2344,-4.2803,-4.3169,-5.2478,-5.1149,-5.0837,-5.0557,-5.022,-5.0463,-4.9919,-4.8686,-4.8617,-4.8337,-4.7831,-4.7096,-4.7145,-4.7792,-4.7818,0.0,0.0,0.0,-4.9405,-5.0042,-5.0812,-5.1583,-5.2302,-5.2852,-5.287,-5.2375,-5.1752,-5.1092,-5.045,-4.9643,-4.8726,-4.7662,0.0,0.0,-4.614,-4.669,-4.7479,-4.8506,-4.9331,-4.9955,-5.0358,-5.0211,-4.9533,-4.8322,-4.7571,-4.6562,-4.5205,-4.4233,-4.3371,-4.2656,-4.139,-4.0345,0.0,0.0,0.0,0.0,0.0,0.0,0.0,0.0,0.0,0.0,0.0,-3.6494,0.0,0.0,0.0,0.0,-3.6567,-3.6714,-3.6714,-3.6842,0.0,0.0,0.0,0.0,0.0,0.0,0.0,-3.864,-3.974,-4.1042,-4.2656,-4.3224,-4.3811,-4.4691,-4.4728,-4.4783,-4.5113,0.0,-4.4911,-4.5572,-4.5462,-4.5352,-4.5498,-4.5132,-4.4801,-4.4801,-4.5187,-4.5663,-4.6122,-4.6048,-4.5902,-4.5883,-4.5883,-4.581,-4.5572,-4.493,-4.4251,-4.3719,-4.3958,-4.4215,-4.3995,-4.4343,-4.46,-5.4163,-5.317,-5.2516,-5.1504,-5.0327,-5.0652,-4.9813,-4.8255,-4.858,-4.8683,-4.8529,-4.745,-4.7975,-4.9692,-4.9845,0.0,-4.7662,-4.8737,-4.9744,-5.0598,-5.0776,-5.189,-5.3696,-5.3384,-5.3201,-5.3164,-5.2779,-5.243,-5.2045,-5.1293,-5.0505,-4.968,-4.8231,-4.7204,-4.669,-4.7406,-4.8194,-4.9019,-4.9826,-5.0413,-5.0743,-5.0376,-4.9588,-4.8377,-4.8267,-4.7516,-4.603,-4.5828,-4.4765,-4.2619,-4.2656,-4.1739,-3.9538,0.0,0.0,0.0,0.0,0.0,0.0,0.0,0.0,0.0,0.0,0.0,0.0,0.0,0.0,0.0,-3.5742,0.0,-3.576,-3.6164,0.0,0.0,0.0,-3.7393,-3.8034,-3.8199,-3.8695,-3.9932,0.0,0.0,-4.2949,-4.4325,-4.5407,-4.5828,-4.5242,-4.504,-4.5792,-4.526,-4.4911,-4.5407,-4.5407,-4.5535,-4.5883,-4.5847,-4.5792,-4.5847,-4.5902,-4.5902,-4.5938,-4.5847,-4.5847,-4.5828,-4.581,-4.5755,-4.5773,-4.5682,-4.5608,-4.482,-4.4746,-4.4765,-4.471,-4.4783,-4.482,-5.5378,-5.507,-5.4785,-5.3334,-5.108,-5.1423,-5.1166,-5.0532,-5.0601,-5.031,-4.9728,-4.8889,-4.8389,-4.8175,-4.8067,-4.8592,-4.9635,-5.0258,-5.1294,-5.272,-5.3218,-5.3549,-5.3751,-5.3952,-5.3879,-5.3604,-5.3494,-5.3402,-5.3292,-5.2797,-5.2137,-5.1385,-5.0982,-4.9808,-4.7937,-4.8359,-4.9019,-4.9826,-5.0615,-5.1073,-5.1147,-5.078,-4.9991,-4.8799,-4.8157,-4.7369,-4.6379,-4.5462,-4.4691,-4.4105,-4.2729,-4.1555,-4.0675,-4.0529,0.0,0.0,0.0,0.0,0.0,0.0,0.0,0.0,0.0,-3.7301,-3.7704,0.0,-3.7631,0.0,-3.6824,-3.6989,-3.7007,-3.7906,0.0,0.0,-3.875,-3.9428,-3.9006,-3.9777,-4.0565,-4.117,-4.1867,-4.2784,-4.4068,-4.4581,-4.5095,-4.5773,-4.5737,-4.5663,-4.5847,-4.5737,-4.5737,-4.6085,-4.6158,-4.6232,-4.6269,-4.6085,-4.5975,-4.6287,-4.6085,-4.5993,-4.6287,-4.5828,-4.5443,-4.5425,-4.5168,-4.5003,-4.4985,-4.5205,-4.537,-4.5223,-4.5388,-4.5498,-4.5223,-4.5388,-4.5498,-5.5961,-5.5755,-5.5543,-5.4371,-5.2587,-5.3129,-5.3023,-5.2539,-5.219,-5.1543,-5.0652,-5.0294,-4.9902,-4.9448,-4.9639,-5.0189,-5.0939,-5.1702,-5.2681,-5.3791,-5.4076,-5.4301,-5.4264,-5.4301,-5.4228,-5.4007,-5.4007,-5.3916,-5.3732,-5.3512,-5.298,-5.221,-5.2192,-5.144,-4.9973,-4.9955,-5.0303,-5.0927,-5.1367,-5.1587,-5.1568,-5.1183,-5.0486,-4.9496,-4.8671,-4.7607,-4.6269,-4.5407,-4.471,-4.4141,-4.3096,-4.2051,-4.12,-4.0979,-4.04,0.0,0.0,0.0,0.0,0.0,0.0,0.0,0.0,0.0,0.0,0.0,-3.7576,-3.7631,-3.7503,-3.7723,-3.8438,-3.9281,-3.952,-3.8896,-3.9813,-4.0363,-4.007,-4.0804,-4.1647,-4.2399,-4.2986,-4.3738,-4.4801,-4.5113,-4.537,-4.5828,-4.5883,-4.5883,-4.5883,-4.5883,-4.5975,-4.6177,-4.6213,-4.6213,-4.6213,-4.5883,-4.5755,-4.6085,-4.5883,-4.57,-4.5902,-4.5608,-4.5242,-4.5058,-4.482,-4.4746,-4.4911,-4.4948,-4.5113,-4.5462,-4.5443,-4.5407,-4.5535,-4.5737,-4.5773,-5.6183,-5.5841,-5.5746,-5.5162,-5.4387,-5.5182,-5.4796,-5.3757,-5.3166,-5.2399,-5.1624,-5.1931,-5.208,-5.214,-5.2427,-5.2504,-5.2183,-5.3179,-5.3845,-5.432,-5.4425,-5.4631,-5.4906,-5.4631,-5.4448,-5.4411,-5.4411,-5.4209,-5.3824,-5.3769,-5.3347,-5.2632,-5.2614,-5.243,-5.2082,-5.177,-5.1752,-5.2009,-5.2064,-5.2064,-5.2009,-5.1605,-5.0927,-5.001,-4.9184,-4.7809,-4.5828,-4.5352,-4.4636,-4.3573,-4.3481,-4.2821,-4.1372,-4.0969,-4.0749,0.0,-4.0446,0.0,0.0,0.0,0.0,0.0,0.0,0.0,0.0,-3.7081,-3.7319,-3.8823,-3.8218,-3.831,-3.9803,-4.0354,-4.04,-4.0152,-4.0473,-4.0914,-4.1262,-4.1666,-4.2344,-4.3444,-4.4178,-4.4765,-4.5223,-4.5608,-4.581,-4.5865,-4.5883,-4.5865,-4.581,-4.5847,-4.5902,-4.5883,-4.5883,-4.592,-4.581,-4.5535,-4.5407,-4.5645,-4.5443,-4.5223,-4.5242,-4.5168,-4.5003,-4.4691,-4.4581,-4.4673,-4.5021,-4.482,-4.4893,-4.5407,-4.5095,-4.4966,-4.5553,-4.5682,-4.5645,-5.6337,-5.6378,-5.698,-5.679,-5.5879,-5.6764,-5.5464,-5.2653,-5.2536,-5.2822,-5.3479,-5.366,-5.3884,-5.4039,-5.3262,-5.3478,-5.4251,-5.4044,-5.4487,-5.521,-5.5233,-5.5163,-5.4943,-5.5199,-5.5144,-5.4833,-5.4796,-5.4594,-5.4228,-5.3897,-5.3494,-5.3017,-5.2999,-5.2962,-5.2907,0.0,0.0,0.0,-5.2742,-5.2742,-5.2412,-5.2027,-5.0963,-4.9203,-4.8359,0.0,-4.5021,-4.4508,-4.405,-4.3536,-4.3481,0.0,0.0,0.0,0.0,0.0,0.0,0.0,0.0,0.0,0.0,0.0,-4.0877,-4.0107,-3.9447,-3.9325,-3.9557,-4.0473,-3.995,-3.9583,-3.9895,-4.051,-4.0914,-4.0961,-4.1776,-4.2454,-4.2615,-4.2894,-4.3371,-4.3884,-4.4123,-4.4471,-4.5187,-4.537,-4.5535,-4.5792,-4.5883,-4.5755,-4.5443,-4.5663,-4.5883,-4.5883,-4.5847,-4.5737,-4.5462,-4.5333,-4.515,-4.4985,-4.4856,-4.4801,-4.4783,-4.4526,-4.4325,-4.4196,-4.4178,-4.4105,-4.394,-4.427,-4.46,-4.4471,-4.4563,-4.482,-4.5297,-4.5132,-4.4985,-5.6641,0.0,-5.7016,-5.6895,0.0,-5.6618,-5.5596,-5.391,-5.3927,-5.4175,-5.4585,-5.4721,-5.4746,-5.458,-5.4201,-5.4134,-5.4473,-5.4491,-5.4604,-5.4961,-5.5144,-5.5126,-5.4924,-5.5144,-5.5236,-5.5236,-5.5236,-5.5034,-5.4613,-5.4228,-5.3824,-5.3421,-5.3219,-5.3219,-5.3421,-5.3622,-5.3531,-5.3127,-5.3127,-5.3017,-5.2815,-5.243,-5.1458,-4.9863,0.0,0.0,0.0,0.0,0.0,0.0,0.0,0.0,0.0,0.0,0.0,-4.2913,-4.3059,-4.3169,-4.3169,-4.3169,-4.3096,-4.2894,-4.2674,-4.1776,-3.9978,-4.0033,-4.04,-4.1071,-4.0859,-4.0914,-4.1402,-4.2155,-4.2564,-4.2582,-4.3279,-4.3756,-4.3774,-4.394,-4.4233,-4.4581,-4.4508,-4.4618,-4.5223,-4.5113,-4.5077,-4.526,-4.5462,-4.5462,-4.5113,-4.5333,-4.559,-4.559,-4.5407,-4.5297,-4.526,-4.4911,-4.4746,-4.4636,-4.4508,-4.4398,-4.438,-4.4215,-4.4031,-4.3848,-4.3793,-4.3756,-4.3829,-4.3976,-4.4141,-4.4288,-4.4215,-4.4251,-4.4618,-4.4673,-4.4728,-5.7019,-5.7577,-5.6946,-5.7018,-5.7227,-5.6439,-5.6042,-5.5899,0.0,0.0,0.0,-5.5399,-5.511,-5.4809,-5.4882,-5.4586,-5.4247,-5.4699,-5.4741,-5.4448,-5.4778,-5.4888,-5.4814,-5.4814,-5.4998,-5.5328,-5.5401,-5.5218,-5.4814,-5.4484,-5.4136,-5.3732,-5.3384,-5.3476,-5.3916,-5.3897,-5.3879,-5.3934,-5.3402,-5.3109,-5.3109,-5.2724,-5.1954,-5.0743,-4.9624,-4.7919,-4.5608,-4.4875,-4.4105,-4.3243,-4.3591,-4.3591,-4.3151,-4.3774,-4.405,-4.3756,-4.4086,-4.4325,-4.4398,-4.4343,-4.4123,-4.3719,-4.4068,-4.3243,-4.0749,-4.0969,-4.1354,-4.1684,-4.2014,-4.2491,-4.3133,-4.3774,-4.4178,-4.4196,-4.449,-4.4655,-4.4655,-4.4673,-4.4765,-4.5077,-4.4856,-4.482,-4.5223,-4.5021,-4.4783,-4.4838,-4.515,-4.5113,-4.4746,-4.493,-4.5187,-4.5168,-4.4948,-4.482,-4.4893,-4.4581,-4.4233,-4.4361,-4.416,-4.3995,-4.3976,-4.3976,-4.3848,-4.3591,-4.3536,-4.3701,-4.3903,-4.3811,-4.3793,-4.4361,-4.3958,-4.3591,-4.3903,-4.4233,-4.4453,-5.8148,-5.8255,-5.8772,-5.8522,-5.7794,-5.8413,-5.8279,-5.7585,-5.6303,-5.5906,-5.6203,-5.6117,-5.5818,-5.5416,-5.4995,-5.4812,-5.4812,-5.4924,-5.4888,-5.4833,-5.4888,-5.4741,-5.4411,-5.4411,-5.4448,-5.4521,-5.4851,-5.4796,-5.4448,-5.4374,-5.4136,-5.3787,-5.3677,-5.4007,-5.4668,-5.4411,-5.4411,-5.4723,-5.3659,-5.3109,-5.3109,-5.2724,-5.1954,-5.0761,-4.9881,-4.8451,-4.6415,-4.6195,-4.5608,-4.4508,-4.482,-4.471,-4.3995,-4.4361,-4.4563,-4.4526,-4.4893,-4.5278,-4.5608,-4.5315,-4.4948,-4.4581,-4.4893,-4.4655,-4.3628,-4.3848,-4.4105,-4.416,-4.4123,-4.4288,-4.4416,-4.4508,-4.4581,-4.46,-4.4636,-4.4673,-4.471,-4.471,-4.4746,-4.482,-4.471,-4.482,-4.5168,-4.5168,-4.5077,-4.5168,-4.5058,-4.4985,-4.4453,-4.4508,-4.4728,-4.4765,-4.4728,-4.4563,-4.438,-4.4196,-4.3976,-4.3701,-4.3646,-4.3628,-4.3628,-4.3628,-4.3591,-4.3499,-4.3719,-4.3829,-4.3683,-4.3829,-4.3848,-4.3829,-4.3573,-4.3536,-4.3628,-4.3683,-4.3811,-5.8648,-5.8986,-5.9037,-5.8837,-5.8544,-5.8534,-5.8317,-5.7895,-5.6854,-5.65,-5.6609,-5.6294,-5.5933,-5.5511,-5.4888,-5.4723,-5.4906,-5.4484,-5.4393,-5.4594,-5.4594,-5.4613,-5.4649,-5.4649,-5.4759,-5.4998,-5.5163,-5.5163,-5.4998,-5.4778,-5.4448,-5.4081,-5.4062,-5.4246,-5.4576,-5.4631,-5.4649,-5.4594,-5.4044,-5.3677,-5.3457,-5.3274,-5.2614,-5.1422,-5.0596,-4.9423,-4.7864,-4.7369,-4.6782,-4.603,-4.5957,-4.5755,-4.5425,-4.5553,-4.5645,-4.5663,-4.6048,-4.636,-4.6544,-4.6177,-4.5865,-4.5663,-4.5627,-4.548,-4.5095,-4.5021,-4.4911,-4.4691,-4.4673,-4.4673,-4.4673,-4.4875,-4.5021,-4.5021,-4.5187,-4.5333,-4.5333,-4.5333,-4.5242,-4.504,-4.482,-4.4746,-4.493,-4.46,-4.4435,-4.4563,-4.449,-4.4251,-4.4086,-4.4031,-4.4123,-4.4288,-4.4178,-4.4086,-4.405,-4.3884,-4.3701,-4.3518,-4.3481,-4.3481,-4.3481,-4.3481,-4.3481,-4.3499,-4.3664,-4.3683,-4.3499,-4.3628,-4.3646,-4.3573,-4.3481,-4.3481,-4.3481,-4.3481,-4.3554,-5.9147,-5.9608,-5.9301,-5.9129,-5.9124,-5.8519,-5.8097,-5.7767,-5.7052,-5.6703,-5.6575,-5.6281,-5.5878,-5.5365,-5.4741,-5.4594,-5.4668,-5.4062,-5.3971,-5.4301,-5.4338,-5.4484,-5.4759,-5.4778,-5.4961,-5.5273,-5.5365,-5.542,-5.5365,-5.5071,-5.4759,-5.4503,-5.4466,-5.4503,-5.4613,-5.4906,-5.4906,-5.4631,-5.4521,-5.4228,-5.3751,-5.3659,-5.3072,-5.199,-5.133,-5.0431,-4.9258,-4.8579,-4.8011,-4.7534,-4.7112,-4.6892,-4.6874,-4.6892,-4.6892,-4.691,-4.7277,-4.7387,-4.713,-4.6892,-4.6672,-4.6489,-4.6195,-4.6012,-4.5993,-4.5663,-4.5315,-4.5003,-4.4985,-4.4966,-4.5021,-4.5242,-4.5443,-4.5443,-4.57,-4.5847,-4.5883,-4.5883,-4.5737,-4.5352,-4.493,-4.4673,-4.4545,-4.4068,-4.3829,-4.4031,-4.3738,-4.3646,-4.3848,-4.3664,-4.3664,-4.3774,-4.3683,-4.3646,-4.3884,-4.3719,-4.3518,-4.3481,-4.3481,-4.3481,-4.3481,-4.3481,-4.3481,-4.3499,-4.3499,-4.3518,-4.3499,-4.3499,-4.3499,-4.3481,-4.3481,-4.3481,-4.3481,-4.3481,-4.3554,-6.0265,-6.0265,-6.021,-5.9894,-5.9197,-5.9051,-5.839,-5.7455,-5.6942,-5.6538,-5.6245,-5.6171,-5.5731,-5.5034,-5.4888,-5.4704,-5.4429,-5.3934,-5.3971,-5.4338,-5.4338,-5.4356,-5.4448,-5.4429,-5.4411,-5.4539,-5.4869,-5.5053,-5.5053,-5.4961,-5.4888,-5.4869,-5.4869,-5.5034,-5.5383,-5.5456,-5.5456,-5.542,-5.5071,-5.4503,-5.3769,-5.3366,-5.2779,-5.1972,-5.1862,-5.1257,-5.0101,-4.9955,-4.9551,-4.8799,-4.8341,-4.8121,-4.8121,-4.8121,-4.8102,-4.8121,-4.8487,-4.8286,-4.7277,-4.7406,-4.724,-4.658,-4.6452,-4.6397,-4.6379,-4.6048,-4.5828,-4.5755,-4.5755,-4.5718,-4.5773,-4.5792,-4.5792,-4.5792,-4.5847,-4.5883,-4.5883,-4.5883,-4.5737,-4.5333,-4.4948,-4.4673,-4.4636,-4.4251,-4.4031,-4.3995,-4.3719,-4.3518,-4.3591,-4.3554,-4.3499,-4.3554,-4.3499,-4.3518,-4.3573,-4.3536,-4.3481,-4.3481,-4.3481,-4.3481,-4.3481,-4.3481,-4.3481,-4.3481,-4.3481,-4.3481,-4.3481,-4.3481,-4.3481,-4.3481,-4.3481,-4.3481,-4.3481,-4.3481,-4.3591,-6.0389,-6.0389,-6.0389,-5.9931,-5.9161,-5.8427,-5.784,-5.7345,-5.6667,-5.63,-5.6171,-5.6153,-5.5841,-5.5291,-5.5034,-5.4943,-5.4998,-5.4374,-5.4448,-5.4979,-5.4796,-5.4814,-5.5034,-5.5053,-5.5053,-5.5053,-5.5218,-5.5291,-5.5254,-5.5034,-5.5034,-5.5236,-5.5053,-5.5126,-5.5511,-5.5548,-5.5438,-5.5163,-5.4778,-5.4301,-5.3806,-5.3567,-5.3219,-5.265,-5.2192,-5.1733,-5.122,-5.0743,-5.0321,-4.9991,-4.9588,-4.9258,-4.9001,-4.8781,-4.8653,-4.8671,-4.8818,-4.8708,-4.8212,-4.7882,-4.7442,-4.6892,-4.6617,-4.6397,-4.6158,-4.5975,-4.5975,-4.6177,-4.603,-4.5883,-4.5902,-4.5902,-4.5883,-4.5883,-4.5883,-4.5883,-4.5883,-4.5883,-4.5737,-4.5352,-4.515,-4.493,-4.4673,-4.4325,-4.3995,-4.3793,-4.3573,-4.3499,-4.3481,-4.3481,-4.3481,-4.3481,-4.3481,-4.3481,-4.3481,-4.3481,-4.3481,-4.3481,-4.3481,-4.3481,-4.3481,-4.3481,-4.3481,-4.3481,-4.3481,-4.3481,-4.3481,-4.3481,-4.3481,-4.3481,-4.3481,-4.3481,-4.3481,-4.3481,-4.3591,-6.0884,-6.1341,-6.1352,-6.0407,-5.8776,-5.7914,-5.7345,-5.7114,-5.7066,-5.7094,-5.7,-5.7647,-5.7382,-5.6402,-5.5557,-5.5218,-5.5254,-5.4539,-5.4594,-5.5273,-5.5487,-5.6011,-5.6496,-5.7193,-5.708,-5.6533,-5.6533,-5.608,-5.5625,-5.5254,-5.5254,-5.5456,-5.5236,-5.5236,-5.5511,-5.5548,-5.5401,-5.5089,-5.4594,-5.4191,-5.3916,-5.3696,-5.3366,-5.2944,-5.2412,-5.2045,-5.1917,-5.1257,-5.089,-5.0872,-5.0395,-5.0046,-4.9845,-4.9459,-4.9258,-4.9239,-4.9129,-4.9019,-4.8909,-4.8359,-4.7846,-4.7442,-4.6965,-4.6525,-4.625,-4.603,-4.6085,-4.6397,-4.6213,-4.6067,-4.6048,-4.6048,-4.6012,-4.592,-4.5883,-4.5883,-4.5883,-4.5883,-4.5773,-4.5517,-4.5352,-4.5095,-4.4581,-4.4141,-4.3793,-4.3573,-4.3499,-4.3481,-4.3481,-4.3481,-4.3481,-4.3481,-4.3481,-4.3481,-4.3481,-4.3481,-4.3481,-4.3481,-4.3481,-4.3481,-4.3481,-4.3481,-4.3481,-4.3481,-4.3481,-4.3481,-4.3481,-4.3481,-4.3481,-4.3481,-4.3481,-4.3481,-4.3481,-4.3481,-4.3481,-6.1833,-6.3898,-6.361,-6.144,-5.8124,-5.8151,-5.7488,-5.6954,-5.8594,-5.9248,-5.9252,-6.1059,-6.0929,-5.8708,-5.6798,-5.5309,-5.4906,-5.445,-5.4635,-5.5375,-5.6985,-5.8151,-5.9023,-6.1019,-6.0909,-5.899,-5.8839,-5.785,-5.5871,-5.5739,-5.5416,-5.5643,-5.5834,-5.5739,-5.5871,-5.5985,-5.5643,-5.58,-5.5246,-5.4412,-5.4284,-5.364,-5.3089,-5.265,-5.2504,-5.232,-5.1972,-5.1513,-5.1293,-5.1293,-5.0596,-5.0303,-5.056,-5.0266,-5.0028,-5.001,-4.9698,-4.9313,-4.9019,-4.8854,-4.8616,-4.8176,-4.7479,-4.7057,-4.691,-4.6379,-4.6195,-4.647,-4.6507,-4.6452,-4.6452,-4.6397,-4.625,-4.5938,-4.5883,-4.5883,-4.5883,-4.5883,-4.5883,-4.5755,-4.5425,-4.4911,-4.4215,-4.3774,-4.3591,-4.3499,-4.3481,-4.3481,-4.3481,-4.3481,-4.3481,-4.3481,-4.3481,-4.3481,-4.3481,-4.3481,-4.3481,-4.3481,-4.3481,-4.3481,-4.3481,-4.3481,-4.3481,-4.3481,-4.3481,-4.3481,-4.3481,-4.3481,-4.3481,-4.3481,-4.3481,-4.3481,-4.3481,-4.3481,-4.3481,-6.5569,-6.6083,-6.5353,-6.4022,-6.2606,-6.1935,-6.1395,-6.0792,-6.1272,-6.1381,-6.1349,-6.2207,-6.1988,-6.1239,-6.0356,-5.8202,-5.5726,-5.8053,-5.8736,-5.7917,-5.9847,-6.1167,-6.1785,-6.2351,-6.2392,-6.1805,-6.1361,-6.0798,-6.0135,-6.0024,-6.0024,-5.9913,-6.0024,-6.0024,-6.0024,-6.0024,-5.9905,-5.9587,-5.9031,-5.7963,-5.6295,-5.5612,-5.4515,-5.3016,-5.265,-5.2467,-5.232,-5.1935,-5.1715,-5.1697,-5.1165,-5.0835,-5.0688,-5.0358,-5.0138,-5.012,-4.9991,-4.9845,-4.9661,-4.9203,-4.8726,-4.8304,-4.7791,-4.7369,-4.713,-4.6855,-4.6837,-4.7112,-4.7002,-4.6892,-4.6819,-4.6635,-4.6324,-4.5975,-4.5883,-4.5883,-4.5883,-4.5883,-4.581,-4.548,-4.4966,-4.438,-4.4141,-4.3738,-4.3499,-4.3481,-4.3481,-4.3481,-4.3481,-4.3481,-4.3481,-4.3481,-4.3481,-4.3481,-4.3481,-4.3481,-4.3481,-4.3481,-4.3481,-4.3481,-4.3481,-4.3481,-4.3481,-4.3481,-4.3481,-4.3659,-4.3748,-4.357,-4.357,-4.3748,-4.3748,-4.3481,-4.3481,-4.3481,-4.3481,-6.8124,-6.6915,-6.6859,-6.5856,-6.443,-6.3963,-6.3425,-6.31,-6.3423,-6.3622,-6.3731,-6.4401,-6.4379,-6.3839,-6.4401,-6.2207,-5.8372,-6.0967,-6.1536,-6.0447,-6.239,-6.3643,-6.4198,-6.455,-6.455,-6.4001,-6.3007,-6.2534,-6.2534,-6.2534,-6.2534,-6.2425,-6.2534,-6.2534,-6.2534,-6.2534,-6.2369,-6.2038,-6.1624,-6.0439,-5.8619,-5.8073,-5.7029,-5.5395,-5.4307,-5.3442,-5.2705,-5.2339,-5.2137,-5.2082,-5.1733,-5.133,-5.0927,-5.0541,-5.0321,-5.0321,-5.0321,-5.0321,-5.023,-4.9569,-4.8983,-4.8671,-4.8066,-4.7552,-4.7314,-4.7185,-4.7314,-4.7516,-4.7479,-4.7295,-4.724,-4.7039,-4.6617,-4.6067,-4.5883,-4.5883,-4.5883,-4.5883,-4.57,-4.5315,-4.4636,-4.4178,-4.4031,-4.3719,-4.3536,-4.3481,-4.3481,-4.3481,-4.3481,-4.3481,-4.3481,-4.3481,-4.3481,-4.3481,-4.3481,-4.3481,-4.3481,-4.357,-4.3481,-4.3481,-4.3481,-4.3481,-4.3481,-4.3481,-4.3659,-4.3837,-4.3926,-4.3748,-4.3926,-4.4174,-4.3837,-4.3481,-4.3481,-4.3481,-4.3481,-6.9136,-6.6859,-6.8103,-6.7067,-6.4323,-6.4067,-6.323,-6.351,-6.5176,-6.6033,-6.6246,-6.8198,-6.767,-6.68,-6.7949,-6.6716,-6.3318,-6.2958,-6.2871,-6.2773,-6.4702,-6.5749,-6.6314,-6.7949,-6.7776,-6.6098,-6.3881,-6.2903,-6.3251,-6.3381,-6.3272,-6.2903,-6.3209,-6.3405,-6.2753,-6.3188,-6.2971,-6.3042,-6.2773,-6.2033,-6.1296,-6.0925,-6.0257,-5.9382,-5.7594,-5.5678,-5.3597,-5.294,-5.2522,-5.2485,-5.2155,-5.1752,-5.1293,-5.0927,-5.0706,-5.067,-5.0688,-5.0706,-5.0615,-4.9955,-4.9496,-4.9313,-4.8432,-4.7981,-4.8219,-4.7887,-4.7813,-4.8225,-4.8169,-4.7937,-4.7821,-4.7692,-4.7154,-4.614,-4.5957,-4.5957,-4.5902,-4.5865,-4.5718,-4.5205,-4.449,-4.4105,-4.3995,-4.3738,-4.3499,-4.3481,-4.3481,-4.3481,-4.3481,-4.3481,-4.3481,-4.3481,-4.3481,-4.3481,-4.3481,-4.3481,-4.357,-4.357,-4.3481,-4.3481,-4.3481,-4.3481,-4.3481,-4.357,-4.4244,-4.451,-4.5021,-4.4933,-4.4845,-4.4933,-4.4244,-4.357,-4.3481,-4.3481,-4.3481,-7.2504,-7.1562,-7.1446,-7.0456,-6.8775,-6.86,-6.8132,-6.7375,-6.822,-6.8431,-6.8536,-6.9187,-6.9083,-6.8731,-6.9553,-6.9185,-6.7887,-6.8021,-6.727,-6.6104,-6.7709,-6.8973,-6.9351,-6.9507,-6.9083,-6.8498,-6.8157,-6.7865,-6.7758,-6.7758,-6.7865,-6.7821,-6.7403,-6.7331,-6.7247,-6.7331,-6.7331,-6.7264,-6.6863,-6.611,-6.4796,-6.3869,-6.283,-6.1472,-6.0365,-5.9468,-5.8714,-5.5065,-5.3034,-5.3016,-5.2559,-5.2027,-5.144,-5.1202,-5.1,-5.0761,-5.0725,-5.0725,-5.067,-5.0248,-4.9918,-4.9808,-4.9276,-4.9766,-5.0927,-5.1015,-5.1017,-5.1192,-5.0978,-5.0415,-4.9047,-4.8209,-4.7529,-4.6437,-4.6287,-4.614,-4.5865,-4.5407,-4.4911,-4.4508,-4.3995,-4.3701,-4.3664,-4.3518,-4.3499,-4.3659,-4.357,-4.357,-4.357,-4.3659,-4.3481,-4.3481,-4.3481,-4.3659,-4.3908,-4.4263,-4.451,-4.4599,-4.451,-4.4086,-4.3997,-4.3908,-4.3819,-4.4086,-4.4757,-4.553,-4.6123,-4.5949,-4.5774,-4.5354,-4.4687,-4.4086,-4.3659,-4.3481,-4.3481,-7.3771,-7.3174,-7.2371,-7.143,-7.0534,-7.0488,-7.0144,-6.957,-6.9524,-6.9524,-6.9524,-6.9524,-6.9524,-6.9639,-7.0075,-7.0304,-7.0396,-7.1016,-7.0381,-6.8968,-6.9775,-7.0695,-7.0718,-6.9937,-6.9639,-6.9845,-7.0144,-7.0419,-7.0603,-7.0815,-7.0921,-7.0828,-7.06,-7.0322,-7.0403,-7.0241,-7.0149,-7.0102,-6.9744,-6.8961,-6.7781,-6.7041,-6.6077,-6.4775,-6.3499,-6.2936,-6.2605,-5.852,-5.6232,-5.6173,-5.5823,-5.5317,-5.4831,-5.4051,-5.3235,-5.2959,-5.2278,-5.1757,-5.1552,-5.1303,-5.0884,-5.0801,-5.1119,-5.1739,-5.3153,-5.376,-5.428,-5.3241,-5.284,-5.1864,-4.9894,-4.9068,-4.8307,-4.7378,-4.6777,-4.6366,-4.5904,-4.5353,-4.4929,-4.4579,-4.4136,-4.3841,-4.3767,-4.3589,-4.3837,-4.4263,-4.451,-4.451,-4.451,-4.4599,-4.4263,-4.3908,-4.3481,-4.3819,-4.451,-4.4933,-4.5461,-4.5618,-4.5793,-4.5266,-4.4933,-4.4933,-4.4933,-4.5442,-4.6036,-4.7839,-4.8507,-4.6801,-4.6036,-4.553,-4.5197,-4.4086,-4.3481,-4.3481,-4.3481,-7.3243,-7.1866,-7.1338,-7.0626,-6.9753,-6.9707,-6.9707,-6.9593,-6.9593,-6.9662,-6.9685,-6.9753,-6.9707,-6.9776,-7.0327,-7.0557,-7.058,-7.1407,-7.182,-7.1444,-7.1384,-7.1039,-7.0488,-7.0029,-7.0006,-7.0327,-7.0511,-7.0787,-7.1437,-7.1756,-7.2006,-7.2112,-7.2021,-7.1983,-7.1737,-7.1489,-7.1174,-7.1,-7.1057,-7.0485,-6.9688,-6.993,-6.9789,-6.8744,-6.6879,-6.583,-6.5458,-6.3237,-6.1541,-6.1211,-6.0192,-5.9816,-6.0039,-5.8356,-5.6918,-5.6817,-5.5091,-5.4271,-5.3528,-5.3596,-5.3269,-5.3125,-5.4005,-5.4653,-5.5344,-5.6597,-5.6687,-5.4986,-5.4512,-5.3387,-5.1406,-5.0435,-4.9857,-4.8613,-4.7384,-4.6615,-4.6073,-4.5797,-4.5989,-4.5634,-4.4947,-4.4636,-4.499,-4.4529,-4.5021,-4.5861,-4.6385,-4.6385,-4.6211,-4.6036,-4.5354,-4.4933,-4.4687,-4.5197,-4.6123,-4.6734,-4.7321,-4.8507,-4.8335,-4.756,-4.6714,-4.6627,-4.6627,-4.7128,-4.7991,-4.9701,-4.9892,-4.8077,-4.7061,-4.6994,-4.5968,-4.4263,-4.357,-4.3659,-4.3837,-7.3634,-7.283,-7.1981,-7.1016,-7.0167,-7.0098,-7.0098,-7.0121,-7.0098,-7.0304,-7.058,-7.0649,-7.0603,-7.0718,-7.1154,-7.1407,-7.1521,-7.2049,-7.2394,-7.2371,-7.2256,-7.1682,-7.1016,-7.0741,-7.0824,-7.1054,-7.1629,-7.2266,-7.2813,-7.2959,-7.3197,-7.3649,-7.297,-7.244,-7.2006,-7.1945,-7.1559,-7.1254,-7.1207,-7.1295,-7.1224,-7.0709,-7.0721,-7.1118,-6.9856,-6.9079,-6.9037,-6.7719,-6.479,-6.1072,-6.068,-6.0506,-6.0597,-6.0095,-5.9768,-5.9355,-5.8864,-5.8415,-5.827,-5.8024,-5.8001,-5.7978,-5.7859,-5.8556,-5.9754,-5.9959,-5.9595,-5.8732,-5.8565,-5.7536,-5.5607,-5.3752,-5.1783,-4.9144,-4.8286,-4.7381,-4.6985,-4.767,-4.8274,-4.7662,-4.8224,-4.8311,-4.7961,-4.7707,-4.7601,-4.8098,-4.8335,-4.8356,-4.8249,-4.756,-4.6975,-4.7148,-4.7061,-4.7408,-4.7905,-4.8421,-4.9531,-5.1303,-5.1387,-5.0631,-4.968,-4.8999,-4.9085,-4.9319,-5.0441,-5.1993,-5.0716,-4.9105,-4.8784,-4.8118,-4.6318,-4.4529,-4.4193,-4.4193,-4.4529,-7.3542,-7.26,-7.182,-7.1039,-7.0373,-7.0327,-7.0327,-7.0373,-7.0557,-7.0787,-7.1039,-7.1085,-7.1085,-7.1131,-7.1567,-7.1774,-7.1866,-7.2348,-7.2692,-7.3008,-7.3095,-7.2759,-7.202,-7.2025,-7.2132,-7.2201,-7.2944,-7.3625,-7.4089,-7.4188,-7.4512,-7.4703,-7.4219,-7.3565,-7.3066,-7.2781,-7.2449,-7.1997,-7.1902,-7.1934,-7.1953,-7.1643,-7.1653,-7.2003,-7.1402,-7.1017,-7.044,-6.9262,-6.7022,-6.4671,-6.3887,-6.3708,-6.3708,-6.309,-6.2822,-6.2712,-6.2052,-6.128,-6.1187,-6.1144,-6.1036,-6.1064,-6.116,-6.2036,-6.2709,-6.2934,-6.3014,-6.1163,-6.0914,-5.961,-5.7731,-5.5972,-5.4171,-5.2457,-5.1168,-5.0082,-4.8568,-4.9923,-5.0647,-5.0631,-5.0752,-5.1081,-5.0549,-5.0145,-5.021,-5.0527,-5.0716,-5.0716,-5.0631,-4.9531,-4.887,-4.9232,-4.9276,-4.9425,-5.0188,-5.0884,-5.1638,-5.3341,-5.3856,-5.3258,-5.2221,-5.1365,-5.1365,-5.1699,-5.2906,-5.3153,-5.1554,-5.0146,-4.9041,-4.7946,-4.6337,-4.5725,-4.5637,-4.59,-4.6056,-7.322,-7.1843,-7.1315,-7.081,-7.0442,-7.035,-7.0419,-7.058,-7.097,-7.12,-7.1315,-7.1269,-7.1384,-7.1246,-7.1905,-7.202,-7.2112,-7.2766,-7.3089,-7.3584,-7.3918,-7.3896,-7.3328,-7.3472,-7.3733,-7.385,-7.431,-7.4851,-7.5374,-7.5499,-7.5715,-7.5941,-7.5653,-7.5073,-7.444,-7.3992,-7.3344,-7.2959,-7.2785,-7.2546,-7.2359,-7.2383,-7.2383,-7.2196,-7.1859,-7.1354,-7.0464,-6.931,-6.8253,-6.8781,-6.8348,-6.7774,-6.806,-6.6676,-6.6291,-6.6195,-6.4996,-6.3957,-6.3489,-6.3701,-6.3346,-6.3433,-6.458,-6.5183,-6.5035,-6.5448,-6.4971,-6.2782,-6.1833,-6.057,-5.8714,-5.749,-5.6749,-5.5813,-5.5495,-5.4298,-5.2284,-5.2563,-5.3539,-5.3474,-5.3169,-5.2927,-5.2407,-5.2019,-5.2187,-5.3343,-5.3504,-5.3504,-5.3187,-5.2239,-5.1754,-5.1583,-5.158,-5.1365,-5.2304,-5.3341,-5.4184,-5.5264,-5.5611,-5.5287,-5.4347,-5.367,-5.3505,-5.3915,-5.4592,-5.402,-5.2409,-5.0989,-4.9892,-4.8719,-4.7601,-4.7687,-4.8012,-4.8421,-4.8743,-7.345,-7.2348,-7.143,-7.1016,-7.0856,-7.0488,-7.0764,-7.143,-7.1567,-7.1951,-7.2164,-7.2233,-7.2319,-7.2319,-7.2844,-7.3253,-7.3593,-7.3873,-7.4057,-7.4151,-7.5138,-7.5401,-7.5165,-7.5057,-7.5053,-7.5359,-7.5838,-7.6364,-7.6827,-7.688,-7.7241,-7.7582,-7.6754,-7.6164,-7.5563,-7.4625,-7.3999,-7.3567,-7.3422,-7.3134,-7.2749,-7.2749,-7.2797,-7.2581,-7.1907,-7.1378,-7.0969,-6.9983,-6.9238,-6.8757,-6.8131,-6.7915,-6.8157,-6.8204,-6.8222,-6.8528,-6.8474,-6.7986,-6.8112,-6.7723,-6.8041,-6.7634,-6.7476,-6.7797,-6.7249,-6.6674,-6.6118,-6.4844,-6.4034,-6.2562,-6.0845,-6.0341,-5.9383,-5.8293,-5.8412,-5.8593,-5.7334,-5.6655,-5.6328,-5.62,-5.6636,-5.7117,-5.6545,-5.5869,-5.5966,-5.6335,-5.6289,-5.6312,-5.5689,-5.4773,-5.4425,-5.404,-5.3611,-5.3476,-5.4207,-5.5033,-5.5636,-5.6307,-5.6628,-5.6869,-5.5913,-5.5506,-5.5264,-5.553,-5.6037,-5.494,-5.3258,-5.2658,-5.166,-5.0315,-4.9297,-4.9871,-5.0357,-5.0946,-5.1449,-7.3519,-7.2532,-7.1728,-7.1269,-7.1192,-7.1336,-7.1604,-7.195,-7.2735,-7.3168,-7.34,-7.3446,-7.3446,-7.3446,-7.3663,-7.4136,-7.4627,-7.5126,-7.5359,-7.5577,-7.6319,-7.6775,-7.6992,-7.6751,-7.6737,-7.6856,-7.7213,-7.7584,-7.778,-7.7747,-7.7712,-7.828,-7.7342,-7.6477,-7.5923,-7.4985,-7.4168,-7.3639,-7.3374,-7.3206,-7.3206,-7.3206,-7.3206,-7.2917,-7.2027,-7.1258,-7.1162,-6.9983,-6.9406,-6.9069,-6.8516,-6.8155,-6.842,-6.8757,-6.9166,-6.9574,-6.9695,-6.9695,-6.9695,-6.9695,-6.9573,-6.9695,-6.9406,-6.9021,-6.8492,-6.7699,-6.6905,-6.6208,-6.5491,-6.4602,-6.3494,-6.3355,-6.2201,-6.1023,-6.1132,-6.1338,-6.0423,-5.9742,-5.9288,-5.8974,-5.9304,-5.9081,-5.8807,-5.8427,-5.8011,-5.768,-5.7562,-5.7562,-5.7596,-5.6843,-5.6632,-5.628,-5.5801,-5.5695,-5.6179,-5.6652,-5.681,-5.7156,-5.7261,-5.7421,-5.6995,-5.6861,-5.6782,-5.6861,-5.6622,-5.5611,-5.4184,-5.3752,-5.3093,-5.166,-5.1157,-5.1971,-5.2801,-5.3483,-5.4056,-7.3519,-7.2532,-7.2135,-7.1698,-7.1598,-7.2387,-7.2577,-7.2591,-7.3696,-7.4226,-7.438,-7.4357,-7.4141,-7.4404,-7.4417,-7.4808,-7.5529,-7.6356,-7.6803,-7.6775,-7.7289,-7.7723,-7.8123,-7.8195,-7.8147,-7.7919,-7.8219,-7.8545,-7.8425,-7.8112,-7.8304,-7.8304,-7.7583,-7.6958,-7.6212,-7.525,-7.448,-7.3903,-7.3518,-7.3326,-7.3591,-7.3663,-7.3735,-7.3302,-7.21,-7.1306,-7.1017,-7.0128,-6.9406,-6.9767,-6.9454,-6.931,-6.9238,-6.9069,-6.919,-6.9695,-6.9695,-6.9695,-6.9695,-6.9695,-6.9695,-6.9695,-6.9671,-6.9478,-6.8997,-6.8492,-6.7843,-6.7218,-6.6664,-6.6328,-6.5991,-6.5499,-6.4967,-6.399,-6.3624,-6.3129,-6.2432,-6.2143,-6.1706,-6.101,-6.0661,-6.0411,-5.9991,-5.9571,-5.9247,-5.8993,-5.8897,-5.8824,-5.88,-5.8598,-5.8242,-5.785,-5.718,-5.6496,-5.6845,-5.7293,-5.7589,-5.7734,-5.7838,-5.7838,-5.7814,-5.755,-5.7309,-5.7069,-5.6598,-5.5691,-5.5183,-5.4835,-5.3997,-5.2846,-5.3176,-5.4242,-5.516,-5.6094,-5.6269,-7.3519,-7.264,-7.2566,-7.2735,-7.3075,-7.3224,-7.3592,-7.3921,-7.4192,-7.4545,-7.4935,-7.4521,-7.4723,-7.4949,-7.4989,-7.5584,-7.6562,-7.746,-7.7832,-7.763,-7.7989,-7.8315,-7.8521,-7.8785,-7.8881,-7.8954,-7.8978,-7.8954,-7.8978,-7.8954,-7.8809,-7.8857,-7.8352,-7.7751,-7.7102,-7.626,-7.5178,-7.448,-7.412,-7.3951,-7.3903,-7.4048,-7.4072,-7.3615,-7.2196,-7.145,-7.121,-7.0657,-7.0272,-7.0368,-7.0681,-7.0801,-7.0609,-7.0031,-6.9719,-6.9719,-6.9719,-6.9695,-6.9695,-6.9695,-6.9695,-6.9695,-6.9695,-6.9695,-6.943,-6.9117,-6.8636,-6.8324,-6.765,-6.7121,-6.7025,-6.6761,-6.6352,-6.5775,-6.5101,-6.4404,-6.3899,-6.3538,-6.3129,-6.2215,-6.1855,-6.1446,-6.0893,-6.0508,-6.0291,-6.0003,-5.981,-5.9762,-5.9738,-5.9474,-5.9078,-5.8694,-5.8262,-5.7533,-5.7037,-5.7493,-5.7935,-5.8127,-5.8175,-5.8175,-5.8079,-5.7862,-5.7598,-5.7333,-5.6853,-5.6197,-5.5852,-5.5772,-5.5345,-5.4347,-5.5264,-5.6462,-5.6685,-5.6908,-5.7156,-7.4353,-7.3555,-7.3491,-7.3458,-7.3542,-7.4124,-7.4314,-7.4491,-7.5203,-7.5548,-7.5643,-7.5786,-7.5905,-7.606,-7.6347,-7.691,-7.7655,-7.8064,-7.8376,-7.8425,-7.8665,-7.8785,-7.8761,-7.9074,-7.9122,-7.9146,-7.9146,-7.917,-7.917,-7.9146,-7.917,-7.9026,-7.8641,-7.8232,-7.7727,-7.6621,-7.5851,-7.5202,-7.4745,-7.448,-7.4384,-7.4529,-7.424,-7.3735,-7.2629,-7.1763,-7.157,-7.1162,-7.1041,-7.1282,-7.1522,-7.1667,-7.145,-7.0993,-7.0368,-7.0128,-6.9839,-6.9695,-6.9695,-6.9695,-6.9695,-6.9695,-6.9695,-6.9695,-6.9647,-6.9454,-6.9286,-6.9117,-6.8709,-6.8131,-6.8107,-6.7819,-6.7506,-6.6881,-6.6159,-6.551,-6.5029,-6.4692,-6.3995,-6.3225,-6.2937,-6.2384,-6.1566,-6.1301,-6.1229,-6.1037,-6.0748,-6.0628,-6.064,-6.0195,-5.9762,-5.9185,-5.8704,-5.8271,-5.7766,-5.8079,-5.8343,-5.8488,-5.8632,-5.8632,-5.8392,-5.8175,-5.7886,-5.7574,-5.7037,-5.6733,-5.6542,-5.6462,-5.6117,-5.6004,-5.6643,-5.7213,-5.7365,-5.7646,-5.7862,-7.5274,-7.4451,-7.4441,-7.4265,-7.4089,-7.4954,-7.5214,-7.5225,-7.6215,-7.661,-7.6621,-7.7198,-7.7366,-7.727,-7.7438,-7.7775,-7.8232,-7.828,-7.8641,-7.9002,-7.9098,-7.9146,-7.9146,-7.917,-7.917,-7.917,-7.917,-7.917,-7.917,-7.917,-7.917,-7.9074,-7.8713,-7.8352,-7.7895,-7.7006,-7.638,-7.5635,-7.513,-7.4865,-7.4985,-7.4817,-7.4601,-7.448,-7.3158,-7.2364,-7.2172,-7.1715,-7.1643,-7.1835,-7.2003,-7.2076,-7.21,-7.1715,-7.1186,-7.0657,-7.0055,-6.9767,-6.9695,-6.9695,-6.9695,-6.9695,-6.9695,-6.9695,-6.9695,-6.9671,-6.9647,-6.9622,-6.9334,-6.9021,-6.8973,-6.8901,-6.8468,-6.7771,-6.6977,-6.6256,-6.563,-6.5149,-6.4716,-6.4187,-6.3923,-6.3322,-6.2504,-6.1903,-6.1807,-6.1518,-6.1229,-6.0941,-6.0845,-6.0604,-6.0147,-5.9522,-5.9041,-5.8776,-5.8608,-5.8776,-5.8945,-5.9017,-5.9209,-5.9305,-5.8921,-5.8512,-5.8247,-5.8031,-5.7814,-5.7485,-5.7301,-5.7189,-5.6965,-5.7052,-5.7581,-5.7911,-5.8007,-5.8175,-5.8367,-7.5485,-7.5053,-7.512,-7.5096,-7.5049,-7.5653,-7.6154,-7.6442,-7.6717,-7.7318,-7.7727,-7.7727,-7.7823,-7.7968,-7.7679,-7.7655,-7.7847,-7.8208,-7.8665,-7.9098,-7.917,-7.917,-7.917,-7.917,-7.917,-7.917,-7.917,-7.917,-7.917,-7.917,-7.917,-7.9122,-7.9002,-7.8689,-7.7992,-7.7535,-7.6693,-7.5611,-7.525,-7.5178,-7.5178,-7.513,-7.5058,-7.4697,-7.3975,-7.3158,-7.2749,-7.234,-7.2244,-7.2196,-7.2148,-7.2292,-7.2532,-7.2244,-7.1739,-7.1065,-7.0344,-6.9695,-6.9719,-6.9695,-6.9695,-6.9695,-6.9695,-6.9695,-6.9695,-6.9695,-6.9695,-6.9695,-6.9574,-6.9526,-6.943,-6.9166,-6.8877,-6.8324,-6.7554,-6.6664,-6.5967,-6.5895,-6.5414,-6.4957,-6.4644,-6.4139,-6.3442,-6.2865,-6.2336,-6.1999,-6.171,-6.1422,-6.1061,-6.0772,-6.046,-5.9786,-5.9498,-5.9257,-5.9185,-5.9402,-5.945,-5.9498,-5.9642,-5.9786,-5.9305,-5.8897,-5.8848,-5.8632,-5.8367,-5.8175,-5.8007,-5.7862,-5.7766,-5.7911,-5.8199,-5.8367,-5.8512,-5.868,-5.8945,-7.6227,-7.5989,-7.581,-7.5677,-7.5701,-7.5913,-7.614,-7.638,-7.6693,-7.7054,-7.7535,-7.7944,-7.8184,-7.8256,-7.7823,-7.7775,-7.8016,-7.828,-7.8665,-7.9074,-7.917,-7.917,-7.917,-7.917,-7.917,-7.917,-7.917,-7.917,-7.917,-7.917,-7.917,-7.917,-7.9146,-7.9002,-7.828,-7.8136,-7.7511,-7.6789,-7.626,-7.5803,-7.5394,-7.5178,-7.4937,-7.4408,-7.3927,-7.3591,-7.335,-7.3446,-7.3374,-7.335,-7.3182,-7.3037,-7.3013,-7.2557,-7.1907,-7.1739,-7.1041,-7.0368,-6.9815,-6.9743,-6.9719,-6.9695,-6.9695,-6.9695,-6.9695,-6.9671,-6.9671,-6.9695,-6.9695,-6.9671,-6.9647,-6.9502,-6.9406,-6.8973,-6.8083,-6.7578,-6.6881,-6.6544,-6.628,-6.5799,-6.5318,-6.4837,-6.4356,-6.3875,-6.3274,-6.2768,-6.236,-6.1975,-6.1374,-6.0748,-6.0412,-6.0027,-5.9859,-5.9786,-5.9762,-5.9834,-5.9859,-5.9883,-5.9883,-5.9907,-5.9546,-5.9257,-5.9233,-5.9065,-5.8728,-5.8608,-5.8608,-5.8464,-5.8271,-5.8464,-5.8704,-5.8872,-5.9065,-5.9426,-5.9642,-7.6982,-7.6933,-7.6284,-7.5996,-7.5996,-7.5996,-7.6116,-7.6284,-7.6789,-7.7102,-7.7414,-7.8136,-7.8521,-7.8328,-7.8016,-7.8016,-7.8352,-7.8376,-7.8713,-7.9002,-7.917,-7.917,-7.917,-7.917,-7.917,-7.917,-7.917,-7.917,-7.917,-7.917,-7.917,-7.917,-7.917,-7.9002,-7.8833,-7.8352,-7.7679,-7.7174,-7.6837,-7.6356,-7.5803,-7.5515,-7.4937,-7.4456,-7.4144,-7.412,-7.3951,-7.4312,-7.4553,-7.424,-7.3807,-7.3518,-7.3446,-7.2797,-7.222,-7.2003,-7.1522,-7.1041,-7.044,-7.0079,-6.9863,-6.9743,-6.9695,-6.9695,-6.9671,-6.9622,-6.9502,-6.943,-6.9214,-6.9238,-6.9286,-6.9214,-6.9093,-6.8877,-6.854,-6.8276,-6.7891,-6.7097,-6.6568,-6.6208,-6.5799,-6.5606,-6.5173,-6.4837,-6.4284,-6.3634,-6.3105,-6.2552,-6.1807,-6.0989,-6.0604,-6.0315,-6.0075,-6.0051,-6.0051,-6.0099,-6.0171,-6.0219,-6.0219,-6.0123,-5.981,-5.9666,-5.9642,-5.9402,-5.9137,-5.9257,-5.9378,-5.9065,-5.88,-5.8969,-5.9161,-5.9426,-5.969,-6.0003,-6.0123,-7.7535,-7.7438,-7.6428,-7.602,-7.602,-7.5996,-7.6284,-7.6717,-7.7246,-7.7727,-7.816,-7.8761,-7.8713,-7.8449,-7.8304,-7.828,-7.8376,-7.8376,-7.8737,-7.9026,-7.917,-7.917,-7.917,-7.917,-7.917,-7.917,-7.917,-7.917,-7.917,-7.917,-7.917,-7.917,-7.917,-7.8857,-7.8497,-7.8112,-7.7655,-7.7246,-7.7006,-7.6861,-7.6452,-7.614,-7.5635,-7.5322,-7.5418,-7.5418,-7.4504,-7.4889,-7.5034,-7.4649,-7.4072,-7.3783,-7.3663,-7.3037,-7.2532,-7.222,-7.21,-7.1643,-7.1138,-7.0633,-7.0176,-6.9887,-6.9695,-6.9695,-6.9695,-6.9214,-6.9021,-6.8997,-6.8781,-6.8444,-6.8372,-6.8252,-6.8492,-6.8444,-6.8276,-6.7939,-6.7506,-6.6929,-6.6472,-6.6376,-6.6256,-6.6111,-6.5775,-6.539,-6.4668,-6.3971,-6.3201,-6.2648,-6.2191,-6.1494,-6.1061,-6.07,-6.0339,-6.0195,-6.0147,-6.0219,-6.0388,-6.0412,-6.0412,-6.0339,-6.0195,-6.0099,-5.9931,-5.9931,-5.9738,-5.9931,-6.0027,-5.9618,-5.9378,-5.945,-5.9618,-5.981,-5.9907,-6.0075,-6.0171,-7.7102,-7.703,-7.6308,-7.6188,-7.6477,-7.614,-7.6308,-7.6789,-7.703,-7.7607,-7.84,-7.8569,-7.8569,-7.8425,-7.8376,-7.8376,-7.8425,-7.8737,-7.8954,-7.9098,-7.917,-7.917,-7.917,-7.917,-7.917,-7.917,-7.917,-7.917,-7.917,-7.917,-7.917,-7.917,-7.917,-7.9074,-7.8689,-7.8136,-7.7727,-7.7679,-7.7414,-7.7174,-7.6789,-7.6645,-7.6236,-7.5803,-7.5442,-7.5587,-7.5418,-7.5587,-7.5563,-7.5226,-7.4553,-7.424,-7.3975,-7.3302,-7.2797,-7.2532,-7.2508,-7.222,-7.1763,-7.1258,-7.0729,-7.0248,-6.9911,-6.9719,-6.9695,-6.9214,-6.8973,-6.8757,-6.8396,-6.8059,-6.8107,-6.8131,-6.818,-6.8083,-6.7843,-6.753,-6.7242,-6.6785,-6.6713,-6.6761,-6.6761,-6.6688,-6.628,-6.5871,-6.5053,-6.426,-6.3466,-6.2768,-6.2384,-6.1951,-6.1494,-6.1133,-6.0772,-6.0484,-6.0412,-6.0508,-6.0652,-6.0652,-6.0652,-6.0604,-6.0532,-6.0243,-6.0123,-6.0171,-6.0171,-6.0147,-6.0075,-5.9979,-5.9907,-5.9859,-5.9931,-6.0075,-6.0147,-6.0171,-6.0171,-7.6909,-7.6958,-7.6452,-7.6452,-7.6717,-7.6236,-7.6212,-7.6573,-7.6933,-7.7631,-7.8593,-7.8617,-7.8617,-7.8617,-7.8641,-7.8641,-7.8737,-7.8954,-7.9098,-7.917,-7.917,-7.917,-7.917,-7.917,-7.917,-7.917,-7.917,-7.917,-7.917,-7.917,-7.917,-7.917,-7.917,-7.9146,-7.8978,-7.8521,-7.8184,-7.8208,-7.804,-7.7703,-7.7318,-7.6909,-7.6693,-7.6212,-7.5827,-7.5683,-7.5827,-7.5923,-7.5923,-7.5659,-7.5202,-7.4745,-7.4312,-7.3783,-7.3182,-7.3013,-7.2869,-7.2653,-7.2268,-7.1643,-7.1065,-7.0464,-7.0416,-7.0079,-6.9695,-6.9334,-6.9214,-6.8829,-6.8324,-6.7867,-6.7867,-6.765,-6.7482,-6.7314,-6.7362,-6.7121,-6.7242,-6.7001,-6.7097,-6.7169,-6.7121,-6.7025,-6.664,-6.6159,-6.5246,-6.4524,-6.3923,-6.3298,-6.2865,-6.2384,-6.1879,-6.1518,-6.1205,-6.0941,-6.0724,-6.0989,-6.1229,-6.1229,-6.1181,-6.1037,-6.0869,-6.058,-6.0267,-6.0171,-6.0171,-6.0171,-6.0147,-6.0075,-6.0099,-6.0147,-6.0171,-6.0171,-6.0171,-6.0171,-6.0171,-7.7102,-7.7487,-7.6982,-7.6813,-7.6861,-7.626,-7.6116,-7.6428,-7.7198,-7.8088,-7.893,-7.9026,-7.9074,-7.9074,-7.9026,-7.9002,-7.9026,-7.9122,-7.917,-7.917,-7.917,-7.917,-7.917,-7.917,-7.917,-7.917,-7.917,-7.917,-7.917,-7.917,-7.917,-7.917,-7.917,-7.917,-7.917,-7.9122,-7.8833,-7.8449,-7.8376,-7.8256,-7.8088,-7.739,-7.6933,-7.6958,-7.6332,-7.6116,-7.6284,-7.6188,-7.614,-7.5899,-7.5442,-7.5082,-7.4937,-7.4144,-7.3663,-7.3615,-7.3182,-7.2917,-7.2749,-7.1835,-7.121,-7.0753,-7.0753,-7.0584,-6.9935,-6.9598,-6.9382,-6.8925,-6.8035,-6.7482,-6.7194,-6.6953,-6.6833,-6.6761,-6.6809,-6.6857,-6.6977,-6.7194,-6.7242,-6.7362,-6.7338,-6.7218,-6.6881,-6.6376,-6.5414,-6.4716,-6.4284,-6.3827,-6.3418,-6.2793,-6.2239,-6.2191,-6.1903,-6.159,-6.1446,-6.1614,-6.1782,-6.1782,-6.1734,-6.1614,-6.1374,-6.1109,-6.0772,-6.0388,-6.0315,-6.0436,-6.0315,-6.0171,-6.0267,-6.0315,-6.0195,-6.0171,-6.0171,-6.0195,-6.0243,-7.7438,-7.7583,-7.739,-7.7535,-7.7751,-7.727,-7.7054,-7.7174,-7.7799,-7.8328,-7.8665,-7.8978,-7.917,-7.917,-7.917,-7.917,-7.917,-7.917,-7.917,-7.917,-7.917,-7.917,-7.917,-7.917,-7.917,-7.917,-7.917,-7.917,-7.917,-7.917,-7.917,-7.917,-7.917,-7.917,-7.905,-7.893,-7.8617,-7.8761,-7.8641,-7.8473,-7.8713,-7.7944,-7.7607,-7.816,-7.715,-7.6693,-7.6933,-7.6741,-7.6404,-7.6092,-7.5587,-7.5346,-7.5202,-7.448,-7.4192,-7.4168,-7.3879,-7.3711,-7.335,-7.2653,-7.1907,-7.1402,-7.1138,-7.0897,-6.9911,-6.9719,-6.9406,-6.8925,-6.8107,-6.7602,-6.7218,-6.6833,-6.6664,-6.6592,-6.6592,-6.6616,-6.6737,-6.7049,-6.7242,-6.7434,-6.7482,-6.741,-6.7169,-6.6881,-6.6039,-6.527,-6.4837,-6.4548,-6.4139,-6.3274,-6.2624,-6.2841,-6.272,-6.2336,-6.2191,-6.2432,-6.248,-6.2456,-6.2384,-6.2263,-6.1999,-6.1662,-6.1446,-6.1133,-6.0893,-6.0676,-6.0676,-6.0628,-6.0532,-6.0484,-6.0508,-6.0364,-6.0291,-6.0339,-6.0364,-7.7535,-7.7847,-7.7871,-7.816,-7.8497,-7.7895,-7.7679,-7.7871,-7.8064,-7.828,-7.8689,-7.9026,-7.917,-7.917,-7.917,-7.917,-7.917,-7.917,-7.917,-7.917,-7.917,-7.917,-7.917,-7.917,-7.917,-7.917,-7.917,-7.917,-7.917,-7.917,-7.917,-7.917,-7.917,-7.917,-7.9074,-7.893,-7.8833,-7.8978,-7.8857,-7.8809,-7.8809,-7.8497,-7.828,-7.8449,-7.8016,-7.7294,-7.7559,-7.7342,-7.6837,-7.6332,-7.5971,-7.5659,-7.5418,-7.5058,-7.4745,-7.4697,-7.4456,-7.4192,-7.3615,-7.335,-7.2557,-7.1691,-7.1691,-7.1282,-7.0512,-7.0368,-7.0031,-6.9454,-6.8564,-6.8131,-6.7819,-6.7338,-6.7169,-6.7145,-6.6881,-6.6929,-6.6881,-6.7218,-6.7194,-6.7386,-6.753,-6.7482,-6.7386,-6.7194,-6.6737,-6.6063,-6.5438,-6.5149,-6.4813,-6.3923,-6.3274,-6.3538,-6.3658,-6.337,-6.3201,-6.3274,-6.3274,-6.3153,-6.3009,-6.2841,-6.2504,-6.2119,-6.1999,-6.1855,-6.1518,-6.1253,-6.1181,-6.1133,-6.1085,-6.1061,-6.1061,-6.0845,-6.0508,-6.0436,-6.046,-7.7414,-7.8304,-7.8376,-7.8641,-7.893,-7.8088,-7.7919,-7.828,-7.7847,-7.8208,-7.9026,-7.9026,-7.917,-7.917,-7.917,-7.917,-7.917,-7.917,-7.917,-7.917,-7.917,-7.917,-7.917,-7.917,-7.917,-7.917,-7.917,-7.917,-7.917,-7.917,-7.917,-7.917,-7.917,-7.917,-7.9122,-7.9098,-7.9074,-7.9098,-7.9098,-7.905,-7.8978,-7.8641,-7.8641,-7.8665,-7.8232,-7.7919,-7.7992,-7.7823,-7.7342,-7.6982,-7.6741,-7.6428,-7.6044,-7.5539,-7.5346,-7.513,-7.4793,-7.4312,-7.3975,-7.3831,-7.323,-7.246,-7.2581,-7.2148,-7.1522,-7.1041,-7.0825,-7.0392,-6.9719,-6.931,-6.8901,-6.8636,-6.8396,-6.8059,-6.765,-6.7506,-6.7362,-6.7338,-6.7194,-6.7266,-6.7458,-6.7434,-6.7338,-6.7169,-6.7073,-6.6688,-6.6063,-6.563,-6.5221,-6.4596,-6.4163,-6.4428,-6.45,-6.4428,-6.4332,-6.4187,-6.3851,-6.3658,-6.349,-6.3298,-6.2937,-6.2696,-6.2648,-6.2456,-6.2047,-6.1758,-6.1566,-6.159,-6.1686,-6.1662,-6.1614,-6.135,-6.1037,-6.058,-6.0508,-7.7414,-7.8352,-7.8376,-7.8689,-7.9026,-7.8425,-7.804,-7.7847,-7.7992,-7.8208,-7.8088,-7.8857,-7.9146,-7.917,-7.917,-7.917,-7.917,-7.917,-7.917,-7.917,-7.917,-7.917,-7.917,-7.917,-7.917,-7.917,-7.917,-7.917,-7.917,-7.917,-7.917,-7.917,-7.917,-7.917,-7.9194,-7.917,-7.917,-7.9194,-7.9194,-7.917,-7.905,-7.8689,-7.8833,-7.8785,-7.8545,-7.8352,-7.8304,-7.828,-7.7847,-7.7463,-7.7006,-7.6669,-7.6597,-7.6092,-7.5779,-7.5731,-7.5346,-7.4913,-7.4745,-7.4408,-7.3855,-7.3254,-7.3278,-7.2508,-7.1883,-7.1522,-7.1546,-7.1065,-7.0657,-7.0176,-6.9767,-6.9478,-6.9286,-6.8973,-6.8588,-6.8324,-6.8131,-6.7819,-6.765,-6.741,-6.7578,-6.7386,-6.729,-6.7266,-6.7145,-6.6977,-6.6688,-6.6208,-6.5678,-6.5077,-6.4837,-6.5077,-6.5077,-6.4957,-6.5029,-6.4933,-6.4524,-6.4163,-6.3995,-6.3851,-6.361,-6.3418,-6.3322,-6.3033,-6.2624,-6.2191,-6.1807,-6.1975,-6.2336,-6.2167,-6.2071,-6.1831,-6.1542,-6.1109,-6.0917,-7.7414,-7.8328,-7.8376,-7.8689,-7.905,-7.8833,-7.8376,-7.8016,-7.8256,-7.8256,-7.8304,-7.8905,-7.917,-7.917,-7.917,-7.917,-7.917,-7.917,-7.917,-7.917,-7.917,-7.917,-7.917,-7.917,-7.917,-7.917,-7.917,-7.917,-7.9194,-7.917,-7.917,-7.917,-7.917,-7.9314,-7.9386,-7.9338,-7.9338,-7.9362,-7.9338,-7.9194,-7.9026,-7.8833,-7.8978,-7.9026,-7.8761,-7.8713,-7.8665,-7.8665,-7.84,-7.7919,-7.739,-7.6982,-7.6813,-7.6308,-7.5996,-7.5923,-7.5755,-7.5394,-7.513,-7.4913,-7.436,-7.3879,-7.3663,-7.3013,-7.2412,-7.1979,-7.1835,-7.157,-7.1282,-7.0945,-7.056,-7.0224,-7.0079,-6.9911,-6.955,-6.9214,-6.8853,-6.8444,-6.8131,-6.7795,-6.7578,-6.7362,-6.7266,-6.7266,-6.7169,-6.6929,-6.6833,-6.6688,-6.6183,-6.5606,-6.5414,-6.5534,-6.5486,-6.539,-6.551,-6.5558,-6.5173,-6.4813,-6.4596,-6.4404,-6.4211,-6.3971,-6.373,-6.349,-6.3201,-6.2889,-6.2696,-6.2793,-6.3009,-6.2865,-6.2793,-6.272,-6.236,-6.1758,-6.1686,-7.7342,-7.8304,-7.8352,-7.8689,-7.9122,-7.9074,-7.8809,-7.8449,-7.84,-7.8617,-7.8954,-7.9122,-7.917,-7.917,-7.917,-7.917,-7.917,-7.917,-7.917,-7.917,-7.917,-7.917,-7.917,-7.917,-7.917,-7.917,-7.929,-7.9459,-7.9386,-7.9483,-7.9579,-7.929,-7.9411,-7.9627,-7.9771,-7.9531,-7.9483,-7.9483,-7.9338,-7.917,-7.917,-7.9146,-7.917,-7.9146,-7.9122,-7.9122,-7.9122,-7.905,-7.893,-7.8425,-7.7871,-7.7318,-7.6693,-7.6308,-7.6068,-7.5996,-7.5923,-7.5755,-7.5515,-7.5322,-7.4697,-7.4168,-7.3687,-7.3302,-7.2797,-7.222,-7.1955,-7.1835,-7.1546,-7.1114,-7.0705,-7.0825,-7.0825,-7.0705,-7.0464,-7.0176,-6.9887,-6.919,-6.83,-6.7987,-6.7747,-6.7506,-6.7169,-6.7169,-6.7242,-6.6905,-6.6713,-6.6761,-6.664,-6.6087,-6.5943,-6.5943,-6.5895,-6.5871,-6.6015,-6.6015,-6.5799,-6.5486,-6.5197,-6.4957,-6.4765,-6.4428,-6.4067,-6.3875,-6.3706,-6.3875,-6.3851,-6.3851,-6.3779,-6.3682,-6.3658,-6.3682,-6.3225,-6.2456,-6.2071,-7.6813,-7.7799,-7.8208,-7.8689,-7.9074,-7.8737,-7.8737,-7.893,-7.8545,-7.8473,-7.8617,-7.8978,-7.917,-7.917,-7.917,-7.917,-7.917,-7.917,-7.917,-7.917,-7.917,-7.917,-7.917,-7.917,-7.917,-7.9314,-7.9555,-7.9916,-8.0156,-8.0276,-8.0348,-8.0348,-8.0276,-8.0252,-8.006,-7.9795,-7.9723,-7.9699,-7.9435,-7.9266,-7.9242,-7.9194,-7.917,-7.9194,-7.9218,-7.9242,-7.9218,-7.9194,-7.9122,-7.8857,-7.8016,-7.7174,-7.626,-7.6092,-7.602,-7.5996,-7.5996,-7.5899,-7.5827,-7.5659,-7.5202,-7.4625,-7.412,-7.3591,-7.3037,-7.2412,-7.2027,-7.1931,-7.1667,-7.1234,-7.1041,-7.1306,-7.1522,-7.1426,-7.133,-7.109,-7.0849,-6.9767,-6.8612,-6.8252,-6.8011,-6.765,-6.729,-6.7121,-6.7169,-6.7001,-6.6688,-6.664,-6.6809,-6.6544,-6.628,-6.6256,-6.6304,-6.6352,-6.6424,-6.6376,-6.6111,-6.5895,-6.5606,-6.5438,-6.527,-6.4933,-6.4596,-6.438,-6.426,-6.4428,-6.4572,-6.4644,-6.4572,-6.4452,-6.4187,-6.4067,-6.3658,-6.2937,-6.248,-7.6621,-7.7607,-7.816,-7.8545,-7.8737,-7.8497,-7.8545,-7.8761,-7.8737,-7.8737,-7.8761,-7.9026,-7.917,-7.917,-7.917,-7.917,-7.917,-7.917,-7.917,-7.917,-7.917,-7.917,-7.917,-7.917,-7.9411,-7.9555,-7.9819,-8.0204,-8.0733,-8.0469,-8.0348,-8.0541,-8.0613,-8.0661,-8.03,-8.0132,-7.9964,-7.9916,-7.9603,-7.9531,-7.9459,-7.9362,-7.9555,-7.9603,-7.9699,-7.9579,-7.9531,-7.9507,-7.9362,-7.8978,-7.8136,-7.7102,-7.6332,-7.602,-7.602,-7.5996,-7.5996,-7.5996,-7.602,-7.5899,-7.5611,-7.4985,-7.4745,-7.4264,-7.3326,-7.2701,-7.21,-7.1955,-7.157,-7.1162,-7.1258,-7.1474,-7.1715,-7.1763,-7.1691,-7.157,-7.1114,-7.0344,-6.9526,-6.9045,-6.8709,-6.8204,-6.7795,-6.729,-6.729,-6.7145,-6.6809,-6.6568,-6.6737,-6.6809,-6.6616,-6.6496,-6.6496,-6.6496,-6.6472,-6.6448,-6.6352,-6.6159,-6.5991,-6.5799,-6.5582,-6.5366,-6.5125,-6.4837,-6.4741,-6.4909,-6.5053,-6.5221,-6.5246,-6.5125,-6.4741,-6.4356,-6.3875,-6.337,-6.2841,-7.6573,-7.7511,-7.7968,-7.8208,-7.8256,-7.8184,-7.8256,-7.8425,-7.8761,-7.9002,-7.9122,-7.9146,-7.917,-7.917,-7.917,-7.917,-7.917,-7.917,-7.917,-7.917,-7.917,-7.917,-7.917,-7.9194,-7.9483,-7.9819,-8.0108,-8.0517,-8.0974,-8.0805,-8.0709,-8.0397,-8.0517,-8.0829,-8.0589,-8.0324,-8.0036,-8.006,-7.9988,-8.0036,-7.9843,-7.9651,-8.0036,-8.03,-8.0324,-8.0036,-7.9988,-7.9819,-7.9579,-7.905,-7.828,-7.7414,-7.6765,-7.6452,-7.6284,-7.6284,-7.6236,-7.6164,-7.6044,-7.5996,-7.5587,-7.525,-7.5202,-7.4649,-7.3639,-7.2821,-7.222,-7.1883,-7.1522,-7.1186,-7.1282,-7.1643,-7.1883,-7.1979,-7.1931,-7.1955,-7.1426,-7.0849,-7.0272,-6.9767,-6.931,-6.8805,-6.8276,-6.7747,-6.7506,-6.7314,-6.7049,-6.6785,-6.6616,-6.664,-6.6544,-6.6496,-6.6496,-6.6496,-6.6496,-6.6472,-6.6448,-6.64,-6.6232,-6.6063,-6.5895,-6.5775,-6.5558,-6.5221,-6.5197,-6.5462,-6.563,-6.5775,-6.5775,-6.563,-6.5077,-6.4548,-6.4043,-6.3538,-6.3033,-7.638,-7.6958,-7.7078,-7.7342,-7.7655,-7.7294,-7.7559,-7.8232,-7.804,-7.8328,-7.8978,-7.9146,-7.917,-7.917,-7.917,-7.917,-7.917,-7.917,-7.917,-7.917,-7.917,-7.917,-7.9194,-7.929,-7.9531,-7.994,-8.0421,-8.0926,-8.1286,-8.1575,-8.1599,-8.1166,-8.119,-8.0974,-8.018,-7.9988,-7.9916,-7.994,-8.0132,-8.0204,-8.0565,-8.0493,-8.0565,-8.0565,-8.03,-8.0084,-7.9892,-7.9555,-7.9338,-7.9002,-7.8521,-7.7799,-7.739,-7.7054,-7.6885,-7.6621,-7.6573,-7.6356,-7.6236,-7.614,-7.5779,-7.5058,-7.4889,-7.448,-7.3446,-7.2436,-7.2051,-7.2003,-7.1546,-7.0777,-7.0849,-7.1643,-7.2003,-7.1907,-7.1835,-7.2027,-7.1859,-7.1186,-7.056,-7.02,-6.9863,-6.9358,-6.8829,-6.8444,-6.8252,-6.7963,-6.7482,-6.7218,-6.6953,-6.6761,-6.6544,-6.6496,-6.6496,-6.6496,-6.6496,-6.6496,-6.6472,-6.6472,-6.6448,-6.6232,-6.6159,-6.6232,-6.6015,-6.5678,-6.5823,-6.6135,-6.628,-6.6159,-6.6039,-6.5823,-6.527,-6.4716,-6.4211,-6.3754,-6.3322]},{"header":{"parameterUnit":"m.s-1","parameterCategory":1,"la1":31.0,"la2":29.5877,"lo1":-88.7671,"lo2":-86.6584,"dx":0.0162,"dy":0.0185,"nx":115,"ny":88,"refTime":"2023-01-24T06:00:00:Z","depth":0,"parameterNumber":3,"parameterNumberName":"V-component_of_WINDS"},"data":[0.0,0.0,0.0,0.0,0.0,0.0,0.0,0.0,0.0,0.0,0.0,0.0,0.0,0.0,0.0,0.0,0.0,0.0,0.0,0.0,0.0,0.0,0.0,0.0,0.0,0.0,0.0,0.0,0.0,0.0,0.0,0.0,0.0,0.0,0.0,0.0,0.0,0.0,0.0,0.0,0.0,0.0,0.0,0.0,0.0,0.0,0.0,0.0,0.0,0.0,0.0,0.0,0.0,0.0,0.0,0.0,0.0,0.0,0.0,0.0,0.0,0.0,0.0,0.0,0.0,0.0,0.0,0.0,0.0,0.0,0.0,0.0,0.0,0.0,0.0,0.0,0.0,0.0,0.0,0.0,0.0,0.0,0.0,0.0,0.0,0.0,0.0,0.0,0.0,0.0,0.0,0.0,0.0,0.0,0.0,0.0,0.0,0.0,0.0,0.0,0.0,0.0,0.0,0.0,0.0,0.0,0.0,0.0,0.0,0.0,0.0,0.0,0.0,0.0,0.0,0.0,0.0,0.0,0.0,0.0,0.0,0.0,0.0,0.0,0.0,0.0,0.0,0.0,0.0,0.0,0.0,0.0,0.0,0.0,0.0,0.0,0.0,0.0,0.0,0.0,0.0,0.0,0.0,0.0,0.0,0.0,0.0,0.0,0.0,0.0,0.0,0.0,0.0,0.0,0.0,0.0,0.0,0.0,0.0,0.0,0.0,0.0,0.0,0.0,0.0,0.0,0.0,0.0,0.0,0.0,0.0,0.0,0.0,0.0,0.0,0.0,0.0,0.0,0.0,0.0,0.0,0.0,0.0,0.0,0.0,0.0,0.0,0.0,0.0,0.0,0.0,0.0,0.0,0.0,0.0,0.0,0.0,0.0,0.0,0.0,0.0,0.0,0.0,0.0,0.0,0.0,0.0,0.0,0.0,0.0,0.0,0.0,0.0,0.0,0.0,0.0,0.0,0.0,0.0,0.0,0.0,0.0,0.0,0.0,0.0,0.0,0.0,0.0,0.0,0.0,0.0,0.0,0.0,0.0,0.0,0.0,0.0,0.0,0.0,0.0,0.0,0.0,0.0,0.0,0.0,0.0,0.0,0.0,0.0,0.0,0.0,0.0,0.0,0.0,0.0,0.0,0.0,0.0,0.0,0.0,0.0,0.0,0.0,0.0,0.0,0.0,0.0,0.0,0.0,0.0,0.0,0.0,0.0,0.0,0.0,0.0,0.0,0.0,0.0,0.0,0.0,0.0,0.0,0.0,0.0,0.0,0.0,0.0,0.0,0.0,0.0,0.0,0.0,0.0,0.0,0.0,0.0,0.0,0.0,0.0,0.0,0.0,0.0,0.0,0.0,0.0,0.0,0.0,0.0,0.0,0.0,0.0,0.0,0.0,0.0,0.0,0.0,0.0,0.0,0.0,0.0,0.0,0.0,0.0,0.0,0.0,0.0,0.0,0.0,0.0,0.0,0.0,0.0,0.0,0.0,0.0,0.0,0.0,0.0,0.0,0.0,0.0,0.0,0.0,0.0,0.0,0.0,0.0,0.0,0.0,0.0,0.0,0.0,0.0,0.0,0.0,0.0,0.0,0.0,0.0,0.0,0.0,0.0,0.0,0.0,0.0,0.0,0.0,0.0,0.0,0.0,0.0,0.0,0.0,0.0,0.0,0.0,0.0,0.0,0.0,0.0,0.0,0.0,0.0,0.0,0.0,0.0,0.0,0.0,0.0,0.0,0.0,0.0,0.0,0.0,0.0,0.0,0.0,0.0,0.0,0.0,0.0,0.0,0.0,0.0,0.0,0.0,0.0,0.0,0.0,0.0,0.0,0.0,0.0,0.0,0.0,0.0,0.0,0.0,0.0,0.0,0.0,0.0,0.0,0.0,0.0,0.0,0.0,0.0,0.0,0.0,0.0,0.0,0.0,0.0,0.0,0.0,0.0,0.0,0.0,0.0,0.0,0.0,0.0,0.0,0.0,0.0,0.0,0.0,0.0,0.0,0.0,0.0,0.0,0.0,0.0,0.0,0.0,0.0,0.0,0.0,0.0,0.0,0.0,0.0,0.0,0.0,0.0,0.0,0.0,0.0,0.0,0.0,0.0,0.0,0.0,0.0,0.0,0.0,0.0,0.0,0.0,0.0,0.0,0.0,0.0,0.0,0.0,0.0,0.0,0.0,0.0,0.0,0.0,0.0,0.0,0.0,0.0,0.0,0.0,0.0,0.0,0.0,0.0,0.0,0.0,0.0,0.0,0.0,0.0,0.0,0.0,0.0,0.0,0.0,0.0,0.0,0.0,0.0,0.0,0.0,0.0,0.0,0.0,0.0,0.0,0.0,0.0,0.0,0.0,0.0,0.0,0.0,0.0,0.0,0.0,0.0,0.0,0.0,0.0,0.0,0.0,0.0,0.0,0.0,0.0,0.0,0.0,0.0,0.0,0.0,0.0,0.0,0.0,0.0,0.0,0.0,0.0,0.0,0.0,0.0,0.0,0.0,0.0,0.0,0.0,0.0,0.0,0.0,0.0,0.0,0.0,0.0,0.0,0.0,0.0,0.0,0.0,0.0,0.0,0.0,0.0,0.0,0.0,0.0,0.0,0.0,0.0,0.0,0.0,0.0,0.0,0.0,0.0,0.0,0.0,0.0,0.0,0.0,0.0,0.0,0.0,0.0,0.0,0.0,0.0,0.0,0.0,0.0,0.0,0.0,0.0,0.0,0.0,0.0,0.0,0.0,0.0,0.0,0.0,0.0,0.0,0.0,0.0,0.0,0.0,0.0,0.0,0.0,0.0,0.0,0.0,0.0,0.0,0.0,0.0,0.0,0.0,0.0,0.0,0.0,0.0,0.0,0.0,0.0,0.0,0.0,0.0,0.0,0.0,0.0,0.0,0.0,0.0,0.0,0.0,0.0,0.0,0.0,0.0,0.0,0.0,0.0,0.0,0.0,0.0,0.0,0.0,0.0,0.0,0.0,0.0,0.0,0.0,0.0,0.0,0.0,0.0,0.0,0.0,0.0,0.0,0.0,0.0,0.0,0.0,0.0,0.0,0.0,0.0,0.0,0.0,0.0,0.0,0.0,0.0,0.0,0.0,0.0,0.0,0.0,0.0,0.0,0.0,0.0,0.0,0.0,0.0,0.0,0.0,0.0,0.0,0.0,0.0,0.0,0.0,0.0,0.0,0.0,0.0,0.0,0.0,0.0,0.0,0.0,0.0,0.0,0.0,0.0,0.0,0.0,0.0,0.0,0.0,0.0,0.0,0.0,0.0,0.0,0.0,0.0,0.0,0.0,0.0,0.0,0.0,0.0,0.0,0.0,0.0,0.0,0.0,0.0,0.0,0.0,0.0,0.0,0.0,0.0,0.0,0.0,0.0,0.0,0.0,0.0,0.0,0.0,0.0,0.0,0.0,0.0,0.0,0.0,0.0,0.0,0.0,0.0,0.0,0.0,0.0,0.0,0.0,0.0,0.0,0.0,0.0,0.0,0.0,0.0,0.0,0.0,0.0,0.0,0.0,0.0,0.0,0.0,0.0,0.0,0.0,0.0,0.0,0.0,0.0,0.0,0.0,0.0,0.0,0.0,0.0,0.0,0.0,0.0,0.0,0.0,0.0,0.0,0.0,0.0,0.0,0.0,0.0,0.0,0.0,0.0,0.0,0.0,0.0,0.0,0.0,0.0,0.0,0.0,0.0,0.0,0.0,0.0,0.0,0.0,0.0,0.0,0.0,0.0,0.0,0.0,0.0,0.0,0.0,0.0,0.0,0.0,0.0,0.0,0.0,0.0,0.0,0.0,0.0,0.0,0.0,0.0,0.0,0.0,0.0,0.0,0.0,0.0,0.0,0.0,0.0,0.0,0.0,0.0,0.0,0.0,0.0,0.0,0.0,0.0,0.0,0.0,0.0,0.0,0.0,0.0,0.0,0.0,0.0,0.0,0.0,0.0,0.0,0.0,0.0,0.0,0.0,0.0,0.0,0.0,0.0,0.0,0.0,0.0,0.0,0.0,0.0,0.0,0.0,0.0,0.0,0.0,0.0,0.0,0.0,0.0,0.0,0.0,0.0,0.0,0.0,0.0,0.0,0.0,0.0,0.0,0.0,0.0,0.0,0.0,0.0,0.0,0.0,0.0,0.0,0.0,0.0,0.0,0.0,0.0,0.0,0.0,0.0,0.0,0.0,0.0,0.0,0.0,0.0,0.0,0.0,0.0,0.0,0.0,0.0,0.0,0.0,0.0,0.0,0.0,0.0,0.0,0.0,0.0,0.0,0.0,0.0,6.2178,0.0,0.0,0.0,0.0,0.0,0.0,0.0,0.0,0.0,0.0,0.0,0.0,0.0,0.0,0.0,0.0,0.0,0.0,0.0,0.0,0.0,0.0,0.0,0.0,0.0,0.0,0.0,0.0,0.0,0.0,0.0,0.0,0.0,0.0,0.0,0.0,0.0,0.0,0.0,0.0,0.0,0.0,0.0,0.0,0.0,0.0,0.0,0.0,0.0,0.0,0.0,0.0,0.0,0.0,0.0,0.0,0.0,0.0,0.0,0.0,0.0,0.0,0.0,0.0,0.0,0.0,0.0,0.0,0.0,0.0,0.0,0.0,0.0,0.0,0.0,0.0,0.0,0.0,0.0,0.0,0.0,0.0,0.0,0.0,0.0,0.0,0.0,0.0,0.0,0.0,0.0,0.0,0.0,0.0,0.0,0.0,0.0,0.0,0.0,0.0,0.0,0.0,0.0,0.0,0.0,0.0,0.0,0.0,0.0,0.0,6.5391,6.573,6.2838,6.1957,6.3503,0.0,0.0,0.0,0.0,0.0,0.0,0.0,0.0,0.0,0.0,0.0,0.0,0.0,0.0,0.0,0.0,0.0,0.0,0.0,0.0,0.0,0.0,0.0,0.0,0.0,0.0,0.0,0.0,0.0,0.0,0.0,0.0,0.0,0.0,0.0,0.0,0.0,0.0,0.0,0.0,0.0,0.0,0.0,0.0,0.0,0.0,0.0,0.0,0.0,0.0,0.0,0.0,0.0,0.0,0.0,0.0,0.0,0.0,0.0,0.0,0.0,0.0,0.0,0.0,0.0,0.0,0.0,0.0,0.0,0.0,0.0,0.0,0.0,0.0,0.0,0.0,0.0,0.0,0.0,0.0,0.0,0.0,0.0,0.0,0.0,0.0,0.0,0.0,0.0,0.0,0.0,0.0,0.0,0.0,0.0,0.0,0.0,0.0,0.0,0.0,0.0,0.0,0.0,0.0,0.0,0.0,0.0,0.0,0.0,0.0,0.0,0.0,6.3585,6.2624,6.3977,0.0,0.0,0.0,0.0,0.0,0.0,0.0,0.0,0.0,0.0,0.0,0.0,0.0,0.0,0.0,0.0,0.0,0.0,0.0,0.0,0.0,0.0,0.0,0.0,0.0,0.0,0.0,0.0,0.0,0.0,0.0,0.0,0.0,0.0,0.0,0.0,0.0,0.0,0.0,0.0,0.0,0.0,0.0,0.0,0.0,0.0,0.0,0.0,0.0,0.0,0.0,0.0,0.0,0.0,0.0,0.0,0.0,0.0,0.0,0.0,0.0,0.0,0.0,0.0,0.0,0.0,0.0,0.0,0.0,0.0,0.0,0.0,0.0,0.0,0.0,0.0,0.0,0.0,0.0,0.0,0.0,0.0,0.0,0.0,0.0,0.0,0.0,0.0,0.0,0.0,0.0,0.0,0.0,0.0,0.0,0.0,0.0,0.0,0.0,0.0,0.0,0.0,0.0,0.0,0.0,0.0,0.0,0.0,0.0,0.0,6.7945,6.586,6.4824,0.0,6.2685,0.0,0.0,0.0,0.0,0.0,0.0,0.0,0.0,0.0,0.0,0.0,0.0,0.0,0.0,0.0,0.0,0.0,0.0,0.0,0.0,0.0,0.0,0.0,0.0,0.0,0.0,0.0,0.0,0.0,0.0,0.0,0.0,0.0,0.0,0.0,0.0,0.0,0.0,0.0,0.0,0.0,0.0,0.0,0.0,0.0,0.0,0.0,0.0,0.0,0.0,0.0,0.0,0.0,0.0,0.0,0.0,0.0,0.0,0.0,0.0,0.0,0.0,0.0,0.0,0.0,0.0,0.0,0.0,0.0,0.0,0.0,0.0,0.0,0.0,0.0,0.0,0.0,0.0,0.0,0.0,0.0,0.0,0.0,0.0,0.0,0.0,0.0,0.0,0.0,0.0,0.0,0.0,0.0,0.0,0.0,0.0,0.0,0.0,0.0,0.0,0.0,0.0,0.0,0.0,0.0,0.0,0.0,0.0,0.0,0.0,6.8017,6.575,6.4979,6.4106,0.0,0.0,0.0,0.0,0.0,0.0,0.0,0.0,0.0,0.0,0.0,0.0,0.0,0.0,0.0,0.0,0.0,0.0,0.0,0.0,0.0,0.0,0.0,0.0,0.0,0.0,0.0,0.0,0.0,0.0,0.0,0.0,0.0,0.0,0.0,0.0,0.0,0.0,0.0,0.0,0.0,0.0,0.0,0.0,0.0,0.0,0.0,0.0,0.0,0.0,0.0,0.0,0.0,0.0,0.0,0.0,0.0,0.0,0.0,0.0,0.0,0.0,0.0,0.0,0.0,0.0,0.0,0.0,0.0,0.0,0.0,0.0,0.0,0.0,0.0,0.0,0.0,0.0,0.0,0.0,0.0,0.0,0.0,0.0,0.0,0.0,0.0,0.0,0.0,0.0,0.0,0.0,0.0,0.0,0.0,0.0,0.0,0.0,0.0,0.0,0.0,0.0,0.0,0.0,0.0,0.0,0.0,0.0,0.0,0.0,6.9957,6.8137,6.5561,6.5283,6.4788,6.3835,0.0,0.0,0.0,0.0,0.0,0.0,0.0,0.0,0.0,0.0,0.0,0.0,0.0,0.0,0.0,0.0,0.0,0.0,0.0,0.0,0.0,0.0,0.0,0.0,0.0,0.0,0.0,0.0,0.0,0.0,0.0,0.0,0.0,0.0,0.0,0.0,0.0,0.0,0.0,0.0,0.0,0.0,0.0,0.0,0.0,0.0,0.0,0.0,0.0,0.0,0.0,0.0,0.0,0.0,0.0,0.0,0.0,0.0,0.0,0.0,0.0,0.0,0.0,0.0,0.0,0.0,0.0,0.0,0.0,0.0,0.0,0.0,0.0,0.0,0.0,0.0,0.0,0.0,0.0,0.0,0.0,0.0,0.0,0.0,0.0,0.0,0.0,0.0,0.0,0.0,0.0,0.0,0.0,0.0,0.0,0.0,0.0,0.0,0.0,0.0,0.0,0.0,0.0,0.0,0.0,0.0,0.0,0.0,0.0,6.9949,6.8505,6.4835,6.6041,6.6107,0.0,0.0,0.0,0.0,0.0,0.0,0.0,0.0,0.0,0.0,0.0,0.0,0.0,0.0,0.0,0.0,0.0,0.0,0.0,0.0,0.0,0.0,0.0,0.0,0.0,0.0,0.0,0.0,0.0,0.0,0.0,0.0,0.0,0.0,0.0,0.0,0.0,0.0,0.0,0.0,0.0,0.0,0.0,0.0,0.0,0.0,0.0,0.0,0.0,0.0,0.0,0.0,0.0,0.0,0.0,0.0,0.0,0.0,0.0,0.0,0.0,0.0,0.0,0.0,0.0,0.0,0.0,0.0,0.0,0.0,0.0,0.0,0.0,0.0,0.0,0.0,0.0,0.0,0.0,0.0,0.0,0.0,0.0,0.0,0.0,0.0,0.0,0.0,0.0,0.0,0.0,0.0,0.0,0.0,0.0,0.0,0.0,0.0,0.0,0.0,0.0,0.0,0.0,0.0,0.0,0.0,0.0,0.0,0.0,7.0726,7.0024,6.8821,6.6977,6.7395,6.649,0.0,0.0,0.0,0.0,0.0,0.0,0.0,0.0,0.0,0.0,0.0,0.0,0.0,0.0,0.0,0.0,0.0,0.0,0.0,0.0,0.0,0.0,0.0,0.0,0.0,0.0,0.0,0.0,0.0,0.0,0.0,0.0,0.0,0.0,0.0,0.0,0.0,0.0,0.0,0.0,0.0,0.0,0.0,0.0,0.0,0.0,0.0,0.0,0.0,0.0,0.0,0.0,0.0,0.0,0.0,0.0,0.0,0.0,0.0,0.0,0.0,0.0,0.0,0.0,0.0,0.0,0.0,0.0,0.0,0.0,0.0,0.0,0.0,0.0,0.0,0.0,0.0,0.0,0.0,0.0,0.0,0.0,0.0,0.0,0.0,0.0,0.0,0.0,0.0,0.0,0.0,0.0,0.0,0.0,0.0,0.0,0.0,0.0,0.0,0.0,0.0,0.0,0.0,0.0,0.0,0.0,0.0,0.0,0.0,7.041,0.0,6.7615,6.7479,6.7864,6.708,0.0,0.0,0.0,0.0,0.0,0.0,0.0,0.0,0.0,0.0,0.0,0.0,0.0,0.0,0.0,0.0,0.0,0.0,0.0,0.0,0.0,0.0,0.0,0.0,0.0,0.0,0.0,0.0,0.0,0.0,0.0,0.0,0.0,0.0,0.0,0.0,0.0,0.0,0.0,0.0,0.0,0.0,0.0,0.0,0.0,0.0,0.0,0.0,0.0,0.0,0.0,0.0,0.0,0.0,0.0,0.0,0.0,0.0,0.0,0.0,0.0,0.0,0.0,0.0,0.0,0.0,0.0,0.0,0.0,0.0,0.0,0.0,0.0,0.0,0.0,0.0,0.0,0.0,0.0,0.0,0.0,0.0,0.0,0.0,0.0,0.0,0.0,0.0,0.0,0.0,0.0,0.0,0.0,0.0,0.0,0.0,0.0,0.0,0.0,0.0,0.0,0.0,0.0,0.0,0.0,0.0,0.0,0.0,7.2584,6.8406,6.5953,6.5334,6.5891,6.7377,6.8046,0.0,0.0,0.0,0.0,0.0,0.0,0.0,0.0,0.0,0.0,0.0,0.0,0.0,0.0,0.0,0.0,0.0,0.0,0.0,0.0,0.0,0.0,0.0,0.0,0.0,0.0,0.0,0.0,0.0,0.0,0.0,0.0,0.0,0.0,0.0,0.0,0.0,0.0,0.0,0.0,0.0,0.0,0.0,0.0,0.0,0.0,0.0,0.0,0.0,0.0,0.0,0.0,0.0,0.0,0.0,0.0,0.0,0.0,0.0,0.0,0.0,0.0,0.0,0.0,0.0,0.0,0.0,0.0,0.0,0.0,0.0,0.0,0.0,0.0,0.0,0.0,0.0,0.0,0.0,0.0,0.0,0.0,0.0,0.0,0.0,0.0,0.0,0.0,0.0,0.0,0.0,0.0,0.0,0.0,0.0,0.0,0.0,0.0,0.0,0.0,0.0,0.0,0.0,0.0,0.0,0.0,0.0,0.0,0.0,7.3182,7.0372,6.9274,7.0181,6.9923,6.9312,0.0,0.0,0.0,0.0,0.0,0.0,0.0,0.0,0.0,0.0,0.0,0.0,0.0,0.0,0.0,0.0,0.0,0.0,0.0,0.0,0.0,0.0,0.0,0.0,0.0,0.0,0.0,0.0,0.0,0.0,0.0,0.0,0.0,0.0,0.0,0.0,0.0,0.0,0.0,0.0,0.0,0.0,0.0,0.0,0.0,0.0,0.0,0.0,0.0,0.0,0.0,0.0,0.0,0.0,0.0,0.0,0.0,0.0,0.0,0.0,0.0,0.0,0.0,0.0,0.0,0.0,0.0,0.0,0.0,0.0,0.0,0.0,0.0,0.0,0.0,0.0,0.0,0.0,0.0,0.0,0.0,0.0,0.0,0.0,0.0,0.0,0.0,0.0,0.0,0.0,0.0,0.0,0.0,0.0,0.0,0.0,0.0,0.0,0.0,0.0,0.0,0.0,0.0,0.0,0.0,0.0,0.0,0.0,0.0,7.5983,7.2096,7.038,7.1335,7.0938,7.0126,6.8818,0.0,0.0,0.0,0.0,0.0,0.0,0.0,0.0,0.0,0.0,0.0,0.0,0.0,0.0,0.0,0.0,0.0,0.0,0.0,0.0,0.0,0.0,0.0,0.0,0.0,0.0,0.0,0.0,0.0,0.0,0.0,0.0,0.0,0.0,0.0,0.0,0.0,0.0,0.0,0.0,0.0,0.0,0.0,0.0,0.0,0.0,0.0,0.0,0.0,0.0,0.0,0.0,0.0,0.0,0.0,0.0,0.0,0.0,0.0,0.0,0.0,0.0,0.0,0.0,0.0,0.0,0.0,0.0,0.0,0.0,0.0,0.0,0.0,0.0,0.0,0.0,0.0,0.0,0.0,0.0,0.0,0.0,0.0,0.0,0.0,0.0,0.0,0.0,0.0,0.0,0.0,0.0,0.0,0.0,0.0,0.0,0.0,0.0,0.0,0.0,0.0,0.0,0.0,0.0,0.0,0.0,0.0,0.0,7.7384,7.205,6.9733,7.0543,7.1012,7.0707,0.0,0.0,0.0,0.0,0.0,0.0,0.0,0.0,0.0,0.0,0.0,0.0,0.0,0.0,0.0,0.0,0.0,0.0,0.0,0.0,0.0,0.0,0.0,0.0,0.0,0.0,0.0,0.0,0.0,0.0,0.0,0.0,0.0,0.0,0.0,0.0,0.0,0.0,0.0,0.0,0.0,0.0,0.0,0.0,0.0,0.0,0.0,0.0,0.0,0.0,0.0,0.0,0.0,0.0,0.0,0.0,0.0,0.0,0.0,0.0,0.0,0.0,0.0,0.0,0.0,0.0,0.0,0.0,0.0,0.0,0.0,0.0,0.0,0.0,0.0,0.0,0.0,0.0,0.0,0.0,0.0,0.0,0.0,0.0,0.0,0.0,0.0,0.0,0.0,0.0,0.0,0.0,0.0,0.0,0.0,0.0,0.0,0.0,0.0,0.0,0.0,0.0,0.0,0.0,0.0,0.0,0.0,0.0,0.0,7.8227,7.7903,7.7578,7.7169,7.5544,7.4128,0.0,0.0,0.0,0.0,0.0,0.0,0.0,0.0,0.0,0.0,0.0,0.0,0.0,0.0,0.0,0.0,0.0,0.0,0.0,0.0,0.0,0.0,0.0,0.0,0.0,0.0,0.0,0.0,0.0,0.0,0.0,0.0,0.0,0.0,0.0,0.0,0.0,0.0,0.0,0.0,0.0,0.0,0.0,0.0,0.0,0.0,0.0,0.0,0.0,0.0,0.0,0.0,0.0,0.0,0.0,0.0,0.0,0.0,0.0,0.0,0.0,0.0,0.0,0.0,0.0,0.0,0.0,0.0,0.0,0.0,0.0,0.0,0.0,0.0,0.0,0.0,0.0,0.0,0.0,0.0,0.0,0.0,0.0,0.0,0.0,0.0,0.0,0.0,0.0,0.0,0.0,0.0,0.0,0.0,0.0,0.0,0.0,0.0,0.0,0.0,0.0,0.0,0.0,0.0,0.0,0.0,0.0,0.0,7.9486,7.8662,8.1489,8.2627,8.1819,8.0035,7.7783,0.0,0.0,0.0,0.0,0.0,0.0,0.0,0.0,0.0,0.0,0.0,0.0,0.0,0.0,0.0,0.0,0.0,0.0,0.0,0.0,0.0,0.0,0.0,0.0,0.0,0.0,0.0,0.0,0.0,0.0,0.0,0.0,0.0,0.0,0.0,0.0,0.0,0.0,0.0,0.0,0.0,0.0,0.0,0.0,0.0,0.0,0.0,0.0,0.0,0.0,0.0,0.0,0.0,0.0,0.0,0.0,0.0,0.0,0.0,0.0,0.0,0.0,0.0,0.0,0.0,0.0,0.0,0.0,0.0,0.0,0.0,0.0,0.0,0.0,0.0,0.0,0.0,0.0,0.0,0.0,0.0,0.0,0.0,0.0,0.0,0.0,0.0,0.0,0.0,0.0,0.0,0.0,0.0,0.0,0.0,0.0,0.0,0.0,0.0,0.0,0.0,0.0,0.0,0.0,0.0,0.0,0.0,0.0,8.1819,7.9103,8.3508,8.5563,8.4866,8.3911,8.1204,0.0,0.0,0.0,0.0,0.0,0.0,0.0,0.0,0.0,0.0,0.0,0.0,0.0,0.0,0.0,0.0,0.0,0.0,0.0,0.0,0.0,0.0,0.0,0.0,0.0,0.0,0.0,0.0,0.0,0.0,0.0,0.0,0.0,0.0,0.0,0.0,0.0,0.0,0.0,0.0,0.0,0.0,0.0,0.0,0.0,0.0,0.0,0.0,0.0,0.0,0.0,0.0,0.0,0.0,0.0,0.0,0.0,0.0,0.0,0.0,0.0,0.0,0.0,0.0,0.0,0.0,0.0,0.0,0.0,0.0,0.0,0.0,0.0,0.0,0.0,0.0,0.0,0.0,0.0,0.0,0.0,0.0,0.0,0.0,0.0,0.0,0.0,0.0,0.0,0.0,0.0,0.0,0.0,0.0,0.0,0.0,0.0,0.0,0.0,0.0,0.0,0.0,0.0,0.0,0.0,0.0,0.0,0.0,8.1489,8.1489,8.4903,8.6664,8.6481,8.4499,8.1905,0.0,0.0,0.0,0.0,0.0,0.0,0.0,0.0,0.0,0.0,0.0,0.0,0.0,0.0,0.0,0.0,0.0,0.0,0.0,0.0,0.0,0.0,0.0,0.0,0.0,0.0,0.0,0.0,0.0,0.0,0.0,0.0,0.0,0.0,0.0,0.0,0.0,0.0,0.0,0.0,0.0,0.0,0.0,0.0,0.0,0.0,0.0,0.0,5.4092,0.0,0.0,0.0,0.0,0.0,0.0,0.0,0.0,0.0,0.0,0.0,0.0,0.0,0.0,0.0,0.0,0.0,0.0,0.0,0.0,0.0,0.0,0.0,0.0,0.0,0.0,0.0,0.0,0.0,0.0,0.0,0.0,0.0,0.0,0.0,0.0,0.0,0.0,0.0,0.0,0.0,0.0,0.0,0.0,0.0,0.0,0.0,0.0,0.0,0.0,0.0,0.0,0.0,0.0,0.0,0.0,0.0,0.0,0.0,8.1929,8.281,8.5563,8.7031,8.6958,8.538,8.3548,0.0,0.0,0.0,0.0,0.0,0.0,0.0,0.0,0.0,0.0,0.0,0.0,0.0,0.0,0.0,0.0,0.0,0.0,0.0,0.0,0.0,0.0,0.0,0.0,0.0,0.0,0.0,0.0,0.0,0.0,0.0,0.0,0.0,0.0,0.0,0.0,0.0,0.0,0.0,0.0,0.0,0.0,0.0,0.0,0.0,0.0,0.0,0.0,0.0,0.0,0.0,0.0,0.0,0.0,0.0,0.0,0.0,0.0,0.0,0.0,0.0,0.0,0.0,0.0,0.0,0.0,0.0,0.0,0.0,0.0,0.0,0.0,0.0,0.0,0.0,0.0,0.0,0.0,0.0,0.0,0.0,0.0,0.0,0.0,0.0,0.0,0.0,0.0,0.0,0.0,0.0,0.0,0.0,0.0,0.0,0.0,0.0,0.0,0.0,0.0,0.0,0.0,0.0,0.0,0.0,0.0,0.0,8.1158,8.27,8.3801,8.5894,8.7031,8.6995,8.6224,8.5052,8.3451,0.0,0.0,0.0,0.0,0.0,0.0,0.0,0.0,0.0,0.0,0.0,0.0,0.0,0.0,0.0,0.0,0.0,0.0,0.0,0.0,0.0,0.0,0.0,0.0,0.0,0.0,0.0,0.0,0.0,0.0,0.0,0.0,0.0,0.0,0.0,0.0,0.0,0.0,5.734,5.816,0.0,0.0,0.0,0.0,0.0,0.0,0.0,0.0,5.5513,0.0,0.0,0.0,0.0,0.0,0.0,0.0,0.0,0.0,0.0,0.0,0.0,0.0,0.0,0.0,0.0,0.0,0.0,0.0,0.0,0.0,0.0,0.0,0.0,0.0,0.0,0.0,0.0,0.0,0.0,0.0,0.0,0.0,0.0,0.0,0.0,0.0,0.0,0.0,0.0,0.0,0.0,0.0,0.0,0.0,0.0,0.0,0.0,0.0,0.0,0.0,0.0,0.0,0.0,0.0,0.0,8.1562,8.2003,8.3251,8.5343,8.6444,8.7031,8.6995,8.6224,8.5032,8.3447,0.0,0.0,0.0,0.0,0.0,0.0,0.0,0.0,0.0,0.0,0.0,0.0,0.0,0.0,0.0,0.0,0.0,0.0,0.0,0.0,0.0,0.0,0.0,0.0,0.0,0.0,0.0,0.0,0.0,0.0,0.0,0.0,0.0,0.0,0.0,0.0,0.0,0.0,0.0,6.441,6.6195,0.0,0.0,0.0,0.0,0.0,0.0,0.0,0.0,5.545,0.0,0.0,0.0,0.0,0.0,0.0,0.0,0.0,0.0,0.0,0.0,0.0,0.0,0.0,0.0,0.0,0.0,0.0,0.0,0.0,0.0,0.0,0.0,0.0,0.0,0.0,0.0,0.0,0.0,0.0,0.0,0.0,0.0,0.0,0.0,0.0,0.0,0.0,0.0,0.0,0.0,0.0,0.0,0.0,0.0,0.0,0.0,0.0,0.0,0.0,0.0,0.0,0.0,0.0,0.0,8.2631,8.281,8.3985,8.6334,8.6811,8.7031,8.696,8.5034,8.3771,0.0,0.0,0.0,0.0,0.0,0.0,0.0,0.0,0.0,0.0,0.0,0.0,0.0,0.0,0.0,0.0,0.0,0.0,0.0,0.0,0.0,0.0,0.0,0.0,0.0,0.0,0.0,0.0,0.0,0.0,0.0,0.0,0.0,0.0,0.0,0.0,0.0,0.0,0.0,0.0,6.5682,6.6981,6.5181,0.0,0.0,0.0,0.0,0.0,0.0,5.8343,5.7325,0.0,0.0,0.0,0.0,0.0,0.0,0.0,0.0,0.0,0.0,0.0,0.0,0.0,0.0,0.0,0.0,0.0,0.0,0.0,0.0,0.0,0.0,0.0,0.0,0.0,0.0,0.0,0.0,0.0,0.0,0.0,0.0,0.0,0.0,0.0,0.0,0.0,0.0,0.0,0.0,0.0,0.0,0.0,0.0,0.0,0.0,0.0,0.0,0.0,0.0,0.0,0.0,0.0,0.0,0.0,8.3036,8.3435,8.4676,8.683,8.6757,8.6684,8.6647,8.4282,8.3048,0.0,0.0,0.0,0.0,0.0,0.0,0.0,0.0,0.0,0.0,0.0,0.0,0.0,0.0,0.0,0.0,0.0,0.0,0.0,0.0,0.0,0.0,0.0,0.0,0.0,0.0,0.0,0.0,0.0,0.0,0.0,0.0,0.0,0.0,0.0,0.0,0.0,0.0,0.0,0.0,0.0,6.7781,6.7256,6.7059,0.0,0.0,0.0,0.0,6.1139,6.1254,0.0,0.0,0.0,0.0,0.0,0.0,0.0,0.0,0.0,0.0,0.0,0.0,0.0,0.0,0.0,0.0,0.0,0.0,0.0,0.0,0.0,0.0,0.0,0.0,0.0,0.0,0.0,0.0,0.0,0.0,0.0,0.0,0.0,0.0,0.0,0.0,0.0,0.0,0.0,0.0,0.0,0.0,0.0,0.0,0.0,0.0,0.0,0.0,0.0,0.0,0.0,0.0,0.0,0.0,0.0,0.0,8.2167,8.353,8.5033,8.6608,8.6036,8.5678,8.5683,8.542,8.428,0.0,0.0,0.0,0.0,0.0,0.0,0.0,0.0,0.0,0.0,0.0,0.0,0.0,0.0,0.0,0.0,0.0,0.0,0.0,0.0,0.0,0.0,0.0,0.0,0.0,0.0,0.0,0.0,0.0,0.0,0.0,0.0,0.0,0.0,0.0,0.0,0.0,0.0,0.0,0.0,0.0,7.3591,7.1566,7.1987,7.1747,0.0,0.0,6.6279,6.6519,6.7336,0.0,0.0,0.0,0.0,0.0,0.0,0.0,0.0,0.0,0.0,0.0,0.0,0.0,0.0,0.0,0.0,0.0,0.0,0.0,0.0,0.0,0.0,0.0,0.0,0.0,0.0,0.0,0.0,0.0,0.0,0.0,0.0,0.0,0.0,0.0,0.0,0.0,0.0,0.0,0.0,0.0,0.0,0.0,0.0,0.0,0.0,0.0,0.0,0.0,0.0,0.0,0.0,0.0,0.0,0.0,8.0823,8.3244,8.4385,8.5526,8.6631,8.6773,8.6381,8.5532,8.385,8.2584,0.0,0.0,0.0,0.0,0.0,0.0,0.0,0.0,0.0,0.0,0.0,0.0,0.0,0.0,0.0,0.0,0.0,0.0,0.0,0.0,0.0,0.0,0.0,0.0,0.0,0.0,0.0,0.0,0.0,0.0,0.0,0.0,0.0,0.0,0.0,0.0,0.0,0.0,0.0,0.0,0.0,0.0,7.2398,7.337,0.0,0.0,0.0,6.9604,7.0187,0.0,0.0,0.0,0.0,0.0,0.0,0.0,0.0,0.0,0.0,0.0,0.0,0.0,0.0,0.0,0.0,0.0,0.0,0.0,0.0,0.0,0.0,0.0,0.0,0.0,0.0,0.0,0.0,0.0,0.0,0.0,0.0,0.0,0.0,0.0,0.0,0.0,0.0,0.0,0.0,0.0,0.0,0.0,0.0,0.0,0.0,0.0,0.0,0.0,0.0,0.0,0.0,0.0,0.0,0.0,0.0,0.0,8.3889,8.4915,8.5976,8.7143,8.7497,8.6966,8.5454,8.2979,0.0,0.0,0.0,0.0,0.0,0.0,0.0,0.0,0.0,0.0,0.0,0.0,0.0,0.0,0.0,0.0,0.0,0.0,0.0,0.0,0.0,0.0,0.0,0.0,0.0,0.0,0.0,6.1737,0.0,0.0,0.0,0.0,0.0,0.0,0.0,0.0,0.0,0.0,0.0,0.0,0.0,0.0,7.4395,7.3566,7.5254,7.6272,0.0,0.0,7.3249,7.3284,7.331,7.1422,0.0,0.0,0.0,0.0,0.0,0.0,0.0,0.0,0.0,0.0,0.0,0.0,0.0,0.0,0.0,0.0,0.0,0.0,0.0,0.0,0.0,0.0,0.0,0.0,0.0,0.0,0.0,0.0,0.0,0.0,0.0,0.0,0.0,0.0,0.0,0.0,0.0,0.0,0.0,0.0,0.0,0.0,0.0,0.0,0.0,0.0,0.0,0.0,0.0,0.0,0.0,0.0,0.0,0.0,0.0,8.3002,8.4454,8.6301,8.836,8.7807,8.6736,8.5249,8.4402,8.325,0.0,0.0,0.0,0.0,0.0,0.0,0.0,0.0,0.0,0.0,0.0,0.0,0.0,0.0,0.0,0.0,0.0,0.0,0.0,0.0,0.0,0.0,0.0,0.0,0.0,0.0,0.0,0.0,0.0,0.0,0.0,0.0,0.0,0.0,0.0,0.0,0.0,0.0,0.0,0.0,0.0,7.5911,7.6495,7.9292,8.1052,0.0,0.0,7.7465,7.6041,7.8775,7.8017,6.9291,0.0,0.0,0.0,0.0,0.0,0.0,0.0,0.0,0.0,0.0,0.0,0.0,0.0,0.0,0.0,0.0,0.0,0.0,0.0,0.0,0.0,0.0,0.0,0.0,0.0,0.0,0.0,0.0,0.0,0.0,0.0,0.0,0.0,0.0,0.0,0.0,0.0,0.0,0.0,0.0,0.0,0.0,0.0,0.0,0.0,0.0,0.0,0.0,0.0,0.0,0.0,0.0,0.0,8.1672,8.4259,8.5811,8.7674,8.9847,8.9674,8.8812,8.7329,8.5686,8.3642,0.0,0.0,0.0,0.0,0.0,0.0,0.0,0.0,0.0,0.0,0.0,0.0,0.0,0.0,0.0,0.0,0.0,0.0,0.0,0.0,0.0,0.0,0.0,0.0,0.0,0.0,0.0,0.0,6.2358,6.2461,6.3082,0.0,0.0,0.0,0.0,0.0,0.0,0.0,0.0,0.0,0.0,7.764,7.9017,8.1074,0.0,0.0,8.1776,8.0465,8.0327,7.9155,7.6292,7.0463,6.7217,0.0,0.0,0.0,0.0,0.0,0.0,0.0,0.0,0.0,0.0,0.0,0.0,0.0,0.0,0.0,0.0,0.0,0.0,0.0,0.0,0.0,0.0,0.0,0.0,0.0,0.0,0.0,0.0,0.0,0.0,0.0,0.0,0.0,0.0,0.0,0.0,0.0,0.0,0.0,0.0,0.0,0.0,0.0,0.0,0.0,0.0,0.0,0.0,0.0,0.0,0.0,0.0,8.2293,8.5811,8.7122,8.8881,9.1123,9.1157,9.0329,8.8639,8.6605,8.419,0.0,0.0,0.0,0.0,0.0,0.0,0.0,0.0,0.0,0.0,0.0,0.0,0.0,0.0,0.0,0.0,0.0,0.0,0.0,0.0,0.0,0.0,0.0,0.0,0.0,0.0,0.0,0.0,6.2599,6.2841,6.4152,0.0,0.0,0.0,0.0,0.0,0.0,0.0,0.0,0.0,0.0,7.9486,8.0488,8.2328,8.3811,8.4432,8.2776,8.1535,8.1845,7.9396,7.5844,7.1153,0.0,0.0,0.0,0.0,0.0,0.0,0.0,0.0,0.0,0.0,0.0,0.0,0.0,0.0,0.0,0.0,0.0,0.0,0.0,0.0,0.0,0.0,0.0,0.0,0.0,0.0,0.0,0.0,0.0,0.0,8.7432,0.0,0.0,0.0,0.0,0.0,0.0,0.0,0.0,0.0,0.0,0.0,0.0,0.0,0.0,0.0,0.0,0.0,0.0,0.0,0.0,0.0,0.0,8.4294,8.7329,8.8157,8.9674,9.1882,9.1985,9.0916,8.8743,8.7122,8.519,8.2845,0.0,0.0,0.0,0.0,0.0,0.0,0.0,0.0,0.0,0.0,0.0,0.0,0.0,0.0,0.0,0.0,0.0,0.0,0.0,0.0,0.0,0.0,0.0,0.0,0.0,0.0,6.6669,6.5531,6.491,0.0,0.0,0.0,0.0,0.0,0.0,0.0,0.0,0.0,0.0,7.7879,8.1466,8.081,8.3225,8.4604,8.3259,8.1707,8.0465,7.9844,8.0086,7.8223,0.0,0.0,0.0,0.0,0.0,0.0,0.0,0.0,0.0,0.0,0.0,0.0,0.0,0.0,0.0,0.0,0.0,0.0,0.0,0.0,0.0,0.0,0.0,0.0,0.0,0.0,0.0,8.8927,8.901,0.0,0.0,0.0,0.0,0.0,0.0,0.0,0.0,0.0,0.0,0.0,8.7501,8.8191,0.0,0.0,0.0,0.0,0.0,0.0,0.0,0.0,0.0,0.0,0.0,0.0,8.4639,8.8053,8.895,9.0674,9.3399,9.2985,9.2123,9.0881,8.8364,8.5052,8.0776,0.0,0.0,0.0,0.0,0.0,0.0,0.0,0.0,0.0,0.0,0.0,0.0,0.0,0.0,0.0,0.0,0.0,0.0,0.0,0.0,0.0,0.0,0.0,0.0,0.0,6.5979,0.0,0.0,0.0,0.0,0.0,0.0,0.0,0.0,0.0,0.0,0.0,7.2533,7.5326,7.8775,8.1466,8.2707,8.419,8.519,0.0,0.0,0.0,0.0,0.0,0.0,0.0,0.0,0.0,0.0,0.0,0.0,0.0,0.0,7.7136,7.0678,6.7988,6.6824,6.6784,0.0,0.0,0.0,0.0,0.0,0.0,0.0,0.0,0.0,0.0,0.0,0.0,0.0,0.0,8.989,0.0,8.8821,0.0,0.0,0.0,0.0,0.0,0.0,0.0,0.0,9.085,9.1109,9.0123,9.0847,9.0812,0.0,8.8846,8.7225,0.0,0.0,0.0,0.0,0.0,0.0,0.0,0.0,8.5466,8.8846,8.9985,9.1744,9.4123,9.3503,9.2744,9.195,8.8777,8.4777,8.0051,7.7741,7.5499,0.0,0.0,0.0,0.0,0.0,0.0,0.0,0.0,0.0,0.0,0.0,0.0,0.0,0.0,0.0,0.0,0.0,0.0,0.0,0.0,0.0,0.0,0.0,6.6152,0.0,0.0,0.0,0.0,0.0,0.0,0.0,0.0,0.0,7.1084,7.2533,7.4705,7.7982,8.0155,8.2052,8.3776,0.0,0.0,0.0,0.0,0.0,0.0,0.0,7.812,7.7085,7.612,7.5533,7.574,7.8499,8.0534,7.9982,0.0,0.0,7.5188,7.2533,7.1256,7.1256,7.0843,7.0573,7.0849,7.1429,7.1981,0.0,0.0,0.0,0.0,0.0,0.0,0.0,0.0,9.0214,9.0856,0.0,8.9866,0.0,0.0,0.0,0.0,0.0,9.201,0.0,0.0,9.1993,9.2008,9.1123,9.195,9.1847,9.1088,9.1744,9.1261,8.9571,8.4673,0.0,0.0,0.0,0.0,0.0,0.0,8.6742,8.9674,9.1226,9.2744,9.4192,9.3537,9.2744,9.1882,8.8329,8.4604,8.0983,8.1259,7.9293,7.4326,7.6671,0.0,0.0,0.0,0.0,0.0,0.0,0.0,0.0,0.0,0.0,0.0,0.0,0.0,0.0,0.0,0.0,0.0,0.0,0.0,0.0,6.7532,0.0,0.0,0.0,0.0,0.0,0.0,0.0,0.0,0.0,0.0,7.2946,7.5464,7.812,8.0362,0.0,0.0,0.0,0.0,8.2983,8.3087,8.2397,8.1948,8.1983,8.2466,8.1845,7.9017,0.0,0.0,8.012,8.1569,8.2569,8.1121,8.219,8.3018,8.2811,7.9603,7.7258,7.7075,7.5016,7.3429,7.3912,7.4947,7.5386,10.251,0.0,0.0,0.0,0.0,9.8541,9.7951,9.5891,9.5786,9.5541,9.5031,9.2212,0.0,0.0,0.0,0.0,0.0,0.0,9.4752,9.4279,9.6324,9.6401,9.4951,9.6745,9.6952,9.571,9.4813,9.3641,9.2054,8.9502,8.7398,8.5811,0.0,0.0,0.0,0.0,8.8019,9.0398,9.2019,9.3261,9.4261,9.4054,9.3054,9.1192,8.8536,8.5811,8.3121,8.119,7.9707,7.8672,7.6395,0.0,0.0,0.0,0.0,0.0,0.0,0.0,0.0,0.0,0.0,0.0,0.0,0.0,0.0,0.0,0.0,0.0,0.0,0.0,6.9704,6.9532,6.9118,0.0,0.0,0.0,0.0,0.0,0.0,0.0,0.0,0.0,7.7879,7.8603,7.9707,0.0,0.0,8.3776,8.3983,8.3845,8.4087,8.519,8.4708,0.0,0.0,8.35,8.2604,8.1741,8.3259,8.4639,8.5087,8.5259,8.519,8.4708,8.5018,8.5156,8.4501,8.2362,8.0396,7.9776,7.9741,7.981,7.9638,8.05,8.119,10.7004,10.3435,10.2804,10.1679,10.045,10.1769,10.0949,9.8726,9.8586,9.8288,9.7797,9.4718,9.4301,9.5856,9.4356,0.0,0.0,0.0,9.6441,9.6904,9.7869,9.8304,9.8366,9.94,9.9435,9.8504,9.7331,9.6089,9.4882,9.3365,9.164,8.964,0.0,0.0,8.6777,8.7812,8.9295,9.1226,9.2778,9.3951,9.471,9.4434,9.3158,9.0881,8.9467,8.757,8.5018,8.319,8.1569,8.0224,7.7844,7.5878,0.0,0.0,0.0,0.0,0.0,0.0,0.0,0.0,0.0,0.0,0.0,6.8635,0.0,0.0,0.0,0.0,6.8773,6.9049,6.9049,6.9291,0.0,0.0,0.0,0.0,0.0,0.0,0.0,7.2671,7.474,7.7189,8.0224,8.1293,8.2397,8.4052,8.4121,8.4225,8.4846,0.0,8.4466,8.5708,8.5501,8.5294,8.557,8.488,8.4259,8.4259,8.4984,8.588,8.6742,8.6605,8.6329,8.6294,8.6294,8.6156,8.5708,8.4501,8.3225,8.2224,8.2673,8.3156,8.2742,8.3397,8.388,11.105,10.9014,10.7377,10.5306,10.3186,10.3853,10.2132,9.8937,9.9604,9.9815,9.9499,9.7287,9.7552,9.9666,9.889,0.0,9.7183,9.6693,9.7365,9.877,9.78,9.8627,10.0987,10.0401,10.0056,9.9987,9.9262,9.8607,9.7883,9.6469,9.4986,9.3434,9.0709,8.8777,8.7812,8.9157,9.064,9.2192,9.3709,9.4813,9.5434,9.4744,9.3261,9.0985,9.0778,8.9364,8.657,8.6191,8.419,8.0155,8.0224,7.8499,7.4361,0.0,0.0,0.0,0.0,0.0,0.0,0.0,0.0,0.0,0.0,0.0,0.0,0.0,0.0,0.0,6.7221,0.0,6.7256,6.8014,0.0,0.0,0.0,7.0325,7.1532,7.1843,7.2774,7.4903,0.0,0.0,8.0776,8.3362,8.5397,8.6191,8.5087,8.4708,8.6122,8.5121,8.4466,8.5397,8.5397,8.5639,8.6294,8.6225,8.6122,8.6225,8.6329,8.6329,8.6398,8.6225,8.6225,8.6191,8.6156,8.6053,8.6087,8.5915,8.5777,8.4294,8.4156,8.419,8.4087,8.4225,8.4294,11.3543,11.2911,11.1093,10.815,10.473,10.5433,10.4906,10.3607,10.3747,10.315,10.1957,10.0236,9.8393,9.6625,9.7202,9.7727,9.8208,9.8637,9.9862,10.1544,10.1151,10.0976,10.109,10.147,10.1332,10.0814,10.0608,10.0435,10.0228,9.9297,9.8055,9.6641,9.5882,9.3675,9.0157,9.095,9.2192,9.3709,9.5193,9.6055,9.6193,9.5503,9.402,9.1778,9.0571,8.9088,8.7225,8.5501,8.4052,8.2949,8.0362,7.8154,7.6499,7.6223,0.0,0.0,0.0,0.0,0.0,0.0,0.0,0.0,0.0,7.0153,7.0912,0.0,7.0774,0.0,6.9256,6.9566,6.9601,7.1291,0.0,0.0,7.2877,7.4154,7.336,7.4809,7.6292,7.743,7.8741,8.0465,8.288,8.3845,8.4811,8.6087,8.6018,8.588,8.6225,8.6018,8.6018,8.6674,8.6811,8.6949,8.7018,8.6674,8.6467,8.7053,8.6674,8.6501,8.7053,8.6191,8.5466,8.5432,8.4949,8.4639,8.4604,8.5018,8.5328,8.5052,8.5363,8.557,8.5052,8.5363,8.557,11.4736,11.4315,11.294,11.0557,10.782,10.8033,10.7519,10.6538,10.671,10.5678,10.3853,10.2549,10.0914,9.9177,9.9561,10.0116,10.0788,10.0926,10.174,10.3056,10.251,10.2125,10.2056,10.2125,10.1987,10.1573,10.1573,10.1401,10.1056,10.0642,9.9642,9.8193,9.8159,9.6745,9.3985,9.3951,9.4606,9.5779,9.6607,9.7021,9.6986,9.6262,9.4951,9.3089,9.1537,8.9536,8.7018,8.5397,8.4087,8.3018,8.1052,7.9086,7.7282,7.6868,7.5982,0.0,0.0,0.0,0.0,0.0,0.0,0.0,0.0,0.0,0.0,0.0,7.067,7.0774,7.0532,7.0946,7.2291,7.3878,7.4326,7.3153,7.4878,7.5913,7.5361,7.674,7.8327,7.9741,8.0845,8.2259,8.4259,8.4846,8.5328,8.6191,8.6294,8.6294,8.6294,8.6294,8.6467,8.6846,8.6915,8.6915,8.6915,8.6294,8.6053,8.6674,8.6294,8.5949,8.6329,8.5777,8.5087,8.4742,8.4294,8.4156,8.4466,8.4535,8.4846,8.5501,8.5466,8.5397,8.5639,8.6018,8.6087,11.5193,11.4491,11.3667,11.2475,11.1201,11.0678,10.9604,10.8115,10.8406,10.7434,10.5552,10.4442,10.3888,10.3726,10.345,10.3323,10.353,10.2978,10.316,10.3793,10.2899,10.2746,10.3263,10.2746,10.2401,10.2332,10.2332,10.1953,10.1228,10.1125,10.0332,9.8986,9.8952,9.8607,9.7952,9.7365,9.7331,9.7814,9.7917,9.7917,9.7814,9.7055,9.5779,9.4054,9.2502,8.9916,8.6191,8.5294,8.3949,8.1948,8.1776,8.0534,7.781,7.7051,7.6637,0.0,7.5869,0.0,0.0,0.0,0.0,0.0,0.0,0.0,0.0,6.9739,7.0187,7.3015,7.1877,7.205,7.4662,7.5696,7.5982,7.5317,7.612,7.6947,7.7603,7.8361,7.9638,8.1707,8.3087,8.419,8.5052,8.5777,8.6156,8.626,8.6294,8.626,8.6156,8.6225,8.6329,8.6294,8.6294,8.6363,8.6156,8.5639,8.5397,8.5846,8.5466,8.5052,8.5087,8.4949,8.4639,8.4052,8.3845,8.4018,8.4673,8.4294,8.4432,8.5397,8.4811,8.457,8.5673,8.5915,8.5846,11.5509,11.5272,11.3972,11.2975,11.2382,11.1105,10.9443,10.7657,10.7715,10.7705,10.7555,10.646,10.547,10.4643,10.4252,10.3834,10.3388,10.3541,10.3838,10.4384,10.4151,10.3746,10.3332,10.3815,10.3712,10.3125,10.3056,10.2677,10.1987,10.1366,10.0608,9.9711,9.9676,9.9607,9.9504,0.0,0.0,0.0,9.9193,9.9193,9.8573,9.7848,9.5848,9.2537,9.095,0.0,8.4673,8.3707,8.2845,8.1879,8.1776,0.0,0.0,0.0,0.0,0.0,0.0,0.0,0.0,0.0,0.0,0.0,7.6878,7.543,7.4188,7.3766,7.4395,7.612,7.4938,7.4248,7.4834,7.6189,7.6947,7.6834,7.8568,7.9844,7.9936,8.0672,8.1569,8.2535,8.2983,8.3638,8.4984,8.5328,8.5639,8.6122,8.6294,8.6053,8.5466,8.588,8.6294,8.6294,8.6225,8.6018,8.5501,8.5259,8.4915,8.4604,8.4363,8.4259,8.4225,8.3742,8.3362,8.3121,8.3087,8.2949,8.2638,8.3259,8.388,8.3638,8.3811,8.4294,8.519,8.488,8.4604,11.5491,0.0,11.3735,11.2878,0.0,11.0521,10.9113,10.8126,10.8161,10.7774,10.7129,10.6533,10.5729,10.4847,10.412,10.3714,10.3536,10.3571,10.3511,10.3367,10.3712,10.3677,10.3298,10.3712,10.3884,10.3884,10.3884,10.3505,10.2711,10.1987,10.1228,10.047,10.009,10.009,10.047,10.0849,10.0676,9.9918,9.9918,9.9711,9.9331,9.8607,9.6779,9.3778,0.0,0.0,0.0,0.0,0.0,0.0,0.0,0.0,0.0,0.0,0.0,8.0707,8.0983,8.119,8.119,8.119,8.1052,8.0672,8.0258,7.8568,7.5188,7.5292,7.5982,7.7041,7.6844,7.6947,7.7661,7.9074,8.0051,8.0086,8.1397,8.2293,8.2328,8.2638,8.319,8.3845,8.3707,8.3914,8.5052,8.4846,8.4777,8.5121,8.5501,8.5501,8.4846,8.5259,8.5742,8.5742,8.5397,8.519,8.5121,8.4466,8.4156,8.3949,8.3707,8.35,8.3466,8.3156,8.2811,8.2466,8.2362,8.2293,8.2431,8.2707,8.3018,8.3293,8.3156,8.3225,8.3914,8.4018,8.4121,11.5305,11.4852,11.3595,11.2816,11.2315,11.0174,10.9104,10.8826,0.0,0.0,0.0,10.6138,10.5584,10.4728,10.3763,10.3477,10.3655,10.3417,10.2953,10.2401,10.3022,10.3229,10.3091,10.3091,10.3436,10.4057,10.4194,10.385,10.3091,10.247,10.1815,10.1056,10.0401,10.0573,10.1401,10.1366,10.1332,10.1435,10.0435,9.9883,9.9883,9.9159,9.771,9.5434,9.333,9.0123,8.5777,8.4397,8.2949,8.1328,8.1983,8.1983,8.1155,8.2328,8.2845,8.2293,8.2914,8.3362,8.35,8.3397,8.2983,8.2224,8.288,8.1328,7.6637,7.7051,7.7775,7.8396,7.9017,7.9913,8.1121,8.2328,8.3087,8.3121,8.3673,8.3983,8.3983,8.4018,8.419,8.4777,8.4363,8.4294,8.5052,8.4673,8.4225,8.4328,8.4915,8.4846,8.4156,8.4501,8.4984,8.4949,8.4535,8.4294,8.4432,8.3845,8.319,8.3431,8.3052,8.2742,8.2707,8.2707,8.2466,8.1983,8.1879,8.219,8.2569,8.2397,8.2362,8.3431,8.2673,8.1983,8.2569,8.319,8.3604,11.474,11.4641,11.4113,11.3627,11.3122,11.1615,11.0185,10.8873,10.787,10.768,10.7966,10.6379,10.5256,10.4496,10.3703,10.3358,10.3358,10.3298,10.3229,10.3125,10.3229,10.2953,10.2332,10.2332,10.2401,10.2539,10.316,10.3056,10.2401,10.2263,10.1815,10.1159,10.0952,10.1573,10.2815,10.2332,10.2332,10.2918,10.0918,9.9883,9.9883,9.9159,9.771,9.5468,9.3813,9.1123,8.7294,8.688,8.5777,8.3707,8.4294,8.4087,8.2742,8.3431,8.3811,8.3742,8.4432,8.5156,8.5777,8.5225,8.4535,8.3845,8.4432,8.3983,8.2052,8.2466,8.2949,8.3052,8.2983,8.3293,8.3535,8.3707,8.3845,8.388,8.3949,8.4018,8.4087,8.4087,8.4156,8.4294,8.4087,8.4294,8.4949,8.4949,8.4777,8.4949,8.4742,8.4604,8.3604,8.3707,8.4121,8.419,8.4121,8.3811,8.3466,8.3121,8.2707,8.219,8.2086,8.2052,8.2052,8.2052,8.1983,8.181,8.2224,8.2431,8.2155,8.2431,8.2466,8.2431,8.1948,8.1879,8.2052,8.2155,8.2397,11.4485,11.4223,11.3712,11.3024,11.2164,11.0669,10.9678,10.8885,10.7492,10.7105,10.7312,10.6153,10.5195,10.4401,10.3229,10.2918,10.3263,10.247,10.2298,10.2677,10.2677,10.2711,10.278,10.278,10.2987,10.3436,10.3746,10.3746,10.3436,10.3022,10.2401,10.1711,10.1677,10.2022,10.2642,10.2746,10.278,10.2677,10.1642,10.0952,10.0539,10.0194,9.8952,9.671,9.5158,9.2951,9.0019,8.9088,8.7984,8.657,8.6432,8.6053,8.5432,8.5673,8.5846,8.588,8.6605,8.7191,8.7536,8.6846,8.626,8.588,8.5811,8.5535,8.4811,8.4673,8.4466,8.4052,8.4018,8.4018,8.4018,8.4397,8.4673,8.4673,8.4984,8.5259,8.5259,8.5259,8.5087,8.4708,8.4294,8.4156,8.4501,8.388,8.3569,8.3811,8.3673,8.3225,8.2914,8.2811,8.2983,8.3293,8.3087,8.2914,8.2845,8.2535,8.219,8.1845,8.1776,8.1776,8.1776,8.1776,8.1776,8.181,8.2121,8.2155,8.181,8.2052,8.2086,8.1948,8.1776,8.1776,8.1776,8.1776,8.1914,11.4228,11.3899,11.3311,11.2386,11.1196,11.0058,10.9265,10.8644,10.7299,10.6643,10.6402,10.585,10.5091,10.4125,10.2953,10.2677,10.2815,10.1677,10.1504,10.2125,10.2194,10.247,10.2987,10.3022,10.3367,10.3953,10.4125,10.4229,10.4125,10.3574,10.2987,10.2504,10.2435,10.2504,10.2711,10.3263,10.3263,10.2746,10.2539,10.1987,10.109,10.0918,9.9814,9.7779,9.6538,9.4848,9.264,9.1364,9.0295,8.9398,8.8605,8.8191,8.8157,8.8191,8.8191,8.8226,8.8915,8.9122,8.8639,8.8191,8.7777,8.7432,8.688,8.6536,8.6501,8.588,8.5225,8.4639,8.4604,8.457,8.4673,8.5087,8.5466,8.5466,8.5949,8.6225,8.6294,8.6294,8.6018,8.5294,8.4501,8.4018,8.3776,8.288,8.2431,8.2811,8.2259,8.2086,8.2466,8.2121,8.2121,8.2328,8.2155,8.2086,8.2535,8.2224,8.1845,8.1776,8.1776,8.1776,8.1776,8.1776,8.1776,8.181,8.181,8.1845,8.181,8.181,8.181,8.1776,8.1776,8.1776,8.1776,8.1776,8.1914,11.3642,11.3642,11.3538,11.2645,11.1334,11.1058,10.9816,10.8057,10.7092,10.6333,10.5781,10.5643,10.4815,10.3505,10.3229,10.2884,10.2366,10.1435,10.1504,10.2194,10.2194,10.2229,10.2401,10.2366,10.2332,10.2573,10.3194,10.3539,10.3539,10.3367,10.3229,10.3194,10.3194,10.3505,10.416,10.4298,10.4298,10.4229,10.3574,10.2504,10.1125,10.0366,9.9262,9.7745,9.7538,9.64,9.4227,9.3951,9.3192,9.1778,9.0916,9.0502,9.0502,9.0502,9.0467,9.0502,9.1192,9.0812,8.8915,8.9157,8.8846,8.7605,8.7363,8.726,8.7225,8.6605,8.6191,8.6053,8.6053,8.5984,8.6087,8.6122,8.6122,8.6122,8.6225,8.6294,8.6294,8.6294,8.6018,8.5259,8.4535,8.4018,8.3949,8.3225,8.2811,8.2742,8.2224,8.1845,8.1983,8.1914,8.181,8.1914,8.181,8.1845,8.1948,8.1879,8.1776,8.1776,8.1776,8.1776,8.1776,8.1776,8.1776,8.1776,8.1776,8.1776,8.1776,8.1776,8.1776,8.1776,8.1776,8.1776,8.1776,8.1776,8.1983,11.3576,11.3576,11.3576,11.2714,11.1265,10.9885,10.8782,10.785,10.6574,10.5884,10.5643,10.5609,10.5022,10.3988,10.3505,10.3332,10.3436,10.2263,10.2401,10.3401,10.3056,10.3091,10.3505,10.3539,10.3539,10.3539,10.385,10.3988,10.3919,10.3505,10.3505,10.3884,10.3539,10.3677,10.4401,10.447,10.4263,10.3746,10.3022,10.2125,10.1194,10.0745,10.009,9.9021,9.8159,9.7296,9.6331,9.5434,9.4641,9.402,9.3261,9.264,9.2157,9.1744,9.1502,9.1537,9.1813,9.1606,9.0674,9.0054,8.9226,8.8191,8.7674,8.726,8.6811,8.6467,8.6467,8.6846,8.657,8.6294,8.6329,8.6329,8.6294,8.6294,8.6294,8.6294,8.6294,8.6294,8.6018,8.5294,8.4915,8.4501,8.4018,8.3362,8.2742,8.2362,8.1948,8.181,8.1776,8.1776,8.1776,8.1776,8.1776,8.1776,8.1776,8.1776,8.1776,8.1776,8.1776,8.1776,8.1776,8.1776,8.1776,8.1776,8.1776,8.1776,8.1776,8.1776,8.1776,8.1776,8.1776,8.1776,8.1776,8.1776,8.1983,11.3311,11.2976,11.2703,11.1838,11.0541,10.892,10.785,10.7133,10.5651,10.4881,10.4709,10.4265,10.4055,10.3879,10.3668,10.385,10.3919,10.2573,10.2677,10.3953,10.2997,10.2891,10.3783,10.3445,10.3507,10.3851,10.3851,10.4097,10.4341,10.3919,10.3919,10.4298,10.3884,10.3884,10.4401,10.447,10.4194,10.3608,10.2677,10.1918,10.1401,10.0987,10.0366,9.9573,9.8573,9.7883,9.7641,9.64,9.571,9.5675,9.4779,9.4123,9.3744,9.302,9.264,9.2606,9.2399,9.2192,9.1985,9.095,8.9985,8.9226,8.8329,8.7501,8.6984,8.657,8.6674,8.726,8.6915,8.6639,8.6605,8.6605,8.6536,8.6363,8.6294,8.6294,8.6294,8.6294,8.6087,8.5604,8.5294,8.4811,8.3845,8.3018,8.2362,8.1948,8.181,8.1776,8.1776,8.1776,8.1776,8.1776,8.1776,8.1776,8.1776,8.1776,8.1776,8.1776,8.1776,8.1776,8.1776,8.1776,8.1776,8.1776,8.1776,8.1776,8.1776,8.1776,8.1776,8.1776,8.1776,8.1776,8.1776,8.1776,8.1776,11.2707,11.1234,11.0454,10.9709,10.9029,10.8793,10.7553,10.5445,10.4095,10.3139,10.237,10.112,10.1153,10.2458,10.3529,10.4022,10.3263,10.1869,10.1947,10.3057,10.1235,10.0976,10.2231,10.1053,10.1119,10.2431,10.2428,10.3034,10.4254,10.428,10.4496,10.4375,10.4185,10.428,10.4254,10.4193,10.4375,10.3849,10.255,10.2066,10.1824,10.0618,9.9584,9.9021,9.8745,9.84,9.7745,9.6883,9.6469,9.6469,9.5158,9.4606,9.5089,9.4537,9.4089,9.4054,9.3468,9.2744,9.2192,9.1882,9.1433,9.0605,8.9295,8.8501,8.8226,8.7225,8.688,8.7398,8.7467,8.7363,8.7363,8.726,8.6984,8.6398,8.6294,8.6294,8.6294,8.6294,8.6294,8.6053,8.5432,8.4466,8.3156,8.2328,8.1983,8.181,8.1776,8.1776,8.1776,8.1776,8.1776,8.1776,8.1776,8.1776,8.1776,8.1776,8.1776,8.1776,8.1776,8.1776,8.1776,8.1776,8.1776,8.1776,8.1776,8.1776,8.1776,8.1776,8.1776,8.1776,8.1776,8.1776,8.1776,8.1776,8.1776,10.9939,10.8901,10.7699,10.6814,10.602,10.5145,10.3968,10.2691,10.1722,10.1153,10.0853,10.028,10.0416,10.0919,10.145,10.2611,10.3711,10.1572,10.1224,10.2369,10.0844,10.0552,10.1319,10.0513,10.0579,10.1353,10.112,10.1186,10.1581,10.1647,10.1647,10.1712,10.1647,10.1647,10.1647,10.1647,10.1445,10.0907,9.9965,9.964,10.001,9.9049,9.8855,9.9446,9.9021,9.8676,9.84,9.7676,9.7262,9.7227,9.6227,9.5606,9.5331,9.471,9.4296,9.4261,9.402,9.3744,9.3399,9.2537,9.164,9.0847,8.9881,8.9088,8.8639,8.8122,8.8088,8.8605,8.8398,8.8191,8.8053,8.7708,8.7122,8.6467,8.6294,8.6294,8.6294,8.6294,8.6156,8.5535,8.457,8.3466,8.3018,8.2259,8.181,8.1776,8.1776,8.1776,8.1776,8.1776,8.1776,8.1776,8.1776,8.1776,8.1776,8.1776,8.1776,8.1776,8.1776,8.1776,8.1776,8.1776,8.1776,8.1776,8.1776,8.1681,8.1633,8.1728,8.1728,8.1633,8.1633,8.1776,8.1776,8.1776,8.1776,10.745,10.6827,10.52,10.4124,10.336,10.2362,10.1501,10.0736,9.9793,9.9388,9.9319,9.8932,9.8899,9.9249,9.8932,10.028,10.2649,10.0719,10.0418,10.1351,9.9844,9.9421,9.9807,9.9161,9.9161,9.998,10.0102,10.0076,10.0076,10.0076,10.0076,10.0144,10.0076,10.0076,10.0076,10.0076,9.9811,9.9281,9.8618,9.8387,9.8529,9.7854,9.7789,9.841,9.8479,9.8685,9.9124,9.8435,9.8055,9.7952,9.7296,9.6538,9.5779,9.5055,9.4641,9.4641,9.4641,9.4641,9.4468,9.3227,9.2123,9.1537,9.0398,8.9433,8.8984,8.8743,8.8984,8.9364,8.9295,8.895,8.8846,8.8467,8.7674,8.6639,8.6294,8.6294,8.6294,8.6294,8.5949,8.5225,8.3949,8.3087,8.2811,8.2224,8.1879,8.1776,8.1776,8.1776,8.1776,8.1776,8.1776,8.1776,8.1776,8.1776,8.1776,8.1776,8.1776,8.1728,8.1776,8.1776,8.1776,8.1776,8.1776,8.1776,8.1681,8.1585,8.1538,8.1633,8.1538,8.1359,8.1585,8.1776,8.1776,8.1776,8.1776,10.545,10.52,10.3137,10.1809,10.1211,10.105,10.07,9.9691,9.847,9.7897,9.7753,9.6497,9.6868,9.7423,9.6816,9.7528,9.9629,9.9302,9.9403,9.9972,9.7987,9.7476,9.8084,9.6816,9.6794,9.7995,9.9315,9.9937,9.9764,9.9728,9.9797,9.9937,9.9698,9.9527,9.9939,9.9665,9.9802,9.9434,9.8771,9.8316,9.7856,9.7028,9.6432,9.6194,9.7048,9.816,9.9489,9.9044,9.878,9.8711,9.809,9.7331,9.6469,9.5779,9.5365,9.5296,9.5331,9.5365,9.5193,9.3951,9.3089,9.2744,9.1088,9.0001,8.9741,8.9121,8.8984,8.9516,8.9413,8.9449,8.9467,8.9225,8.845,8.6777,8.6432,8.6432,8.6329,8.626,8.5984,8.5018,8.3673,8.2949,8.2742,8.2259,8.181,8.1776,8.1776,8.1776,8.1776,8.1776,8.1776,8.1776,8.1776,8.1776,8.1776,8.1776,8.1728,8.1728,8.1776,8.1776,8.1776,8.1776,8.1776,8.1728,8.1277,8.1131,8.0804,8.0853,8.0902,8.0853,8.1277,8.1728,8.1776,8.1776,8.1776,10.3068,10.2916,10.1329,9.9924,9.8908,9.8886,9.8212,9.7121,9.6529,9.638,9.6306,9.5887,9.5962,9.6358,9.6393,9.6994,9.7859,9.8052,9.8568,9.8932,9.7602,9.7145,9.7451,9.633,9.5962,9.6476,9.7338,9.7827,9.7901,9.7901,9.7827,9.7763,9.7387,9.7057,9.7162,9.7057,9.7057,9.6961,9.6383,9.6191,9.6517,9.5586,9.5151,9.5569,9.5673,9.5865,9.6283,9.8326,9.9481,9.9446,9.8849,9.7848,9.6745,9.6296,9.5917,9.5468,9.54,9.54,9.5296,9.4503,9.3882,9.3675,9.2675,9.1658,9.0704,8.9712,8.9261,8.9341,8.8519,8.7986,8.8711,8.8102,8.7538,8.7106,8.7053,8.6777,8.626,8.5397,8.4466,8.3707,8.2742,8.219,8.2121,8.1845,8.181,8.1681,8.1728,8.1728,8.1728,8.1681,8.1776,8.1776,8.1776,8.1681,8.1503,8.1311,8.1131,8.1083,8.1131,8.1407,8.1455,8.1503,8.1551,8.1407,8.0951,8.0474,8.009,8.019,8.029,8.0573,8.1034,8.1407,8.1681,8.1776,8.1776,10.1538,10.0716,9.961,9.8314,9.7082,9.7019,9.6545,9.5755,9.5691,9.5691,9.5691,9.5691,9.5691,9.5849,9.645,9.6766,9.6892,9.7745,9.8444,9.8725,9.7821,9.7303,9.7335,9.626,9.5849,9.6134,9.6545,9.6924,9.7177,9.7022,9.6945,9.6819,9.6066,9.5688,9.558,9.536,9.5234,9.5171,9.4902,9.47,9.4588,9.4205,9.393,9.4028,9.4141,9.419,9.4363,9.6675,9.7889,9.7787,9.7178,9.6297,9.545,9.5535,9.5545,9.5296,9.5538,9.5822,9.5444,9.4735,9.4206,9.3807,9.2698,9.1682,9.0688,8.9693,8.9013,8.9047,8.8377,8.8048,8.8865,8.8521,8.7825,8.7487,8.7057,8.6745,8.6106,8.485,8.3837,8.3183,8.2356,8.1805,8.1668,8.1763,8.1585,8.1311,8.1131,8.1131,8.1131,8.1083,8.1311,8.1503,8.1776,8.1551,8.1131,8.0853,8.0557,8.0424,8.0324,8.0622,8.0853,8.0853,8.0853,8.0523,8.014,7.9031,7.8577,7.9651,8.014,8.0474,8.0706,8.1407,8.1776,8.1776,8.1776,10.0811,9.8915,9.8188,9.7208,9.6007,9.5944,9.5944,9.5786,9.5786,9.5881,9.5913,9.6007,9.5944,9.6039,9.6797,9.7113,9.7145,9.8283,9.8852,9.8786,9.8251,9.7777,9.7019,9.6387,9.6355,9.6797,9.705,9.7429,9.7874,9.764,9.731,9.7232,9.6228,9.5524,9.5415,9.4869,9.4666,9.465,9.451,9.3962,9.29,9.3011,9.2824,9.185,9.2687,9.3148,9.3267,9.3752,9.4314,9.4483,9.4256,9.3893,9.3565,9.4073,9.4494,9.4327,9.5661,9.568,9.5337,9.4491,9.3913,9.3186,9.1683,9.0066,8.9873,8.8626,8.7919,8.821,8.8091,8.8413,8.9038,8.9143,8.8572,8.7701,8.6594,8.6079,8.5971,8.4567,8.3394,8.2965,8.2139,8.1151,8.0956,8.1166,8.0804,8.024,7.9939,7.9939,8.004,8.014,8.0573,8.0853,8.1034,8.0706,8.009,7.9735,7.9343,7.8577,7.8683,7.9154,7.9702,7.9753,7.9753,7.9412,7.8893,7.7828,7.7752,7.8841,7.9497,7.9582,8.0224,8.1311,8.1728,8.1681,8.1585,10.1348,10.0242,9.9073,9.7745,9.6576,9.6481,9.6481,9.6513,9.6481,9.6766,9.7145,9.724,9.7177,9.7335,9.7935,9.8283,9.8441,9.9168,9.9642,9.961,9.9452,9.8662,9.7745,9.7366,9.7257,9.7573,9.8363,9.901,9.8851,9.8598,9.847,9.8181,9.6834,9.5913,9.5555,9.5258,9.4963,9.4557,9.4495,9.4183,9.3452,9.2568,9.2165,9.2057,9.145,9.1256,9.0993,9.0275,9.1252,9.3595,9.3663,9.3171,9.2645,9.3204,9.3367,9.3168,9.3294,9.3484,9.3252,9.3083,9.2821,9.2559,9.148,9.0385,8.8798,8.7241,8.6307,8.5857,8.5213,8.53,8.6244,8.6862,8.6824,8.6642,8.5781,8.5258,8.4763,8.3616,8.2364,8.1319,8.0259,7.9613,7.9232,7.9202,7.9221,7.8874,7.8683,7.8716,7.8736,7.9154,7.9548,7.9446,7.9497,7.9291,7.8946,7.863,7.7936,7.6781,7.6725,7.7226,7.7795,7.8225,7.8172,7.7978,7.7303,7.6363,7.717,7.8205,7.8452,7.8908,8.0023,8.1166,8.1393,8.1393,8.1166,10.1222,9.9926,9.8852,9.7777,9.6861,9.6797,9.6797,9.6861,9.7113,9.7429,9.7777,9.784,9.784,9.7903,9.8504,9.8788,9.8915,9.9578,10.0052,10.0257,10.0146,9.923,9.8222,9.7782,9.7703,9.7797,9.8803,9.9271,9.9218,9.8899,9.8656,9.8462,9.7162,9.6088,9.5437,9.5065,9.463,9.4041,9.3917,9.3746,9.3139,9.2737,9.2334,9.216,9.1391,9.0898,9.0159,8.8651,8.8942,9.0666,9.1029,9.0773,9.0773,9.1583,9.2051,9.189,9.2431,9.2804,9.2444,9.2379,9.2216,9.1822,9.1101,8.9843,8.8322,8.6622,8.5158,8.4961,8.4033,8.4151,8.479,8.5168,8.5031,8.4769,8.4322,8.3972,8.3911,8.2473,8.1249,8.0245,7.9474,7.8658,7.8025,7.8146,7.7873,7.7434,7.717,7.717,7.7226,7.7936,7.8398,7.8217,7.8097,7.7957,7.7468,7.706,7.6556,7.5475,7.5156,7.5534,7.616,7.6692,7.6692,7.6468,7.5733,7.556,7.6613,7.7588,7.8291,7.9012,8.0057,8.0408,8.0458,8.0308,8.0174,10.0779,9.8883,9.8156,9.7461,9.6955,9.6829,9.6924,9.7145,9.7682,9.7998,9.8156,9.8093,9.8251,9.8061,9.8742,9.8899,9.9026,9.9467,9.9909,10.0127,10.0123,9.941,9.8421,9.8167,9.8069,9.8225,9.8613,9.933,9.9571,9.8838,9.8673,9.8745,9.7487,9.6305,9.5709,9.4919,9.4087,9.3594,9.3581,9.3273,9.2824,9.2855,9.2855,9.2406,9.1975,9.1329,9.019,8.8713,8.7951,8.8234,8.7481,8.7729,8.8298,8.9494,9.041,9.1109,9.1968,9.2409,9.2162,9.1825,9.1739,9.1013,8.9914,8.8898,8.789,8.6263,8.5055,8.4844,8.433,8.4137,8.4636,8.4435,8.4134,8.3727,8.2859,8.2622,8.2666,8.1328,7.9938,7.9841,7.9198,7.8467,7.8063,7.7853,7.7552,7.6714,7.6411,7.6411,7.649,7.6904,7.709,7.7017,7.6831,7.6692,7.6103,7.5475,7.4921,7.4176,7.3966,7.4207,7.4802,7.5242,7.5359,7.5066,7.4624,7.5039,7.6078,7.7037,7.7752,7.8538,7.9221,7.9169,7.8927,7.863,7.8385,10.1095,9.9578,9.8314,9.7745,9.7524,9.7019,9.7398,9.8314,9.8504,9.8805,9.9326,9.942,9.931,9.931,9.9119,9.9449,9.9683,9.9379,9.8949,9.9074,9.926,9.9158,9.8847,9.8929,9.9373,9.9778,10.064,10.088,10.0576,10.0192,10.0209,9.9748,9.8462,9.7485,9.6716,9.5515,9.4715,9.4161,9.3976,9.3607,9.3114,9.3114,9.3176,9.2899,9.2037,9.136,9.0837,8.9574,8.862,8.8005,8.7204,8.6927,8.763,8.8286,8.911,8.9712,9.0048,9.0221,8.9979,9.0076,8.9885,8.9753,8.9138,8.8155,8.7443,8.6111,8.5009,8.4316,8.3263,8.34,8.4131,8.4206,8.4025,8.3834,8.3227,8.2334,8.1502,8.0165,7.9151,7.8427,7.7774,7.6838,7.6242,7.6545,7.6329,7.5959,7.5897,7.5928,7.5951,7.6085,7.595,7.5937,7.5858,7.5667,7.4952,7.4542,7.4337,7.388,7.3633,7.3447,7.4031,7.3995,7.4176,7.4026,7.3692,7.4417,7.5534,7.5906,7.6589,7.7479,7.8131,7.7719,7.7358,7.6971,7.6636,10.119,9.9831,9.8725,9.8093,9.7763,9.7513,9.7655,9.8128,9.852,9.888,9.9194,9.9257,9.9257,9.9257,9.9097,9.928,9.9937,10.0149,9.9778,9.9614,9.9686,9.9829,9.9661,9.9798,10.0006,10.0161,10.0625,10.0882,10.0681,10.0411,10.0141,10.0194,9.8994,9.7885,9.7178,9.5977,9.493,9.4253,9.3915,9.3699,9.3699,9.3699,9.3699,9.333,9.2191,9.1206,9.1083,8.9574,8.8836,8.8405,8.7697,8.7235,8.7574,8.8005,8.8528,8.9051,8.9205,8.9205,8.9205,8.9205,8.925,8.9205,8.8836,8.8343,8.7666,8.665,8.5634,8.4742,8.4013,8.3812,8.4068,8.4075,8.4059,8.3035,8.2615,8.1584,8.0366,7.9461,7.8678,7.8083,7.7636,7.6823,7.6294,7.6143,7.5773,7.5682,7.5526,7.5526,7.5401,7.5433,7.5153,7.5026,7.4897,7.4585,7.3879,7.3664,7.4036,7.3818,7.3787,7.3661,7.3943,7.3602,7.3169,7.3107,7.3293,7.3966,7.4921,7.5183,7.565,7.6589,7.6925,7.633,7.5759,7.5327,7.4916,10.119,9.9831,9.9057,9.8457,9.8095,9.8049,9.7859,9.7655,9.8243,9.8725,9.8706,9.8675,9.8837,9.8737,9.8531,9.8824,9.9551,10.0641,10.0545,9.9829,10.0271,10.038,10.0218,10.031,10.0249,9.9732,10.0341,10.0533,10.0379,9.9979,10.0225,10.0225,9.9301,9.8501,9.7547,9.6316,9.5331,9.4592,9.4099,9.3853,9.4192,9.4284,9.4376,9.3822,9.2283,9.1267,9.0898,8.9759,8.8836,8.9297,8.8897,8.8713,8.862,8.8405,8.8559,8.9205,8.9205,8.9205,8.9205,8.9205,8.9205,8.9205,8.9174,8.8928,8.8312,8.7666,8.6835,8.6035,8.5327,8.4896,8.4465,8.4402,8.3529,8.2458,8.1803,8.0802,7.9909,7.954,7.9336,7.8442,7.8169,7.7671,7.6958,7.6592,7.6003,7.5507,7.5384,7.5292,7.5261,7.5171,7.5052,7.4714,7.4687,7.4128,7.3417,7.3662,7.3877,7.4062,7.403,7.403,7.3999,7.366,7.3353,7.3045,7.3262,7.3905,7.4236,7.4445,7.5007,7.5823,7.5592,7.483,7.4205,7.36,7.3663,10.119,9.9752,9.8742,9.852,9.8755,9.8059,9.7882,9.8319,9.8457,9.8925,9.9217,9.8893,9.8937,9.9011,9.8392,9.8281,9.9105,10.0041,10.0295,9.981,10.0272,10.0464,10.0502,10.0841,10.0964,10.1056,10.1087,10.1056,10.1087,10.1056,10.0871,10.0933,10.0286,9.9517,9.8686,9.7608,9.6223,9.5331,9.4869,9.4653,9.4592,9.4777,9.4807,9.4222,9.2406,9.1452,9.1144,9.0436,8.9944,9.0067,9.0467,9.0621,9.0375,8.9636,8.9236,8.9236,8.9236,8.9205,8.9205,8.9205,8.9205,8.9205,8.9205,8.9205,8.8866,8.8466,8.7851,8.7451,8.6589,8.5911,8.5788,8.545,8.4926,8.4188,8.3326,8.2433,8.1787,8.1325,8.0802,7.9632,7.917,7.8647,7.7939,7.7447,7.7169,7.68,7.6554,7.6492,7.6461,7.6123,7.5787,7.5294,7.474,7.3971,7.3169,7.3754,7.4153,7.4399,7.4461,7.4461,7.4338,7.4061,7.3722,7.3383,7.3262,7.357,7.3783,7.3844,7.4116,7.4802,7.4176,7.3416,7.354,7.3664,7.3818,10.0482,9.9177,9.864,9.8372,9.8261,9.7921,9.7728,9.774,9.8228,9.8456,9.858,9.8766,9.8921,9.89,9.8827,9.8885,9.9394,9.9917,10.0317,10.0379,10.0687,10.0841,10.081,10.121,10.1271,10.1302,10.1302,10.1333,10.1333,10.1302,10.1333,10.1148,10.0656,10.0133,9.9486,9.807,9.7085,9.6254,9.5669,9.5331,9.5207,9.5392,9.5023,9.4376,9.296,9.1852,9.1606,9.1083,9.0929,9.1237,9.1544,9.1729,9.1452,9.0867,9.0067,8.9759,8.939,8.9205,8.9205,8.9205,8.9205,8.9205,8.9205,8.9205,8.9144,8.8897,8.8682,8.8466,8.7943,8.7204,8.7173,8.6804,8.6404,8.5604,8.468,8.3849,8.3233,8.2803,8.191,8.0925,8.0555,7.9847,7.8801,7.8462,7.837,7.8124,7.7754,7.76,7.7442,7.7046,7.6492,7.5754,7.5138,7.4584,7.3937,7.4338,7.4676,7.4861,7.5046,7.5046,7.4738,7.4461,7.4091,7.3691,7.3664,7.3602,7.3355,7.3416,7.3631,7.3816,7.3819,7.3725,7.3755,7.3783,7.4061,9.9892,9.88,9.8563,9.8108,9.7653,9.7681,9.758,9.7374,9.799,9.8277,9.807,9.8809,9.9024,9.8901,9.9117,9.9548,10.0133,10.0194,10.0656,10.1118,10.1241,10.1302,10.1302,10.1333,10.1333,10.1333,10.1333,10.1333,10.1333,10.1333,10.1333,10.121,10.0748,10.0286,9.9702,9.8563,9.7762,9.6808,9.6162,9.5823,9.5977,9.5762,9.5485,9.5331,9.3638,9.2622,9.2376,9.1791,9.1698,9.1945,9.216,9.2252,9.2283,9.1791,9.1114,9.0436,8.9667,8.9297,8.9205,8.9205,8.9205,8.9205,8.9205,8.9205,8.9205,8.9174,8.9144,8.9113,8.8743,8.8343,8.8282,8.8189,8.7635,8.6743,8.5727,8.4803,8.4003,8.3387,8.2833,8.2156,8.1817,8.1048,8.0001,7.9232,7.9109,7.8739,7.837,7.8001,7.7877,7.757,7.6985,7.6184,7.5569,7.523,7.5015,7.523,7.5446,7.5538,7.5784,7.5907,7.5415,7.4892,7.4553,7.4276,7.3999,7.3909,7.3507,7.3199,7.3571,7.385,7.4032,7.4122,7.4245,7.4461,7.4707,10.0172,9.9373,9.8341,9.7867,9.7805,9.7487,9.7692,9.8061,9.8193,9.8963,9.9486,9.9486,9.9609,9.9794,9.9425,9.9394,9.964,10.0102,10.0687,10.1241,10.1333,10.1333,10.1333,10.1333,10.1333,10.1333,10.1333,10.1333,10.1333,10.1333,10.1333,10.1271,10.1118,10.0717,9.9825,9.924,9.8163,9.6777,9.6316,9.6223,9.6223,9.6162,9.6069,9.5608,9.4684,9.3638,9.3114,9.2591,9.2468,9.2406,9.2345,9.2529,9.2837,9.2468,9.1822,9.096,9.0036,8.9205,8.9236,8.9205,8.9205,8.9205,8.9205,8.9205,8.9205,8.9205,8.9205,8.9205,8.9051,8.899,8.8866,8.8528,8.8159,8.7451,8.6466,8.5327,8.4434,8.4342,8.3726,8.3141,8.2741,8.2095,8.1202,8.0463,7.9786,7.9355,7.8986,7.8616,7.8154,7.7785,7.7385,7.6523,7.6154,7.5846,7.5754,7.6031,7.6092,7.6154,7.6338,7.6523,7.5907,7.5384,7.5323,7.5046,7.4707,7.4461,7.4245,7.4061,7.3937,7.4122,7.4491,7.4707,7.4892,7.5107,7.5446,9.9117,9.8807,9.7909,9.7518,9.7549,9.7384,9.7455,9.7762,9.8163,9.8624,9.924,9.9763,10.0071,10.0163,9.9609,9.9548,9.9856,10.0194,10.0687,10.121,10.1333,10.1333,10.1333,10.1333,10.1333,10.1333,10.1333,10.1333,10.1333,10.1333,10.1333,10.1333,10.1302,10.1118,10.0194,10.0009,9.9209,9.8286,9.7608,9.7024,9.65,9.6223,9.5915,9.5238,9.4623,9.4192,9.3884,9.4007,9.3915,9.3884,9.3668,9.3484,9.3453,9.2868,9.2037,9.1822,9.0929,9.0067,8.9359,8.9267,8.9236,8.9205,8.9205,8.9205,8.9205,8.9174,8.9174,8.9205,8.9205,8.9174,8.9144,8.8959,8.8836,8.8282,8.7143,8.6496,8.5604,8.5173,8.4834,8.4218,8.3603,8.2987,8.2372,8.1756,8.0986,8.034,7.9817,7.9324,7.8555,7.7754,7.7323,7.6831,7.6615,7.6523,7.6492,7.6585,7.6615,7.6646,7.6646,7.6677,7.6215,7.5846,7.5815,7.56,7.5169,7.5015,7.5015,7.483,7.4584,7.483,7.5138,7.5353,7.56,7.6061,7.6338,9.8532,9.847,9.7639,9.727,9.727,9.727,9.7424,9.7639,9.8286,9.8686,9.9086,10.0009,10.0502,10.0256,9.9856,9.9856,10.0286,10.0317,10.0748,10.1118,10.1333,10.1333,10.1333,10.1333,10.1333,10.1333,10.1333,10.1333,10.1333,10.1333,10.1333,10.1333,10.1333,10.1118,10.0902,10.0286,9.9425,9.8778,9.8347,9.7732,9.7024,9.6654,9.5915,9.53,9.49,9.4869,9.4653,9.5115,9.5423,9.5023,9.4469,9.4099,9.4007,9.3176,9.2437,9.216,9.1544,9.0929,9.0159,8.9698,8.9421,8.9267,8.9205,8.9205,8.9174,8.9113,8.8959,8.8866,8.8589,8.862,8.8682,8.8589,8.8436,8.8159,8.7728,8.7389,8.6896,8.5881,8.5203,8.4742,8.4218,8.3972,8.3418,8.2987,8.2279,8.1448,8.0771,8.0063,7.9109,7.8062,7.757,7.72,7.6892,7.6862,7.6862,7.6923,7.7016,7.7077,7.7077,7.6954,7.6554,7.6369,7.6338,7.6031,7.5692,7.5846,7.6,7.56,7.5261,7.5476,7.5723,7.6061,7.64,7.68,7.6954,9.924,9.9117,9.7824,9.7301,9.7301,9.727,9.7639,9.8193,9.887,9.9486,10.004,10.081,10.0748,10.041,10.0225,10.0194,10.0317,10.0317,10.0779,10.1148,10.1333,10.1333,10.1333,10.1333,10.1333,10.1333,10.1333,10.1333,10.1333,10.1333,10.1333,10.1333,10.1333,10.0933,10.0471,9.9979,9.9394,9.887,9.8563,9.8378,9.7855,9.7455,9.6808,9.6408,9.6531,9.6531,9.5361,9.5854,9.6039,9.5546,9.4807,9.4438,9.4284,9.3484,9.2837,9.2437,9.2283,9.1698,9.1052,9.0406,8.9821,8.9451,8.9205,8.9205,8.9205,8.8589,8.8343,8.8312,8.8035,8.7604,8.7512,8.7358,8.7666,8.7604,8.7389,8.6958,8.6404,8.5665,8.508,8.4957,8.4803,8.4619,8.4188,8.3695,8.2772,8.1879,8.0894,8.0186,7.9601,7.8709,7.8154,7.7693,7.7231,7.7046,7.6985,7.7077,7.7293,7.7323,7.7323,7.7231,7.7046,7.6923,7.6708,7.6708,7.6461,7.6708,7.6831,7.6308,7.6,7.6092,7.6308,7.6554,7.6677,7.6892,7.7016,9.8686,9.8593,9.767,9.7516,9.7885,9.7455,9.767,9.8286,9.8593,9.9332,10.0348,10.0563,10.0563,10.0379,10.0317,10.0317,10.0379,10.0779,10.1056,10.1241,10.1333,10.1333,10.1333,10.1333,10.1333,10.1333,10.1333,10.1333,10.1333,10.1333,10.1333,10.1333,10.1333,10.121,10.0717,10.0009,9.9486,9.9425,9.9086,9.8778,9.8286,9.8101,9.7578,9.7024,9.6562,9.6747,9.6531,9.6747,9.6716,9.6285,9.5423,9.5023,9.4684,9.3822,9.3176,9.2837,9.2807,9.2437,9.1852,9.1206,9.0529,8.9913,8.9482,8.9236,8.9205,8.8589,8.8282,8.8005,8.7543,8.7112,8.7173,8.7204,8.7266,8.7143,8.6835,8.6435,8.6065,8.548,8.5388,8.545,8.545,8.5357,8.4834,8.4311,8.3264,8.2248,8.1233,8.034,7.9847,7.9293,7.8709,7.8247,7.7785,7.7416,7.7323,7.7447,7.7631,7.7631,7.7631,7.757,7.7477,7.7108,7.6954,7.7016,7.7016,7.6985,7.6892,7.6769,7.6677,7.6615,7.6708,7.6892,7.6985,7.7016,7.7016,9.844,9.8501,9.7855,9.7855,9.8193,9.7578,9.7547,9.8009,9.847,9.9363,10.0594,10.0625,10.0625,10.0625,10.0656,10.0656,10.0779,10.1056,10.1241,10.1333,10.1333,10.1333,10.1333,10.1333,10.1333,10.1333,10.1333,10.1333,10.1333,10.1333,10.1333,10.1333,10.1333,10.1302,10.1087,10.0502,10.0071,10.0102,9.9886,9.9455,9.8963,9.844,9.8163,9.7547,9.7054,9.687,9.7054,9.7178,9.7178,9.6839,9.6254,9.5669,9.5115,9.4438,9.3668,9.3453,9.3268,9.2991,9.2499,9.1698,9.096,9.019,9.0129,8.9698,8.9205,8.8743,8.8589,8.8097,8.7451,8.6866,8.6866,8.6589,8.6373,8.6158,8.6219,8.5911,8.6065,8.5758,8.5881,8.5973,8.5911,8.5788,8.5296,8.468,8.351,8.2587,8.1817,8.1017,8.0463,7.9847,7.9201,7.8739,7.8339,7.8001,7.7724,7.8062,7.837,7.837,7.8308,7.8124,7.7908,7.7539,7.7139,7.7016,7.7016,7.7016,7.6985,7.6892,7.6923,7.6985,7.7016,7.7016,7.7016,7.7016,7.7016,9.8686,9.9178,9.8532,9.8316,9.8378,9.7608,9.7424,9.7824,9.8809,9.9948,10.1025,10.1148,10.121,10.121,10.1148,10.1118,10.1148,10.1271,10.1333,10.1333,10.1333,10.1333,10.1333,10.1333,10.1333,10.1333,10.1333,10.1333,10.1333,10.1333,10.1333,10.1333,10.1333,10.1333,10.1333,10.1271,10.0902,10.041,10.0317,10.0163,9.9948,9.9055,9.847,9.8501,9.7701,9.7424,9.7639,9.7516,9.7455,9.7147,9.6562,9.61,9.5915,9.49,9.4284,9.4222,9.3668,9.333,9.3114,9.1945,9.1144,9.0559,9.0559,9.0344,8.9513,8.9082,8.8805,8.822,8.7081,8.6373,8.6004,8.5696,8.5542,8.545,8.5511,8.5573,8.5727,8.6004,8.6065,8.6219,8.6188,8.6035,8.5604,8.4957,8.3726,8.2833,8.2279,8.1694,8.1171,8.0371,7.9663,7.9601,7.9232,7.8832,7.8647,7.8862,7.9078,7.9078,7.9016,7.8862,7.8555,7.8216,7.7785,7.7293,7.72,7.7354,7.72,7.7016,7.7139,7.72,7.7046,7.7016,7.7016,7.7046,7.7108,9.9117,9.9301,9.9055,9.924,9.9517,9.8901,9.8624,9.8778,9.9578,10.0256,10.0687,10.1087,10.1333,10.1333,10.1333,10.1333,10.1333,10.1333,10.1333,10.1333,10.1333,10.1333,10.1333,10.1333,10.1333,10.1333,10.1333,10.1333,10.1333,10.1333,10.1333,10.1333,10.1333,10.1333,10.1179,10.1025,10.0625,10.081,10.0656,10.044,10.0748,9.9763,9.9332,10.004,9.8747,9.8163,9.847,9.8224,9.7793,9.7393,9.6747,9.6439,9.6254,9.5331,9.4961,9.493,9.4561,9.4346,9.3884,9.2991,9.2037,9.1391,9.1052,9.0744,8.9482,8.9236,8.8836,8.822,8.7173,8.6527,8.6035,8.5542,8.5327,8.5234,8.5234,8.5265,8.5419,8.5819,8.6065,8.6312,8.6373,8.6281,8.5973,8.5604,8.4526,8.3541,8.2987,8.2618,8.2095,8.0986,8.0155,8.0432,8.0278,7.9786,7.9601,7.9909,7.9971,7.994,7.9847,7.9694,7.9355,7.8924,7.8647,7.8247,7.7939,7.7662,7.7662,7.76,7.7477,7.7416,7.7447,7.7262,7.7169,7.7231,7.7262,9.924,9.964,9.9671,10.004,10.0471,9.9702,9.9425,9.9671,9.9917,10.0194,10.0717,10.1148,10.1333,10.1333,10.1333,10.1333,10.1333,10.1333,10.1333,10.1333,10.1333,10.1333,10.1333,10.1333,10.1333,10.1333,10.1333,10.1333,10.1333,10.1333,10.1333,10.1333,10.1333,10.1333,10.121,10.1025,10.0902,10.1087,10.0933,10.0871,10.0871,10.0471,10.0194,10.041,9.9856,9.8932,9.9271,9.8994,9.8347,9.7701,9.7239,9.6839,9.6531,9.6069,9.5669,9.5608,9.53,9.4961,9.4222,9.3884,9.2868,9.176,9.176,9.1237,9.0252,9.0067,8.9636,8.8897,8.7758,8.7204,8.6804,8.6188,8.5973,8.5942,8.5604,8.5665,8.5604,8.6035,8.6004,8.625,8.6435,8.6373,8.625,8.6004,8.5419,8.4557,8.3757,8.3387,8.2956,8.1817,8.0986,8.1325,8.1479,8.111,8.0894,8.0986,8.0986,8.0832,8.0648,8.0432,8.0001,7.9509,7.9355,7.917,7.8739,7.8401,7.8308,7.8247,7.8185,7.8154,7.8154,7.7877,7.7447,7.7354,7.7385,9.9086,10.0225,10.0317,10.0656,10.1025,9.9948,9.9732,10.0194,9.964,10.0102,10.1148,10.1148,10.1333,10.1333,10.1333,10.1333,10.1333,10.1333,10.1333,10.1333,10.1333,10.1333,10.1333,10.1333,10.1333,10.1333,10.1333,10.1333,10.1333,10.1333,10.1333,10.1333,10.1333,10.1333,10.1271,10.1241,10.121,10.1241,10.1241,10.1179,10.1087,10.0656,10.0656,10.0687,10.0133,9.9732,9.9825,9.9609,9.8994,9.8532,9.8224,9.7824,9.7331,9.6685,9.6439,9.6162,9.5731,9.5115,9.4684,9.45,9.373,9.2745,9.2899,9.2345,9.1544,9.0929,9.0652,9.0098,8.9236,8.8713,8.8189,8.7851,8.7543,8.7112,8.6589,8.6404,8.6219,8.6188,8.6004,8.6096,8.6342,8.6312,8.6188,8.5973,8.585,8.5357,8.4557,8.4003,8.348,8.2679,8.2125,8.2464,8.2556,8.2464,8.2341,8.2156,8.1725,8.1479,8.1263,8.1017,8.0555,8.0248,8.0186,7.994,7.9417,7.9047,7.8801,7.8832,7.8955,7.8924,7.8862,7.8524,7.8124,7.7539,7.7447,9.9086,10.0286,10.0317,10.0717,10.1148,10.0379,9.9886,9.964,9.9825,10.0102,9.9948,10.0933,10.1302,10.1333,10.1333,10.1333,10.1333,10.1333,10.1333,10.1333,10.1333,10.1333,10.1333,10.1333,10.1333,10.1333,10.1333,10.1333,10.1333,10.1333,10.1333,10.1333,10.1333,10.1333,10.1364,10.1333,10.1333,10.1364,10.1364,10.1333,10.1179,10.0717,10.0902,10.0841,10.0533,10.0286,10.0225,10.0194,9.964,9.9148,9.8563,9.8132,9.8039,9.7393,9.6993,9.6931,9.6439,9.5885,9.5669,9.5238,9.453,9.3761,9.3792,9.2807,9.2006,9.1544,9.1575,9.096,9.0436,8.9821,8.9297,8.8928,8.8682,8.8282,8.7789,8.7451,8.7204,8.6804,8.6589,8.6281,8.6496,8.625,8.6127,8.6096,8.5942,8.5727,8.5357,8.4742,8.4065,8.3295,8.2987,8.3295,8.3295,8.3141,8.3233,8.311,8.2587,8.2125,8.191,8.1725,8.1417,8.1171,8.1048,8.0679,8.0155,7.9601,7.9109,7.9324,7.9786,7.957,7.9447,7.9139,7.877,7.8216,7.797,9.9086,10.0256,10.0317,10.0717,10.1179,10.0902,10.0317,9.9856,10.0163,10.0163,10.0225,10.0994,10.1333,10.1333,10.1333,10.1333,10.1333,10.1333,10.1333,10.1333,10.1333,10.1333,10.1333,10.1333,10.1333,10.1333,10.1333,10.1333,10.1364,10.1333,10.1333,10.1333,10.1333,10.1518,10.161,10.1548,10.1548,10.1579,10.1548,10.1364,10.1148,10.0902,10.1087,10.1148,10.081,10.0748,10.0687,10.0687,10.0348,9.9732,9.9055,9.8532,9.8316,9.767,9.727,9.7178,9.6962,9.65,9.6162,9.5885,9.5177,9.4561,9.4284,9.3453,9.2683,9.2129,9.1945,9.1606,9.1237,9.0806,9.0313,8.9882,8.9698,8.9482,8.902,8.8589,8.8128,8.7604,8.7204,8.6773,8.6496,8.6219,8.6096,8.6096,8.5973,8.5665,8.5542,8.5357,8.4711,8.3972,8.3726,8.388,8.3818,8.3695,8.3849,8.3911,8.3418,8.2956,8.2679,8.2433,8.2187,8.1879,8.1571,8.1263,8.0894,8.0494,8.0248,8.0371,8.0648,8.0463,8.0371,8.0278,7.9817,7.9047,7.8955,9.8994,10.0225,10.0286,10.0717,10.1271,10.121,10.0871,10.041,10.0348,10.0625,10.1056,10.1271,10.1333,10.1333,10.1333,10.1333,10.1333,10.1333,10.1333,10.1333,10.1333,10.1333,10.1333,10.1333,10.1333,10.1333,10.1487,10.1702,10.161,10.1733,10.1856,10.1487,10.1641,10.1918,10.2103,10.1795,10.1733,10.1733,10.1548,10.1333,10.1333,10.1302,10.1333,10.1302,10.1271,10.1271,10.1271,10.1179,10.1025,10.0379,9.9671,9.8963,9.8163,9.767,9.7362,9.727,9.7178,9.6962,9.6654,9.6408,9.5608,9.493,9.4315,9.3822,9.3176,9.2437,9.2099,9.1945,9.1575,9.1021,9.0498,9.0652,9.0652,9.0498,9.019,8.9821,8.9451,8.8559,8.742,8.702,8.6712,8.6404,8.5973,8.5973,8.6065,8.5634,8.5388,8.545,8.5296,8.4588,8.4403,8.4403,8.4342,8.4311,8.4495,8.4495,8.4218,8.3818,8.3449,8.3141,8.2895,8.2464,8.2002,8.1756,8.154,8.1756,8.1725,8.1725,8.1633,8.151,8.1479,8.151,8.0925,7.994,7.9447,9.8316,9.9578,10.0102,10.0717,10.121,10.0779,10.0779,10.1025,10.0533,10.044,10.0625,10.1087,10.1333,10.1333,10.1333,10.1333,10.1333,10.1333,10.1333,10.1333,10.1333,10.1333,10.1333,10.1333,10.1333,10.1518,10.1826,10.2287,10.2595,10.2749,10.2841,10.2841,10.2749,10.2718,10.2472,10.2133,10.2041,10.201,10.1672,10.1456,10.1425,10.1364,10.1333,10.1364,10.1395,10.1425,10.1395,10.1364,10.1271,10.0933,9.9856,9.8778,9.7608,9.7393,9.7301,9.727,9.727,9.7147,9.7054,9.6839,9.6254,9.5515,9.4869,9.4192,9.3484,9.2683,9.2191,9.2068,9.1729,9.1175,9.0929,9.1267,9.1544,9.1421,9.1298,9.099,9.0683,8.9297,8.782,8.7358,8.705,8.6589,8.6127,8.5911,8.5973,8.5758,8.5357,8.5296,8.5511,8.5173,8.4834,8.4803,8.4865,8.4926,8.5019,8.4957,8.4619,8.4342,8.3972,8.3757,8.3541,8.311,8.2679,8.2402,8.2248,8.2464,8.2649,8.2741,8.2649,8.2495,8.2156,8.2002,8.1479,8.0555,7.9971,9.807,9.9332,10.004,10.0533,10.0779,10.0471,10.0533,10.081,10.0779,10.0779,10.081,10.1148,10.1333,10.1333,10.1333,10.1333,10.1333,10.1333,10.1333,10.1333,10.1333,10.1333,10.1333,10.1333,10.1641,10.1826,10.2164,10.2657,10.3334,10.2995,10.2841,10.3088,10.318,10.3241,10.278,10.2564,10.2349,10.2287,10.1887,10.1795,10.1702,10.1579,10.1826,10.1887,10.201,10.1856,10.1795,10.1764,10.1579,10.1087,10.0009,9.8686,9.7701,9.7301,9.7301,9.727,9.727,9.727,9.7301,9.7147,9.6777,9.5977,9.5669,9.5054,9.3853,9.3053,9.2283,9.2099,9.1606,9.1083,9.1206,9.1483,9.1791,9.1852,9.176,9.1606,9.1021,9.0036,8.899,8.8374,8.7943,8.7297,8.6773,8.6127,8.6127,8.5942,8.5511,8.5203,8.5419,8.5511,8.5265,8.5111,8.5111,8.5111,8.508,8.505,8.4926,8.468,8.4465,8.4218,8.3941,8.3664,8.3357,8.2987,8.2864,8.308,8.3264,8.348,8.351,8.3357,8.2864,8.2372,8.1756,8.111,8.0432,9.8009,9.9209,9.9794,10.0102,10.0163,10.0071,10.0163,10.0379,10.081,10.1118,10.1271,10.1302,10.1333,10.1333,10.1333,10.1333,10.1333,10.1333,10.1333,10.1333,10.1333,10.1333,10.1333,10.1364,10.1733,10.2164,10.2534,10.3057,10.3642,10.3426,10.3303,10.2903,10.3057,10.3457,10.3149,10.2811,10.2441,10.2472,10.238,10.2441,10.2195,10.1949,10.2441,10.278,10.2811,10.2441,10.238,10.2164,10.1856,10.1179,10.0194,9.9086,9.8255,9.7855,9.7639,9.7639,9.7578,9.7485,9.7331,9.727,9.6747,9.6316,9.6254,9.5546,9.4253,9.3207,9.2437,9.2006,9.1544,9.1114,9.1237,9.1698,9.2006,9.2129,9.2068,9.2099,9.1421,9.0683,8.9944,8.9297,8.8713,8.8066,8.7389,8.6712,8.6404,8.6158,8.5819,8.548,8.5265,8.5296,8.5173,8.5111,8.5111,8.5111,8.5111,8.508,8.505,8.4988,8.4773,8.4557,8.4342,8.4188,8.3911,8.348,8.3449,8.3788,8.4003,8.4188,8.4188,8.4003,8.3295,8.2618,8.1971,8.1325,8.0679,9.7762,9.8501,9.8655,9.8994,9.9394,9.8932,9.9271,10.0133,9.9886,10.0256,10.1087,10.1302,10.1333,10.1333,10.1333,10.1333,10.1333,10.1333,10.1333,10.1333,10.1333,10.1333,10.1364,10.1487,10.1795,10.2318,10.2934,10.358,10.4042,10.4411,10.4442,10.3888,10.3919,10.3642,10.2626,10.238,10.2287,10.2318,10.2564,10.2657,10.3118,10.3026,10.3118,10.3118,10.278,10.2503,10.2256,10.1826,10.1548,10.1118,10.0502,9.9578,9.9055,9.8624,9.8409,9.807,9.8009,9.7732,9.7578,9.7455,9.6993,9.6069,9.5854,9.5331,9.4007,9.2714,9.2222,9.216,9.1575,9.059,9.0683,9.1698,9.216,9.2037,9.1945,9.2191,9.1975,9.1114,9.0313,8.9851,8.9421,8.8774,8.8097,8.7604,8.7358,8.6989,8.6373,8.6035,8.5696,8.545,8.5173,8.5111,8.5111,8.5111,8.5111,8.5111,8.508,8.508,8.505,8.4773,8.468,8.4773,8.4495,8.4065,8.4249,8.4649,8.4834,8.468,8.4526,8.4249,8.3541,8.2833,8.2187,8.1602,8.1048]}]]